[[{"header":{"parameterUnit":"m.s-1","parameterCategory":1,"la1":31.0,"la2":29.5877,"lo1":-88.7671,"lo2":-86.6584,"dy":0.0162,"dx":0.0185,"nx":115,"ny":88,"refTime":"2023-07-04T12:00:00:Z","depth":0,"parameterNumber":2,"parameterNumberName":"U-component_of_WINDS"},"data":[0.0,0.0,0.0,0.0,0.0,0.0,0.0,0.0,0.0,0.0,0.0,0.0,0.0,0.0,0.0,0.0,0.0,0.0,0.0,0.0,0.0,0.0,0.0,0.0,0.0,0.0,0.0,0.0,0.0,0.0,0.0,0.0,0.0,0.0,0.0,0.0,0.0,0.0,0.0,0.0,0.0,0.0,0.0,0.0,0.0,0.0,0.0,0.0,0.0,0.0,0.0,0.0,0.0,0.0,0.0,0.0,0.0,0.0,0.0,0.0,0.0,0.0,0.0,0.0,0.0,0.0,0.0,0.0,0.0,0.0,0.0,0.0,0.0,0.0,0.0,0.0,0.0,0.0,0.0,0.0,0.0,0.0,0.0,0.0,0.0,0.0,0.0,0.0,0.0,0.0,0.0,0.0,0.0,0.0,0.0,0.0,0.0,0.0,0.0,0.0,0.0,0.0,0.0,0.0,0.0,0.0,0.0,0.0,0.0,0.0,0.0,0.0,0.0,0.0,0.0,0.0,0.0,0.0,0.0,0.0,0.0,0.0,0.0,0.0,0.0,0.0,0.0,0.0,0.0,0.0,0.0,0.0,0.0,0.0,0.0,0.0,0.0,0.0,0.0,0.0,0.0,0.0,0.0,0.0,0.0,0.0,0.0,0.0,0.0,0.0,0.0,0.0,0.0,0.0,0.0,0.0,0.0,0.0,0.0,0.0,0.0,0.0,0.0,0.0,0.0,0.0,0.0,0.0,0.0,0.0,0.0,0.0,0.0,0.0,0.0,0.0,0.0,0.0,0.0,0.0,0.0,0.0,0.0,0.0,0.0,0.0,0.0,0.0,0.0,0.0,0.0,0.0,0.0,0.0,0.0,0.0,0.0,0.0,0.0,0.0,0.0,0.0,0.0,0.0,0.0,0.0,0.0,0.0,0.0,0.0,0.0,0.0,0.0,0.0,0.0,0.0,0.0,0.0,0.0,0.0,0.0,0.0,0.0,0.0,0.0,0.0,0.0,0.0,0.0,0.0,0.0,0.0,0.0,0.0,0.0,0.0,0.0,0.0,0.0,0.0,0.0,0.0,0.0,0.0,0.0,0.0,0.0,0.0,0.0,0.0,0.0,0.0,0.0,0.0,0.0,0.0,0.0,0.0,0.0,0.0,0.0,0.0,0.0,0.0,0.0,0.0,0.0,0.0,0.0,0.0,0.0,0.0,0.0,0.0,0.0,0.0,0.0,0.0,0.0,0.0,0.0,0.0,0.0,0.0,0.0,0.0,0.0,0.0,0.0,0.0,0.0,0.0,0.0,0.0,0.0,0.0,0.0,0.0,0.0,0.0,0.0,0.0,0.0,0.0,0.0,0.0,0.0,0.0,0.0,0.0,0.0,0.0,0.0,0.0,0.0,0.0,0.0,0.0,0.0,0.0,0.0,0.0,0.0,0.0,0.0,0.0,0.0,0.0,0.0,0.0,0.0,0.0,0.0,0.0,0.0,0.0,0.0,0.0,0.0,0.0,0.0,0.0,0.0,0.0,0.0,0.0,0.0,0.0,0.0,0.0,0.0,0.0,0.0,0.0,0.0,0.0,0.0,0.0,0.0,0.0,0.0,0.0,0.0,0.0,0.0,0.0,0.0,0.0,0.0,0.0,0.0,0.0,0.0,0.0,0.0,0.0,0.0,0.0,0.0,0.0,0.0,0.0,0.0,0.0,0.0,0.0,0.0,0.0,0.0,0.0,0.0,0.0,0.0,0.0,0.0,0.0,0.0,0.0,0.0,0.0,0.0,0.0,0.0,0.0,0.0,0.0,0.0,0.0,0.0,0.0,0.0,0.0,0.0,0.0,0.0,0.0,0.0,0.0,0.0,0.0,0.0,0.0,0.0,0.0,0.0,0.0,0.0,0.0,0.0,0.0,0.0,0.0,0.0,0.0,0.0,0.0,0.0,0.0,0.0,0.0,0.0,0.0,0.0,0.0,0.0,0.0,0.0,0.0,0.0,0.0,0.0,0.0,0.0,0.0,0.0,0.0,0.0,0.0,0.0,0.0,0.0,0.0,0.0,0.0,0.0,0.0,0.0,0.0,0.0,0.0,0.0,0.0,0.0,0.0,0.0,0.0,0.0,0.0,0.0,0.0,0.0,0.0,0.0,0.0,0.0,0.0,0.0,0.0,0.0,0.0,0.0,0.0,0.0,0.0,0.0,0.0,0.0,0.0,0.0,0.0,0.0,0.0,0.0,0.0,0.0,0.0,0.0,0.0,0.0,0.0,0.0,0.0,0.0,0.0,0.0,0.0,0.0,0.0,0.0,0.0,0.0,0.0,0.0,0.0,0.0,0.0,0.0,0.0,0.0,0.0,0.0,0.0,0.0,0.0,0.0,0.0,0.0,0.0,0.0,0.0,0.0,0.0,0.0,0.0,0.0,0.0,0.0,0.0,0.0,0.0,0.0,0.0,0.0,0.0,0.0,0.0,0.0,0.0,0.0,0.0,0.0,0.0,0.0,0.0,0.0,0.0,0.0,0.0,0.0,0.0,0.0,0.0,0.0,0.0,0.0,0.0,0.0,0.0,0.0,0.0,0.0,0.0,0.0,0.0,0.0,0.0,0.0,0.0,0.0,0.0,0.0,0.0,0.0,0.0,0.0,0.0,0.0,0.0,0.0,0.0,0.0,0.0,0.0,0.0,0.0,0.0,0.0,0.0,0.0,0.0,0.0,0.0,0.0,0.0,0.0,0.0,0.0,0.0,0.0,0.0,0.0,0.0,0.0,0.0,0.0,0.0,0.0,0.0,0.0,0.0,0.0,0.0,0.0,0.0,0.0,0.0,0.0,0.0,0.0,0.0,0.0,0.0,0.0,0.0,0.0,0.0,0.0,0.0,0.0,0.0,0.0,0.0,0.0,0.0,0.0,0.0,0.0,0.0,0.0,0.0,0.0,0.0,0.0,0.0,0.0,0.0,0.0,0.0,0.0,0.0,0.0,0.0,0.0,0.0,0.0,0.0,0.0,0.0,0.0,0.0,0.0,0.0,0.0,0.0,0.0,0.0,0.0,0.0,0.0,0.0,0.0,0.0,0.0,0.0,0.0,0.0,0.0,0.0,0.0,0.0,0.0,0.0,0.0,0.0,0.0,0.0,0.0,0.0,0.0,0.0,0.0,0.0,0.0,0.0,0.0,0.0,0.0,0.0,0.0,0.0,0.0,0.0,0.0,0.0,0.0,0.0,0.0,0.0,0.0,0.0,0.0,0.0,0.0,0.0,0.0,0.0,0.0,0.0,0.0,0.0,0.0,0.0,0.0,0.0,0.0,0.0,0.0,0.0,0.0,0.0,0.0,0.0,0.0,0.0,0.0,0.0,0.0,0.0,0.0,0.0,0.0,0.0,0.0,0.0,0.0,0.0,0.0,0.0,0.0,0.0,0.0,0.0,0.0,0.0,0.0,0.0,0.0,0.0,0.0,0.0,0.0,0.0,0.0,0.0,0.0,0.0,0.0,0.0,0.0,0.0,0.0,0.0,0.0,0.0,0.0,0.0,0.0,0.0,0.0,0.0,0.0,0.0,0.0,0.0,0.0,0.0,0.0,0.0,0.0,0.0,0.0,0.0,0.0,0.0,0.0,0.0,0.0,0.0,0.0,0.0,0.0,0.0,0.0,0.0,0.0,0.0,0.0,0.0,0.0,0.0,0.0,0.0,0.0,0.0,0.0,0.0,0.0,0.0,0.0,0.0,0.0,0.0,0.0,0.0,0.0,0.0,0.0,0.0,0.0,0.0,0.0,0.0,0.0,0.0,0.0,0.0,0.0,0.0,0.0,0.0,0.0,0.0,0.0,0.0,0.0,0.0,0.0,0.0,0.0,0.0,0.0,0.0,0.0,0.0,0.0,0.0,0.0,0.0,0.0,0.0,0.0,0.0,0.0,0.0,0.0,0.0,0.0,0.0,0.0,0.0,0.0,0.0,0.0,0.0,0.0,0.0,0.0,0.0,0.0,0.0,0.0,0.0,0.0,0.0,0.0,0.0,0.0,0.0,0.0,0.0,0.0,0.0,0.0,0.0,0.0,0.0,0.0,0.0,0.0,0.0,0.0,0.0,0.0,0.0,0.0,0.0,0.0,0.0,0.0,0.0,0.0,0.0,0.0,0.0,0.0,0.0,0.0,0.0,0.0,0.0,0.0,0.0,0.0,0.0,0.0,0.0,0.0,0.0,0.0,0.0,0.0,0.0,0.0,0.0,0.0,0.0,0.0,0.0,0.0,0.0,0.0,0.0,0.0,0.0,0.0,0.0,-1.6872,0.0,0.0,0.0,0.0,0.0,0.0,0.0,0.0,0.0,0.0,0.0,0.0,0.0,0.0,0.0,0.0,0.0,0.0,0.0,0.0,0.0,0.0,0.0,0.0,0.0,0.0,0.0,0.0,0.0,0.0,0.0,0.0,0.0,0.0,0.0,0.0,0.0,0.0,0.0,0.0,0.0,0.0,0.0,0.0,0.0,0.0,0.0,0.0,0.0,0.0,0.0,0.0,0.0,0.0,0.0,0.0,0.0,0.0,0.0,0.0,0.0,0.0,0.0,0.0,0.0,0.0,0.0,0.0,0.0,0.0,0.0,0.0,0.0,0.0,0.0,0.0,0.0,0.0,0.0,0.0,0.0,0.0,0.0,0.0,0.0,0.0,0.0,0.0,0.0,0.0,0.0,0.0,0.0,0.0,0.0,0.0,0.0,0.0,0.0,0.0,0.0,0.0,0.0,0.0,0.0,0.0,0.0,0.0,0.0,0.0,-1.7482,-1.8375,-1.823,-1.8172,-1.8172,0.0,0.0,0.0,0.0,0.0,0.0,0.0,0.0,0.0,0.0,0.0,0.0,0.0,0.0,0.0,0.0,0.0,0.0,0.0,0.0,0.0,0.0,0.0,0.0,0.0,0.0,0.0,0.0,0.0,0.0,0.0,0.0,0.0,0.0,0.0,0.0,0.0,0.0,0.0,0.0,0.0,0.0,0.0,0.0,0.0,0.0,0.0,0.0,0.0,0.0,0.0,0.0,0.0,0.0,0.0,0.0,0.0,0.0,0.0,0.0,0.0,0.0,0.0,0.0,0.0,0.0,0.0,0.0,0.0,0.0,0.0,0.0,0.0,0.0,0.0,0.0,0.0,0.0,0.0,0.0,0.0,0.0,0.0,0.0,0.0,0.0,0.0,0.0,0.0,0.0,0.0,0.0,0.0,0.0,0.0,0.0,0.0,0.0,0.0,0.0,0.0,0.0,0.0,0.0,0.0,0.0,0.0,0.0,0.0,0.0,0.0,0.0,-1.9473,-1.9341,-1.9341,0.0,0.0,0.0,0.0,0.0,0.0,0.0,0.0,0.0,0.0,0.0,0.0,0.0,0.0,0.0,0.0,0.0,0.0,0.0,0.0,0.0,0.0,0.0,0.0,0.0,0.0,0.0,0.0,0.0,0.0,0.0,0.0,0.0,0.0,0.0,0.0,0.0,0.0,0.0,0.0,0.0,0.0,0.0,0.0,0.0,0.0,0.0,0.0,0.0,0.0,0.0,0.0,0.0,0.0,0.0,0.0,0.0,0.0,0.0,0.0,0.0,0.0,0.0,0.0,0.0,0.0,0.0,0.0,0.0,0.0,0.0,0.0,0.0,0.0,0.0,0.0,0.0,0.0,0.0,0.0,0.0,0.0,0.0,0.0,0.0,0.0,0.0,0.0,0.0,0.0,0.0,0.0,0.0,0.0,0.0,0.0,0.0,0.0,0.0,0.0,0.0,0.0,0.0,0.0,0.0,0.0,0.0,0.0,0.0,0.0,-1.8844,-1.9539,-1.9605,0.0,-1.955,0.0,0.0,0.0,0.0,0.0,0.0,0.0,0.0,0.0,0.0,0.0,0.0,0.0,0.0,0.0,0.0,0.0,0.0,0.0,0.0,0.0,0.0,0.0,0.0,0.0,0.0,0.0,0.0,0.0,0.0,0.0,0.0,0.0,0.0,0.0,0.0,0.0,0.0,0.0,0.0,0.0,0.0,0.0,0.0,0.0,0.0,0.0,0.0,0.0,0.0,0.0,0.0,0.0,0.0,0.0,0.0,0.0,0.0,0.0,0.0,0.0,0.0,0.0,0.0,0.0,0.0,0.0,0.0,0.0,0.0,0.0,0.0,0.0,0.0,0.0,0.0,0.0,0.0,0.0,0.0,0.0,0.0,0.0,0.0,0.0,0.0,0.0,0.0,0.0,0.0,0.0,0.0,0.0,0.0,0.0,0.0,0.0,0.0,0.0,0.0,0.0,0.0,0.0,0.0,0.0,0.0,0.0,0.0,0.0,0.0,-1.9584,-1.9878,-1.9813,-1.9736,0.0,0.0,0.0,0.0,0.0,0.0,0.0,0.0,0.0,0.0,0.0,0.0,0.0,0.0,0.0,0.0,0.0,0.0,0.0,0.0,0.0,0.0,0.0,0.0,0.0,0.0,0.0,0.0,0.0,0.0,0.0,0.0,0.0,0.0,0.0,0.0,0.0,0.0,0.0,0.0,0.0,0.0,0.0,0.0,0.0,0.0,0.0,0.0,0.0,0.0,0.0,0.0,0.0,0.0,0.0,0.0,0.0,0.0,0.0,0.0,0.0,0.0,0.0,0.0,0.0,0.0,0.0,0.0,0.0,0.0,0.0,0.0,0.0,0.0,0.0,0.0,0.0,0.0,0.0,0.0,0.0,0.0,0.0,0.0,0.0,0.0,0.0,0.0,0.0,0.0,0.0,0.0,0.0,0.0,0.0,0.0,0.0,0.0,0.0,0.0,0.0,0.0,0.0,0.0,0.0,0.0,0.0,0.0,0.0,0.0,-1.9781,-2.0129,-2.0085,-2.0009,-1.9868,-1.9747,0.0,0.0,0.0,0.0,0.0,0.0,0.0,0.0,0.0,0.0,0.0,0.0,0.0,0.0,0.0,0.0,0.0,0.0,0.0,0.0,0.0,0.0,0.0,0.0,0.0,0.0,0.0,0.0,0.0,0.0,0.0,0.0,0.0,0.0,0.0,0.0,0.0,0.0,0.0,0.0,0.0,0.0,0.0,0.0,0.0,0.0,0.0,0.0,0.0,0.0,0.0,0.0,0.0,0.0,0.0,0.0,0.0,0.0,0.0,0.0,0.0,0.0,0.0,0.0,0.0,0.0,0.0,0.0,0.0,0.0,0.0,0.0,0.0,0.0,0.0,0.0,0.0,0.0,0.0,0.0,0.0,0.0,0.0,0.0,0.0,0.0,0.0,0.0,0.0,0.0,0.0,0.0,0.0,0.0,0.0,0.0,0.0,0.0,0.0,0.0,0.0,0.0,0.0,0.0,0.0,0.0,0.0,0.0,-2.027,-2.0205,-2.0085,-2.0085,-2.0074,-2.0085,0.0,0.0,0.0,0.0,0.0,0.0,0.0,0.0,0.0,0.0,0.0,0.0,0.0,0.0,0.0,0.0,0.0,0.0,0.0,0.0,0.0,0.0,0.0,0.0,0.0,0.0,0.0,0.0,0.0,0.0,0.0,0.0,0.0,0.0,0.0,0.0,0.0,0.0,0.0,0.0,0.0,0.0,0.0,0.0,0.0,0.0,0.0,0.0,0.0,0.0,0.0,0.0,0.0,0.0,0.0,0.0,0.0,0.0,0.0,0.0,0.0,0.0,0.0,0.0,0.0,0.0,0.0,0.0,0.0,0.0,0.0,0.0,0.0,0.0,0.0,0.0,0.0,0.0,0.0,0.0,0.0,0.0,0.0,0.0,0.0,0.0,0.0,0.0,0.0,0.0,0.0,0.0,0.0,0.0,0.0,0.0,0.0,0.0,0.0,0.0,0.0,0.0,0.0,0.0,0.0,0.0,0.0,0.0,0.0,-2.0216,-2.0151,-2.0151,-2.0281,-2.0151,-2.0085,0.0,0.0,0.0,0.0,0.0,0.0,0.0,0.0,0.0,0.0,0.0,0.0,0.0,0.0,0.0,0.0,0.0,0.0,0.0,0.0,0.0,0.0,0.0,0.0,0.0,0.0,0.0,0.0,0.0,0.0,0.0,0.0,0.0,0.0,0.0,0.0,0.0,0.0,0.0,0.0,0.0,0.0,0.0,0.0,0.0,0.0,0.0,0.0,0.0,0.0,0.0,0.0,0.0,0.0,0.0,0.0,0.0,0.0,0.0,0.0,0.0,0.0,0.0,0.0,0.0,0.0,0.0,0.0,0.0,0.0,0.0,0.0,0.0,0.0,0.0,0.0,0.0,0.0,0.0,0.0,0.0,0.0,0.0,0.0,0.0,0.0,0.0,0.0,0.0,0.0,0.0,0.0,0.0,0.0,0.0,0.0,0.0,0.0,0.0,0.0,0.0,0.0,0.0,0.0,0.0,0.0,0.0,0.0,0.0,-2.027,0.0,-2.0346,-2.041,-2.0216,-2.0085,0.0,0.0,0.0,0.0,0.0,0.0,0.0,0.0,0.0,0.0,0.0,0.0,0.0,0.0,0.0,0.0,0.0,0.0,0.0,0.0,0.0,0.0,0.0,0.0,0.0,0.0,0.0,0.0,0.0,0.0,0.0,0.0,0.0,0.0,0.0,0.0,0.0,0.0,0.0,0.0,0.0,0.0,0.0,0.0,0.0,0.0,0.0,0.0,0.0,0.0,0.0,0.0,0.0,0.0,0.0,0.0,0.0,0.0,0.0,0.0,0.0,0.0,0.0,0.0,0.0,0.0,0.0,0.0,0.0,0.0,0.0,0.0,0.0,0.0,0.0,0.0,0.0,0.0,0.0,0.0,0.0,0.0,0.0,0.0,0.0,0.0,0.0,0.0,0.0,0.0,0.0,0.0,0.0,0.0,0.0,0.0,0.0,0.0,0.0,0.0,0.0,0.0,0.0,0.0,0.0,0.0,0.0,0.0,-2.0464,-2.0669,-2.0669,-2.0616,-2.0399,-2.0216,-2.0085,0.0,0.0,0.0,0.0,0.0,0.0,0.0,0.0,0.0,0.0,0.0,0.0,0.0,0.0,0.0,0.0,0.0,0.0,0.0,0.0,0.0,0.0,0.0,0.0,0.0,0.0,0.0,0.0,0.0,0.0,0.0,0.0,0.0,0.0,0.0,0.0,0.0,0.0,0.0,0.0,0.0,0.0,0.0,0.0,0.0,0.0,0.0,0.0,0.0,0.0,0.0,0.0,0.0,0.0,0.0,0.0,0.0,0.0,0.0,0.0,0.0,0.0,0.0,0.0,0.0,0.0,0.0,0.0,0.0,0.0,0.0,0.0,0.0,0.0,0.0,0.0,0.0,0.0,0.0,0.0,0.0,0.0,0.0,0.0,0.0,0.0,0.0,0.0,0.0,0.0,0.0,0.0,0.0,0.0,0.0,0.0,0.0,0.0,0.0,0.0,0.0,0.0,0.0,0.0,0.0,0.0,0.0,0.0,0.0,-2.0669,-2.0669,-2.0669,-2.0604,-2.054,-2.0475,0.0,0.0,0.0,0.0,0.0,0.0,0.0,0.0,0.0,0.0,0.0,0.0,0.0,0.0,0.0,0.0,0.0,0.0,0.0,0.0,0.0,0.0,0.0,0.0,0.0,0.0,0.0,0.0,0.0,0.0,0.0,0.0,0.0,0.0,0.0,0.0,0.0,0.0,0.0,0.0,0.0,0.0,0.0,0.0,0.0,0.0,0.0,0.0,0.0,0.0,0.0,0.0,0.0,0.0,0.0,0.0,0.0,0.0,0.0,0.0,0.0,0.0,0.0,0.0,0.0,0.0,0.0,0.0,0.0,0.0,0.0,0.0,0.0,0.0,0.0,0.0,0.0,0.0,0.0,0.0,0.0,0.0,0.0,0.0,0.0,0.0,0.0,0.0,0.0,0.0,0.0,0.0,0.0,0.0,0.0,0.0,0.0,0.0,0.0,0.0,0.0,0.0,0.0,0.0,0.0,0.0,0.0,0.0,0.0,-2.147,-2.0989,-2.0888,-2.1079,-2.0834,-2.0694,-2.0665,0.0,0.0,0.0,0.0,0.0,0.0,0.0,0.0,0.0,0.0,0.0,0.0,0.0,0.0,0.0,0.0,0.0,0.0,0.0,0.0,0.0,0.0,0.0,0.0,0.0,0.0,0.0,0.0,0.0,0.0,0.0,0.0,0.0,0.0,0.0,0.0,0.0,0.0,0.0,0.0,0.0,0.0,0.0,0.0,0.0,0.0,0.0,0.0,0.0,0.0,0.0,0.0,0.0,0.0,0.0,0.0,0.0,0.0,0.0,0.0,0.0,0.0,0.0,0.0,0.0,0.0,0.0,0.0,0.0,0.0,0.0,0.0,0.0,0.0,0.0,0.0,0.0,0.0,0.0,0.0,0.0,0.0,0.0,0.0,0.0,0.0,0.0,0.0,0.0,0.0,0.0,0.0,0.0,0.0,0.0,0.0,0.0,0.0,0.0,0.0,0.0,0.0,0.0,0.0,0.0,0.0,0.0,0.0,-2.2673,-2.1613,-2.1232,-2.1697,-2.1147,-2.096,0.0,0.0,0.0,0.0,0.0,0.0,0.0,0.0,0.0,0.0,0.0,0.0,0.0,0.0,0.0,0.0,0.0,0.0,0.0,0.0,0.0,0.0,0.0,0.0,0.0,0.0,0.0,0.0,0.0,0.0,0.0,0.0,0.0,0.0,0.0,0.0,0.0,0.0,0.0,0.0,0.0,0.0,0.0,0.0,0.0,0.0,0.0,0.0,0.0,0.0,0.0,0.0,0.0,0.0,0.0,0.0,0.0,0.0,0.0,0.0,0.0,0.0,0.0,0.0,0.0,0.0,0.0,0.0,0.0,0.0,0.0,0.0,0.0,0.0,0.0,0.0,0.0,0.0,0.0,0.0,0.0,0.0,0.0,0.0,0.0,0.0,0.0,0.0,0.0,0.0,0.0,0.0,0.0,0.0,0.0,0.0,0.0,0.0,0.0,0.0,0.0,0.0,0.0,0.0,0.0,0.0,0.0,0.0,0.0,-2.2662,-2.2409,-2.2273,-2.2411,-2.2285,-2.2083,0.0,0.0,0.0,0.0,0.0,0.0,0.0,0.0,0.0,0.0,0.0,0.0,0.0,0.0,0.0,0.0,0.0,0.0,0.0,0.0,0.0,0.0,0.0,0.0,0.0,0.0,0.0,0.0,0.0,0.0,0.0,0.0,0.0,0.0,0.0,0.0,0.0,0.0,0.0,0.0,0.0,0.0,0.0,0.0,0.0,0.0,0.0,0.0,0.0,0.0,0.0,0.0,0.0,0.0,0.0,0.0,0.0,0.0,0.0,0.0,0.0,0.0,0.0,0.0,0.0,0.0,0.0,0.0,0.0,0.0,0.0,0.0,0.0,0.0,0.0,0.0,0.0,0.0,0.0,0.0,0.0,0.0,0.0,0.0,0.0,0.0,0.0,0.0,0.0,0.0,0.0,0.0,0.0,0.0,0.0,0.0,0.0,0.0,0.0,0.0,0.0,0.0,0.0,0.0,0.0,0.0,0.0,0.0,-2.3316,-2.3328,-2.3316,-2.3316,-2.3316,-2.2891,-2.2628,0.0,0.0,0.0,0.0,0.0,0.0,0.0,0.0,0.0,0.0,0.0,0.0,0.0,0.0,0.0,0.0,0.0,0.0,0.0,0.0,0.0,0.0,0.0,0.0,0.0,0.0,0.0,0.0,0.0,0.0,0.0,0.0,0.0,0.0,0.0,0.0,0.0,0.0,0.0,0.0,0.0,0.0,0.0,0.0,0.0,0.0,0.0,0.0,0.0,0.0,0.0,0.0,0.0,0.0,0.0,0.0,0.0,0.0,0.0,0.0,0.0,0.0,0.0,0.0,0.0,0.0,0.0,0.0,0.0,0.0,0.0,0.0,0.0,0.0,0.0,0.0,0.0,0.0,0.0,0.0,0.0,0.0,0.0,0.0,0.0,0.0,0.0,0.0,0.0,0.0,0.0,0.0,0.0,0.0,0.0,0.0,0.0,0.0,0.0,0.0,0.0,0.0,0.0,0.0,0.0,0.0,0.0,0.0,-2.4189,-2.4189,-2.4189,-2.4189,-2.4166,-2.3316,-2.2902,0.0,0.0,0.0,0.0,0.0,0.0,0.0,0.0,0.0,0.0,0.0,0.0,0.0,0.0,0.0,0.0,0.0,0.0,0.0,0.0,0.0,0.0,0.0,0.0,0.0,0.0,0.0,0.0,0.0,0.0,0.0,0.0,0.0,0.0,0.0,0.0,0.0,0.0,0.0,0.0,0.0,0.0,0.0,0.0,0.0,0.0,0.0,0.0,0.0,0.0,0.0,0.0,0.0,0.0,0.0,0.0,0.0,0.0,0.0,0.0,0.0,0.0,0.0,0.0,0.0,0.0,0.0,0.0,0.0,0.0,0.0,0.0,0.0,0.0,0.0,0.0,0.0,0.0,0.0,0.0,0.0,0.0,0.0,0.0,0.0,0.0,0.0,0.0,0.0,0.0,0.0,0.0,0.0,0.0,0.0,0.0,0.0,0.0,0.0,0.0,0.0,0.0,0.0,0.0,0.0,0.0,0.0,0.0,-2.4189,-2.4189,-2.4189,-2.4189,-2.4189,-2.3994,-2.3709,0.0,0.0,0.0,0.0,0.0,0.0,0.0,0.0,0.0,0.0,0.0,0.0,0.0,0.0,0.0,0.0,0.0,0.0,0.0,0.0,0.0,0.0,0.0,0.0,0.0,0.0,0.0,0.0,0.0,0.0,0.0,0.0,0.0,0.0,0.0,0.0,0.0,0.0,0.0,0.0,0.0,0.0,0.0,0.0,0.0,0.0,0.0,0.0,-1.731,0.0,0.0,0.0,0.0,0.0,0.0,0.0,0.0,0.0,0.0,0.0,0.0,0.0,0.0,0.0,0.0,0.0,0.0,0.0,0.0,0.0,0.0,0.0,0.0,0.0,0.0,0.0,0.0,0.0,0.0,0.0,0.0,0.0,0.0,0.0,0.0,0.0,0.0,0.0,0.0,0.0,0.0,0.0,0.0,0.0,0.0,0.0,0.0,0.0,0.0,0.0,0.0,0.0,0.0,0.0,0.0,0.0,0.0,0.0,-2.4189,-2.4189,-2.4189,-2.4189,-2.4189,-2.4189,-2.397,0.0,0.0,0.0,0.0,0.0,0.0,0.0,0.0,0.0,0.0,0.0,0.0,0.0,0.0,0.0,0.0,0.0,0.0,0.0,0.0,0.0,0.0,0.0,0.0,0.0,0.0,0.0,0.0,0.0,0.0,0.0,0.0,0.0,0.0,0.0,0.0,0.0,0.0,0.0,0.0,0.0,0.0,0.0,0.0,0.0,0.0,0.0,0.0,0.0,0.0,0.0,0.0,0.0,0.0,0.0,0.0,0.0,0.0,0.0,0.0,0.0,0.0,0.0,0.0,0.0,0.0,0.0,0.0,0.0,0.0,0.0,0.0,0.0,0.0,0.0,0.0,0.0,0.0,0.0,0.0,0.0,0.0,0.0,0.0,0.0,0.0,0.0,0.0,0.0,0.0,0.0,0.0,0.0,0.0,0.0,0.0,0.0,0.0,0.0,0.0,0.0,0.0,0.0,0.0,0.0,0.0,0.0,-2.42,-2.4189,-2.4189,-2.4189,-2.4189,-2.4189,-2.4189,-2.3982,-2.3604,0.0,0.0,0.0,0.0,0.0,0.0,0.0,0.0,0.0,0.0,0.0,0.0,0.0,0.0,0.0,0.0,0.0,0.0,0.0,0.0,0.0,0.0,0.0,0.0,0.0,0.0,0.0,0.0,0.0,0.0,0.0,0.0,0.0,0.0,0.0,0.0,0.0,0.0,-1.8086,-1.7691,0.0,0.0,0.0,0.0,0.0,0.0,0.0,0.0,-1.7627,0.0,0.0,0.0,0.0,0.0,0.0,0.0,0.0,0.0,0.0,0.0,0.0,0.0,0.0,0.0,0.0,0.0,0.0,0.0,0.0,0.0,0.0,0.0,0.0,0.0,0.0,0.0,0.0,0.0,0.0,0.0,0.0,0.0,0.0,0.0,0.0,0.0,0.0,0.0,0.0,0.0,0.0,0.0,0.0,0.0,0.0,0.0,0.0,0.0,0.0,0.0,0.0,0.0,0.0,0.0,0.0,-2.397,-2.4127,-2.4189,-2.4189,-2.4189,-2.4189,-2.4189,-2.4043,-2.3813,-2.3593,0.0,0.0,0.0,0.0,0.0,0.0,0.0,0.0,0.0,0.0,0.0,0.0,0.0,0.0,0.0,0.0,0.0,0.0,0.0,0.0,0.0,0.0,0.0,0.0,0.0,0.0,0.0,0.0,0.0,0.0,0.0,0.0,0.0,0.0,0.0,0.0,0.0,0.0,0.0,-1.9423,-1.9027,0.0,0.0,0.0,0.0,0.0,0.0,0.0,0.0,-1.7951,0.0,0.0,0.0,0.0,0.0,0.0,0.0,0.0,0.0,0.0,0.0,0.0,0.0,0.0,0.0,0.0,0.0,0.0,0.0,0.0,0.0,0.0,0.0,0.0,0.0,0.0,0.0,0.0,0.0,0.0,0.0,0.0,0.0,0.0,0.0,0.0,0.0,0.0,0.0,0.0,0.0,0.0,0.0,0.0,0.0,0.0,0.0,0.0,0.0,0.0,0.0,0.0,0.0,0.0,0.0,-2.3897,-2.397,-2.4116,-2.4189,-2.4189,-2.4127,-2.4043,-2.397,-2.3751,0.0,0.0,0.0,0.0,0.0,0.0,0.0,0.0,0.0,0.0,0.0,0.0,0.0,0.0,0.0,0.0,0.0,0.0,0.0,0.0,0.0,0.0,0.0,0.0,0.0,0.0,0.0,0.0,0.0,0.0,0.0,0.0,0.0,0.0,0.0,0.0,0.0,0.0,0.0,0.0,-1.9668,-1.9353,-2.0207,0.0,0.0,0.0,0.0,0.0,0.0,-1.7951,-1.8031,0.0,0.0,0.0,0.0,0.0,0.0,0.0,0.0,0.0,0.0,0.0,0.0,0.0,0.0,0.0,0.0,0.0,0.0,0.0,0.0,0.0,0.0,0.0,0.0,0.0,0.0,0.0,0.0,0.0,0.0,0.0,0.0,0.0,0.0,0.0,0.0,0.0,0.0,0.0,0.0,0.0,0.0,0.0,0.0,0.0,0.0,0.0,0.0,0.0,0.0,0.0,0.0,0.0,0.0,0.0,-2.3751,-2.3824,-2.3897,-2.4043,-2.4055,-2.397,-2.3824,-2.3824,-2.3604,0.0,0.0,0.0,0.0,0.0,0.0,0.0,0.0,0.0,0.0,0.0,0.0,0.0,0.0,0.0,0.0,0.0,0.0,0.0,0.0,0.0,0.0,0.0,0.0,0.0,0.0,0.0,0.0,0.0,0.0,0.0,0.0,0.0,0.0,0.0,0.0,0.0,0.0,0.0,0.0,0.0,-1.9668,-2.1135,-1.9571,0.0,0.0,0.0,0.0,-1.7781,-1.787,0.0,0.0,0.0,0.0,0.0,0.0,0.0,0.0,0.0,0.0,0.0,0.0,0.0,0.0,0.0,0.0,0.0,0.0,0.0,0.0,0.0,0.0,0.0,0.0,0.0,0.0,0.0,0.0,0.0,0.0,0.0,0.0,0.0,0.0,0.0,0.0,0.0,0.0,0.0,0.0,0.0,0.0,0.0,0.0,0.0,0.0,0.0,0.0,0.0,0.0,0.0,0.0,0.0,0.0,0.0,0.0,-2.3372,-2.3508,-2.3666,-2.3666,-2.3666,-2.3677,-2.3604,-2.3446,-2.3372,0.0,0.0,0.0,0.0,0.0,0.0,0.0,0.0,0.0,0.0,0.0,0.0,0.0,0.0,0.0,0.0,0.0,0.0,0.0,0.0,0.0,0.0,0.0,0.0,0.0,0.0,0.0,0.0,0.0,0.0,0.0,0.0,0.0,0.0,0.0,0.0,0.0,0.0,0.0,0.0,0.0,-2.0991,-2.209,-2.1221,-2.0372,0.0,0.0,-1.9274,-1.8103,-1.7959,0.0,0.0,0.0,0.0,0.0,0.0,0.0,0.0,0.0,0.0,0.0,0.0,0.0,0.0,0.0,0.0,0.0,0.0,0.0,0.0,0.0,0.0,0.0,0.0,0.0,0.0,0.0,0.0,0.0,0.0,0.0,0.0,0.0,0.0,0.0,0.0,0.0,0.0,0.0,0.0,0.0,0.0,0.0,0.0,0.0,0.0,0.0,0.0,0.0,0.0,0.0,0.0,0.0,0.0,0.0,-2.315,-2.3298,-2.3372,-2.3446,-2.3593,-2.3593,-2.3519,-2.3446,-2.3372,-2.3224,0.0,0.0,0.0,0.0,0.0,0.0,0.0,0.0,0.0,0.0,0.0,0.0,0.0,0.0,0.0,0.0,0.0,0.0,0.0,0.0,0.0,0.0,0.0,0.0,0.0,0.0,0.0,0.0,0.0,0.0,0.0,0.0,0.0,0.0,0.0,0.0,0.0,0.0,0.0,0.0,0.0,0.0,-2.2166,-2.1011,0.0,0.0,0.0,-1.9904,-1.8895,0.0,0.0,0.0,0.0,0.0,0.0,0.0,0.0,0.0,0.0,0.0,0.0,0.0,0.0,0.0,0.0,0.0,0.0,0.0,0.0,0.0,0.0,0.0,0.0,0.0,0.0,0.0,0.0,0.0,0.0,0.0,0.0,0.0,0.0,0.0,0.0,0.0,0.0,0.0,0.0,0.0,0.0,0.0,0.0,0.0,0.0,0.0,0.0,0.0,0.0,0.0,0.0,0.0,0.0,0.0,0.0,0.0,-2.3235,-2.3224,-2.3298,-2.3446,-2.3446,-2.3372,-2.3224,-2.3224,0.0,0.0,0.0,0.0,0.0,0.0,0.0,0.0,0.0,0.0,0.0,0.0,0.0,0.0,0.0,0.0,0.0,0.0,0.0,0.0,0.0,0.0,0.0,0.0,0.0,0.0,0.0,-1.673,0.0,0.0,0.0,0.0,0.0,0.0,0.0,0.0,0.0,0.0,0.0,0.0,0.0,0.0,-2.0847,-2.1711,-2.0702,-2.0148,0.0,0.0,-1.9844,-1.9063,-1.8984,-1.8745,0.0,0.0,0.0,0.0,0.0,0.0,0.0,0.0,0.0,0.0,0.0,0.0,0.0,0.0,0.0,0.0,0.0,0.0,0.0,0.0,0.0,0.0,0.0,0.0,0.0,0.0,0.0,0.0,0.0,0.0,0.0,0.0,0.0,0.0,0.0,0.0,0.0,0.0,0.0,0.0,0.0,0.0,0.0,0.0,0.0,0.0,0.0,0.0,0.0,0.0,0.0,0.0,0.0,0.0,0.0,-2.3001,-2.3001,-2.3075,-2.3075,-2.3075,-2.3001,-2.3001,-2.3001,-2.2927,0.0,0.0,0.0,0.0,0.0,0.0,0.0,0.0,0.0,0.0,0.0,0.0,0.0,0.0,0.0,0.0,0.0,0.0,0.0,0.0,0.0,0.0,0.0,0.0,0.0,0.0,0.0,0.0,0.0,0.0,0.0,0.0,0.0,0.0,0.0,0.0,0.0,0.0,0.0,0.0,0.0,-2.1776,-2.0557,-2.0924,-2.0924,0.0,0.0,-1.8843,-1.8201,-1.8112,-1.8031,-1.8031,0.0,0.0,0.0,0.0,0.0,0.0,0.0,0.0,0.0,0.0,0.0,0.0,0.0,0.0,0.0,0.0,0.0,0.0,0.0,0.0,0.0,0.0,0.0,0.0,0.0,0.0,0.0,0.0,0.0,0.0,0.0,0.0,0.0,0.0,0.0,0.0,0.0,0.0,0.0,0.0,0.0,0.0,0.0,0.0,0.0,0.0,0.0,0.0,0.0,0.0,0.0,0.0,0.0,-2.3001,-2.3001,-2.3001,-2.3001,-2.3001,-2.3001,-2.3001,-2.3001,-2.3001,-2.2927,0.0,0.0,0.0,0.0,0.0,0.0,0.0,0.0,0.0,0.0,0.0,0.0,0.0,0.0,0.0,0.0,0.0,0.0,0.0,0.0,0.0,0.0,0.0,0.0,0.0,0.0,0.0,0.0,-1.673,-1.6818,-1.704,0.0,0.0,0.0,0.0,0.0,0.0,0.0,0.0,0.0,0.0,-1.9904,-1.9982,-1.9982,0.0,0.0,-2.0001,-1.9608,-1.8736,-1.8932,-1.8848,-1.8053,-1.8163,0.0,0.0,0.0,0.0,0.0,0.0,0.0,0.0,0.0,0.0,0.0,0.0,0.0,0.0,0.0,0.0,0.0,0.0,0.0,0.0,0.0,0.0,0.0,0.0,0.0,0.0,0.0,0.0,0.0,0.0,0.0,0.0,0.0,0.0,0.0,0.0,0.0,0.0,0.0,0.0,0.0,0.0,0.0,0.0,0.0,0.0,0.0,0.0,0.0,0.0,0.0,0.0,-2.3001,-2.3001,-2.3001,-2.3001,-2.3001,-2.3001,-2.3001,-2.3001,-2.2927,-2.2692,0.0,0.0,0.0,0.0,0.0,0.0,0.0,0.0,0.0,0.0,0.0,0.0,0.0,0.0,0.0,0.0,0.0,0.0,0.0,0.0,0.0,0.0,0.0,0.0,0.0,0.0,0.0,0.0,-1.6984,-1.7135,-1.7397,0.0,0.0,0.0,0.0,0.0,0.0,0.0,0.0,0.0,0.0,-1.8851,-1.9279,-1.9118,-1.9161,-1.9757,-1.9752,-1.952,-1.8816,-1.9048,-1.8976,-1.8096,0.0,0.0,0.0,0.0,0.0,0.0,0.0,0.0,0.0,0.0,0.0,0.0,0.0,0.0,0.0,0.0,0.0,0.0,0.0,0.0,0.0,0.0,0.0,0.0,0.0,0.0,0.0,0.0,0.0,0.0,-2.2703,0.0,0.0,0.0,0.0,0.0,0.0,0.0,0.0,0.0,0.0,0.0,0.0,0.0,0.0,0.0,0.0,0.0,0.0,0.0,0.0,0.0,0.0,-2.3001,-2.3001,-2.3001,-2.3001,-2.3001,-2.3001,-2.3001,-2.3001,-2.2777,-2.2231,-2.1145,0.0,0.0,0.0,0.0,0.0,0.0,0.0,0.0,0.0,0.0,0.0,0.0,0.0,0.0,0.0,0.0,0.0,0.0,0.0,0.0,0.0,0.0,0.0,0.0,0.0,0.0,-1.7231,-1.7548,-1.7723,0.0,0.0,0.0,0.0,0.0,0.0,0.0,0.0,0.0,0.0,-1.9045,-1.9119,-1.8113,-1.858,-1.8789,-1.8328,-1.8181,-1.8031,-1.8031,-1.8184,-1.8255,0.0,0.0,0.0,0.0,0.0,0.0,0.0,0.0,0.0,0.0,0.0,0.0,0.0,0.0,0.0,0.0,0.0,0.0,0.0,0.0,0.0,0.0,0.0,0.0,0.0,0.0,0.0,-2.3001,-2.3001,0.0,0.0,0.0,0.0,0.0,0.0,0.0,0.0,0.0,0.0,0.0,-2.2176,-2.2101,0.0,0.0,0.0,0.0,0.0,0.0,0.0,0.0,0.0,0.0,0.0,0.0,-2.2777,-2.2777,-2.2927,-2.2927,-2.2777,-2.2777,-2.2777,-2.2628,-2.1993,-2.1145,-2.0138,0.0,0.0,0.0,0.0,0.0,0.0,0.0,0.0,0.0,0.0,0.0,0.0,0.0,0.0,0.0,0.0,0.0,0.0,0.0,0.0,0.0,0.0,0.0,0.0,0.0,-1.7298,0.0,0.0,0.0,0.0,0.0,0.0,0.0,0.0,0.0,0.0,0.0,-1.7621,-1.7639,-1.7913,-1.7954,-1.7744,-1.7904,-1.7945,0.0,0.0,0.0,0.0,0.0,0.0,0.0,0.0,0.0,0.0,0.0,0.0,0.0,0.0,-1.8327,-1.7858,-1.7683,-1.7612,-1.7604,0.0,0.0,0.0,0.0,0.0,0.0,0.0,0.0,0.0,0.0,0.0,0.0,0.0,0.0,-2.3001,0.0,-2.2927,0.0,0.0,0.0,0.0,0.0,0.0,0.0,0.0,-2.2035,-2.2035,-2.1959,-2.2035,-2.1949,0.0,-2.1959,-2.2035,0.0,0.0,0.0,0.0,0.0,0.0,0.0,0.0,-2.2628,-2.2628,-2.2392,-2.2295,-2.2155,-2.1852,-2.169,-2.1538,-2.0585,-1.9806,-1.9045,-1.863,-1.8399,0.0,0.0,0.0,0.0,0.0,0.0,0.0,0.0,0.0,0.0,0.0,0.0,0.0,0.0,0.0,0.0,0.0,0.0,0.0,0.0,0.0,0.0,0.0,-1.7337,0.0,0.0,0.0,0.0,0.0,0.0,0.0,0.0,0.0,-1.6953,-1.6929,-1.7056,-1.7405,-1.735,-1.7403,-1.7677,0.0,0.0,0.0,0.0,0.0,0.0,0.0,-1.776,-1.7431,-1.7814,-1.8033,-1.8081,-1.8221,-1.8379,-1.8379,0.0,0.0,-1.8087,-1.7953,-1.7866,-1.7777,-1.7595,-1.7422,-1.7255,-1.7336,-1.7337,0.0,0.0,0.0,0.0,0.0,0.0,0.0,0.0,-2.3001,-2.3001,0.0,-2.2777,0.0,0.0,0.0,0.0,0.0,-2.2035,0.0,0.0,-2.2025,-2.1959,-2.1807,-2.1807,-2.1807,-2.1807,-2.1807,-2.1807,-2.1807,-2.2035,0.0,0.0,0.0,0.0,0.0,0.0,-2.2402,-2.2317,-2.1538,-2.1058,-2.1058,-2.0285,-1.9904,-1.9825,-1.8859,-1.8221,-1.7925,-1.7212,-1.673,-1.673,-1.673,0.0,0.0,0.0,0.0,0.0,0.0,0.0,0.0,0.0,0.0,0.0,0.0,0.0,0.0,0.0,0.0,0.0,0.0,0.0,0.0,-1.6753,0.0,0.0,0.0,0.0,0.0,0.0,0.0,0.0,0.0,0.0,-1.7326,-1.7302,-1.7413,-1.7747,0.0,0.0,0.0,0.0,-1.7228,-1.756,-1.749,-1.7433,-1.7441,-1.7564,-1.7616,-1.7616,0.0,0.0,-1.7795,-1.7628,-1.7588,-1.7564,-1.7396,-1.7374,-1.8202,-1.8107,-1.7815,-1.7619,-1.7285,-1.7014,-1.6984,-1.6866,-1.6659,-2.315,0.0,0.0,0.0,0.0,-2.3001,-2.3001,-2.3001,-2.3001,-2.3001,-2.3001,-2.2777,0.0,0.0,0.0,0.0,0.0,0.0,-2.1873,-2.1807,-2.1883,-2.1873,-2.1807,-2.1807,-2.1807,-2.1807,-2.1807,-2.1807,-2.1807,-2.1873,-2.1949,-2.1949,0.0,0.0,0.0,0.0,-2.1863,-2.1308,-2.1145,-2.075,-2.006,-1.9825,-1.9353,-1.8559,-1.823,-1.7755,-1.7131,-1.6812,-1.673,-1.673,-1.673,0.0,0.0,0.0,0.0,0.0,0.0,0.0,0.0,0.0,0.0,0.0,0.0,0.0,0.0,0.0,0.0,0.0,0.0,0.0,-1.6718,-1.6736,-1.6768,0.0,0.0,0.0,0.0,0.0,0.0,0.0,0.0,0.0,-1.7969,-1.7787,-1.7755,0.0,0.0,-1.8041,-1.8128,-1.8057,-1.7882,-1.773,-1.7712,0.0,-1.7733,-1.7728,-1.7706,-1.7706,-1.8002,-1.8144,-1.8152,-1.7982,-1.7908,-1.7811,-1.7416,-1.714,-1.7234,-1.73,-1.7313,-1.7297,-1.7133,-1.6991,-1.6903,-1.6915,-1.6934,-2.3075,-2.315,-2.3065,-2.3001,-2.3001,-2.3001,-2.3001,-2.3001,-2.3001,-2.2927,-2.2852,-2.2703,-2.2478,-2.2252,-2.2111,0.0,0.0,0.0,-2.1807,-2.1807,-2.1807,-2.1645,-2.1328,-2.1252,-2.1088,-2.0847,-2.0847,-2.0857,-2.0847,-2.0847,-2.0847,-2.0847,0.0,0.0,-2.1797,-2.1949,-2.1558,-2.0692,-2.0518,-1.9963,-1.8957,-1.8638,-1.8167,-1.7521,-1.744,-1.7212,-1.673,-1.673,-1.673,-1.673,-1.673,-1.6648,0.0,0.0,0.0,0.0,0.0,0.0,0.0,0.0,0.0,0.0,0.0,-1.6473,-1.6672,0.0,0.0,0.0,-1.6507,-1.6433,-1.6297,-1.6372,0.0,0.0,0.0,0.0,0.0,0.0,0.0,-1.7697,-1.7544,-1.7675,-1.8182,-1.8049,-1.8092,-1.8478,-1.839,-1.8303,-1.8303,0.0,-1.8017,-1.7811,-1.7763,-1.7763,-1.7763,-1.7763,-1.7771,-1.7684,-1.777,-1.7911,-1.7822,-1.766,-1.7489,-1.7458,-1.7128,-1.6808,-1.6639,-1.6727,-1.68,-1.6808,-1.6808,-1.6808,-1.6647,-1.663,-1.6541,-2.3001,-2.3001,-2.3001,-2.3001,-2.3001,-2.3001,-2.3001,-2.3001,-2.3001,-2.2841,-2.2628,-2.2488,-2.2262,-2.2025,-2.1797,0.0,-2.1807,-2.1731,-2.1721,-2.1807,-2.1807,-2.1405,-2.0615,-2.0547,-2.0138,-1.9413,-1.9344,-1.9256,-1.9335,-1.9335,-1.9256,-1.9335,-2.0847,-2.1568,-2.1578,-2.1568,-2.1165,-2.0304,-1.958,-1.878,-1.7925,-1.7131,-1.673,-1.673,-1.673,-1.6738,-1.673,-1.6648,-1.6648,-1.673,-1.6648,-1.6574,-1.6394,0.0,0.0,0.0,0.0,0.0,0.0,0.0,0.0,0.0,0.0,0.0,0.0,0.0,0.0,0.0,-1.6067,0.0,-1.5489,-1.5922,0.0,0.0,0.0,-1.7037,-1.7045,-1.7067,-1.7196,-1.7583,0.0,0.0,-1.8048,-1.8087,-1.8272,-1.8643,-1.8458,-1.8253,-1.8343,-1.8089,-1.7858,-1.7906,-1.7874,-1.7858,-1.793,-1.7826,-1.7746,-1.7578,-1.742,-1.7482,-1.7224,-1.6994,-1.6787,-1.681,-1.6566,-1.6367,-1.6367,-1.6455,-1.6367,-1.6455,-1.6367,-1.6367,-1.6448,-1.6148,-1.595,-2.3001,-2.3001,-2.3001,-2.3001,-2.3001,-2.3001,-2.2927,-2.2767,-2.2767,-2.2628,-2.2478,-2.2252,-2.2035,-2.1797,-2.1088,-2.1175,-2.1731,-2.1088,-2.1175,-2.1807,-2.1807,-2.1721,-2.1492,-2.0769,-2.0382,-2.0226,-1.9571,-1.9256,-1.9256,-1.9256,-1.9256,-1.9344,-1.9737,-1.9894,-1.9894,-1.9894,-1.9423,-1.8638,-1.839,-1.7917,-1.7049,-1.6812,-1.673,-1.673,-1.673,-1.673,-1.6648,-1.6566,-1.6566,-1.6648,-1.6409,-1.6327,-1.6394,-1.6245,0.0,0.0,0.0,0.0,0.0,0.0,0.0,0.0,0.0,-1.6029,-1.6253,0.0,-1.5999,0.0,-1.5889,-1.5884,-1.5811,-1.6248,0.0,0.0,-1.6988,-1.7371,-1.7199,-1.7424,-1.7604,-1.7949,-1.7787,-1.7817,-1.8079,-1.8087,-1.8179,-1.8265,-1.8203,-1.8249,-1.8441,-1.8386,-1.8407,-1.8474,-1.8375,-1.8323,-1.8292,-1.8125,-1.801,-1.7934,-1.7934,-1.7934,-1.7842,-1.7455,-1.7101,-1.7086,-1.6706,-1.6389,-1.6382,-1.6367,-1.6374,-1.6367,-1.6367,-1.6367,-1.636,-1.6133,-1.5921,-2.3001,-2.3001,-2.3001,-2.3001,-2.3001,-2.3001,-2.2927,-2.2852,-2.2703,-2.2553,-2.2413,-2.2101,-2.1883,-2.1797,-2.1328,-2.1328,-2.1731,-2.1339,-2.1328,-2.1807,-2.1807,-2.1405,-2.0692,-2.0216,-1.959,-1.8798,-1.8318,-1.8158,-1.8158,-1.8149,-1.8149,-1.8158,-1.8158,-1.8158,-1.8158,-1.8939,-1.8868,-1.7997,-1.761,-1.7204,-1.673,-1.673,-1.673,-1.673,-1.673,-1.6648,-1.6558,-1.6476,-1.6402,-1.6409,-1.6252,-1.6079,-1.6064,-1.5989,-1.5824,0.0,0.0,0.0,0.0,0.0,0.0,0.0,0.0,0.0,0.0,0.0,-1.5687,-1.5804,-1.6014,-1.6118,-1.6118,-1.6492,-1.6766,-1.6676,-1.7145,-1.743,-1.7246,-1.7416,-1.7613,-1.7707,-1.7621,-1.7621,-1.7707,-1.7707,-1.7707,-1.7707,-1.7707,-1.79,-1.8187,-1.8288,-1.8373,-1.8458,-1.8373,-1.8288,-1.828,-1.8179,-1.8087,-1.79,-1.79,-1.79,-1.78,-1.7472,-1.7254,-1.7239,-1.7007,-1.6791,-1.6791,-1.6791,-1.6791,-1.6799,-1.6799,-1.6689,-1.6426,-1.6235,-1.6118,-2.3001,-2.3001,-2.3001,-2.3001,-2.3001,-2.3001,-2.2927,-2.2927,-2.2703,-2.2553,-2.2327,-2.1959,-2.1807,-2.1807,-2.1731,-2.1721,-2.1807,-2.1568,-2.1568,-2.1645,-2.1558,-2.0692,-1.9335,-1.9177,-1.831,-1.6886,-1.673,-1.673,-1.673,-1.673,-1.673,-1.673,-1.673,-1.673,-1.673,-1.8238,-1.863,-1.7836,-1.7049,-1.673,-1.673,-1.673,-1.673,-1.673,-1.6648,-1.6566,-1.6394,-1.6312,-1.6237,-1.6087,-1.6095,-1.5922,-1.5733,-1.565,-1.5658,0.0,-1.5658,0.0,0.0,0.0,0.0,0.0,0.0,0.0,0.0,-1.5467,-1.5621,-1.5943,-1.6257,-1.6433,-1.6433,-1.6726,-1.6916,-1.6923,-1.7157,-1.7333,-1.7326,-1.7333,-1.7333,-1.7333,-1.7333,-1.7333,-1.7333,-1.7333,-1.7333,-1.7333,-1.7333,-1.752,-1.7893,-1.7994,-1.8087,-1.8087,-1.8087,-1.8087,-1.7994,-1.7986,-1.79,-1.7721,-1.7628,-1.7527,-1.7419,-1.7326,-1.7326,-1.7318,-1.7296,-1.7304,-1.7333,-1.7311,-1.7311,-1.7282,-1.7274,-1.7113,-1.6674,-1.6477,-1.6433,-2.3001,-2.3001,-2.3001,-2.3001,-2.3001,-2.2852,-2.2703,-2.2478,-2.2338,-2.2101,-2.1873,-2.1807,-2.1807,-2.1731,-2.1021,-2.1088,-2.1731,-2.0372,-2.0138,-2.0702,-2.006,-1.958,-1.9265,-1.855,-1.8069,-1.7683,-1.7049,-1.673,-1.673,-1.673,-1.673,-1.673,-1.673,-1.673,-1.673,0.0,0.0,0.0,-1.6804,-1.673,-1.673,-1.673,-1.673,-1.673,-1.6566,0.0,-1.6394,-1.6064,-1.5906,-1.6087,-1.5756,0.0,0.0,0.0,0.0,0.0,0.0,0.0,0.0,0.0,0.0,0.0,-1.5431,-1.5431,-1.5438,-1.5665,-1.5957,-1.6257,-1.6579,-1.6762,-1.6762,-1.7047,-1.7245,-1.7245,-1.7296,-1.7333,-1.7333,-1.7333,-1.7333,-1.7333,-1.7333,-1.7333,-1.7333,-1.7333,-1.7333,-1.7333,-1.7333,-1.7326,-1.7426,-1.7621,-1.7815,-1.8087,-1.79,-1.7714,-1.752,-1.7512,-1.7512,-1.7333,-1.7333,-1.7326,-1.7311,-1.7318,-1.7326,-1.7326,-1.7333,-1.7333,-1.7333,-1.7333,-1.7333,-1.7333,-1.7333,-1.7289,-1.7165,-1.6938,-1.6762,-2.3001,0.0,-2.3001,-2.2938,0.0,-2.2628,-2.2478,-2.2262,-2.2101,-2.1949,-2.1807,-2.1807,-2.1807,-2.1731,-2.0857,-2.0779,-2.1088,-1.9894,-1.9502,-1.9904,-1.9502,-1.9107,-1.863,-1.823,-1.7772,-1.7367,-1.6894,-1.673,-1.673,-1.673,-1.673,-1.673,-1.673,-1.673,-1.673,-1.673,-1.673,-1.673,-1.673,-1.673,-1.673,-1.673,-1.6648,-1.6566,-1.6484,0.0,0.0,0.0,0.0,0.0,0.0,0.0,0.0,0.0,0.0,-1.5431,-1.5431,-1.5431,-1.5431,-1.5431,-1.5431,-1.5438,-1.5577,-1.5665,-1.5665,-1.6104,-1.644,-1.6601,-1.6901,-1.7084,-1.7099,-1.723,-1.7333,-1.7333,-1.7333,-1.7333,-1.7333,-1.7333,-1.7333,-1.7333,-1.7333,-1.7333,-1.7333,-1.7333,-1.7333,-1.7333,-1.7333,-1.7333,-1.7333,-1.7426,-1.7527,-1.7707,-1.7613,-1.7434,-1.7326,-1.7333,-1.726,-1.7143,-1.7091,-1.7091,-1.7091,-1.7099,-1.7135,-1.7282,-1.7333,-1.7333,-1.7333,-1.7333,-1.7333,-1.7333,-1.7333,-1.7333,-1.7326,-1.7201,-1.7091,-2.3263,-2.3263,-2.3263,-2.3113,-2.2961,-2.2723,-2.2495,-2.2265,0.0,0.0,0.0,-2.1645,-2.1578,-2.1482,-2.0692,-2.0294,-2.0216,-1.9432,-1.9097,-1.9018,-1.8948,-1.847,-1.7755,-1.7764,-1.7359,-1.673,-1.673,-1.673,-1.673,-1.673,-1.673,-1.673,-1.673,-1.673,-1.673,-1.673,-1.6648,-1.6656,-1.673,-1.673,-1.6648,-1.6656,-1.6566,-1.6312,-1.6312,-1.6064,-1.5733,-1.5658,-1.5575,-1.5431,-1.5431,-1.5431,-1.5431,-1.5431,-1.5431,-1.5431,-1.5431,-1.5431,-1.5431,-1.5431,-1.5431,-1.5431,-1.5782,-1.5994,-1.5994,-1.6528,-1.6879,-1.693,-1.7179,-1.7333,-1.7333,-1.7333,-1.7333,-1.7333,-1.7333,-1.7333,-1.7333,-1.7333,-1.7333,-1.7333,-1.7333,-1.7333,-1.7333,-1.7333,-1.7333,-1.7333,-1.7333,-1.7333,-1.7333,-1.7333,-1.7333,-1.7333,-1.7333,-1.7333,-1.7333,-1.7333,-1.7223,-1.7033,-1.6974,-1.6938,-1.6945,-1.6938,-1.704,-1.7282,-1.7326,-1.7333,-1.7333,-1.7333,-1.7333,-1.7333,-1.7333,-1.7333,-1.7333,-1.7333,-1.7217,-2.4268,-2.429,-2.4279,-2.4111,-2.3863,-2.3705,-2.3387,-2.3005,-2.2149,-2.1807,-2.1731,-2.1011,-2.0702,-2.0624,-1.9816,-1.9502,-1.9423,-1.855,-1.8158,-1.8158,-1.744,-1.6968,-1.6886,-1.6886,-1.6812,-1.6738,-1.6738,-1.673,-1.673,-1.6738,-1.673,-1.6738,-1.673,-1.673,-1.673,-1.673,-1.6648,-1.6476,-1.6566,-1.6648,-1.6476,-1.6476,-1.6319,-1.617,-1.5906,-1.5733,-1.565,-1.5499,-1.5423,-1.5431,-1.5431,-1.5431,-1.5431,-1.5431,-1.5431,-1.5431,-1.5431,-1.5431,-1.5431,-1.5431,-1.5431,-1.546,-1.5972,-1.6309,-1.6316,-1.6638,-1.6967,-1.7223,-1.7304,-1.7333,-1.7333,-1.7333,-1.7333,-1.7333,-1.7333,-1.7333,-1.7333,-1.7333,-1.7333,-1.7333,-1.7333,-1.7333,-1.7333,-1.7333,-1.7333,-1.7333,-1.7333,-1.7333,-1.7333,-1.7333,-1.7333,-1.7333,-1.7333,-1.7333,-1.7333,-1.7333,-1.7282,-1.7274,-1.7223,-1.7186,-1.7186,-1.7179,-1.7216,-1.7318,-1.7333,-1.7333,-1.7333,-1.7333,-1.7333,-1.7333,-1.7333,-1.7333,-1.7333,-1.7232,-1.6951,-2.4486,-2.4486,-2.4317,-2.3887,-2.3132,-2.2299,-2.1816,-2.1622,-2.1163,-2.1311,-2.171,-2.1301,-2.0899,-2.0333,-1.9515,-1.9194,-1.9112,-1.828,-1.7861,-1.7869,-1.7464,-1.7302,-1.7294,-1.7294,-1.7294,-1.7294,-1.7294,-1.7294,-1.7286,-1.7119,-1.7024,-1.7016,-1.6668,-1.6558,-1.6558,-1.6409,-1.6327,-1.6245,-1.6402,-1.6402,-1.6245,-1.6237,-1.6162,-1.5914,-1.5741,-1.5658,-1.5582,-1.5423,-1.5431,-1.5431,-1.5431,-1.5431,-1.5431,-1.5431,-1.5431,-1.5431,-1.5431,-1.5431,-1.5431,-1.5431,-1.5431,-1.5452,-1.6009,-1.6367,-1.6367,-1.6821,-1.7172,-1.7318,-1.7333,-1.7333,-1.7333,-1.7333,-1.7333,-1.7333,-1.7333,-1.7333,-1.7333,-1.7333,-1.7333,-1.7333,-1.7333,-1.7333,-1.7333,-1.7333,-1.7333,-1.7333,-1.7333,-1.7333,-1.7333,-1.7333,-1.7333,-1.7333,-1.7333,-1.7333,-1.7333,-1.7333,-1.726,-1.7106,-1.7069,-1.7069,-1.7069,-1.7077,-1.7157,-1.7296,-1.7333,-1.7333,-1.7333,-1.7333,-1.7333,-1.7333,-1.7333,-1.7333,-1.7232,-1.656,-1.5704,-2.4814,-2.4803,-2.4288,-2.3443,-2.2247,-2.1081,-2.058,-2.058,-2.058,-2.0911,-2.1306,-2.1229,-2.0727,-1.9978,-1.9144,-1.881,-1.8724,-1.8118,-1.7763,-1.7763,-1.7763,-1.7763,-1.7763,-1.7763,-1.7763,-1.7763,-1.7763,-1.7771,-1.7652,-1.7431,-1.7312,-1.7187,-1.669,-1.6436,-1.6436,-1.62,-1.6087,-1.5997,-1.6162,-1.6154,-1.6004,-1.5997,-1.5914,-1.5658,-1.565,-1.5582,-1.5431,-1.5431,-1.5431,-1.5431,-1.5431,-1.5431,-1.5431,-1.5431,-1.5431,-1.5431,-1.5431,-1.5431,-1.5431,-1.5431,-1.5431,-1.5445,-1.6009,-1.6367,-1.6411,-1.6952,-1.7333,-1.7333,-1.7333,-1.7333,-1.7333,-1.7333,-1.7333,-1.7333,-1.7333,-1.7333,-1.7333,-1.7333,-1.7333,-1.7333,-1.7333,-1.7333,-1.7333,-1.7333,-1.7333,-1.7333,-1.7333,-1.7333,-1.7333,-1.7333,-1.7333,-1.7333,-1.7333,-1.7333,-1.7333,-1.7333,-1.7238,-1.6989,-1.6989,-1.7026,-1.7011,-1.6989,-1.7047,-1.7282,-1.7333,-1.7333,-1.7333,-1.7333,-1.7239,-1.7239,-1.7044,-1.6749,-1.6372,-1.5121,-1.4268,-2.5753,-2.5597,-2.4587,-2.3315,-2.1979,-2.1646,-2.1459,-2.1459,-2.1575,-2.1132,-2.0401,-1.9618,-1.9341,-1.9067,-1.8316,-1.7985,-1.7977,-1.7858,-1.7787,-1.7795,-1.7771,-1.7771,-1.7803,-1.7787,-1.7771,-1.7795,-1.7803,-1.7755,-1.7492,-1.7414,-1.7296,-1.7003,-1.6713,-1.6545,-1.6522,-1.6247,-1.6004,-1.5733,-1.5741,-1.5733,-1.5733,-1.5741,-1.5665,-1.5423,-1.5431,-1.5431,-1.5431,-1.5431,-1.5431,-1.5431,-1.5431,-1.5431,-1.5431,-1.5431,-1.5431,-1.5431,-1.5431,-1.5431,-1.5431,-1.5431,-1.5431,-1.5467,-1.6001,-1.636,-1.6389,-1.6952,-1.7326,-1.7333,-1.7333,-1.7333,-1.7333,-1.7333,-1.7333,-1.7333,-1.7333,-1.7333,-1.7333,-1.7333,-1.7333,-1.7333,-1.7333,-1.7333,-1.7333,-1.7333,-1.7333,-1.7333,-1.7333,-1.7333,-1.7333,-1.7333,-1.7333,-1.7333,-1.7333,-1.7333,-1.7333,-1.7333,-1.7304,-1.7267,-1.7274,-1.7252,-1.723,-1.7245,-1.7304,-1.7196,-1.7239,-1.7239,-1.7239,-1.7333,-1.7145,-1.677,-1.6285,-1.5602,-1.4549,-1.359,-1.3108,-2.5895,-2.5728,-2.4488,-2.2824,-2.1051,-2.0257,-1.9994,-1.9994,-1.9994,-1.9729,-1.9422,-1.9052,-1.8938,-1.8938,-1.8571,-1.8398,-1.8398,-1.8398,-1.839,-1.8398,-1.8398,-1.839,-1.8398,-1.8398,-1.8316,-1.8226,-1.8226,-1.8037,-1.7817,-1.7648,-1.7366,-1.7007,-1.6768,-1.6715,-1.6598,-1.6212,-1.5963,-1.5786,-1.5602,-1.5499,-1.5499,-1.5499,-1.5499,-1.5431,-1.5431,-1.5431,-1.5431,-1.5431,-1.5431,-1.5431,-1.5431,-1.5431,-1.5431,-1.5431,-1.5431,-1.5431,-1.5431,-1.5431,-1.5431,-1.5431,-1.5431,-1.5431,-1.584,-1.617,-1.6367,-1.6784,-1.7121,-1.7296,-1.7333,-1.7333,-1.7333,-1.7333,-1.7333,-1.7333,-1.7333,-1.7333,-1.7333,-1.7333,-1.7333,-1.7333,-1.7333,-1.7333,-1.7333,-1.7333,-1.7333,-1.7333,-1.7333,-1.7333,-1.7333,-1.7333,-1.7333,-1.7326,-1.7246,-1.7153,-1.7239,-1.7333,-1.7333,-1.7333,-1.7333,-1.7333,-1.7232,-1.7153,-1.7153,-1.7153,-1.7059,-1.6958,-1.6864,-1.6864,-1.6676,-1.6008,-1.5032,-1.4064,-1.2909,-1.2431,-1.2047,-2.5895,-2.5633,-2.4135,-2.2287,-2.0339,-1.9271,-1.8827,-1.8827,-1.8827,-1.8827,-1.8827,-1.8827,-1.8827,-1.8827,-1.8827,-1.8827,-1.8827,-1.8827,-1.8827,-1.8827,-1.8827,-1.8827,-1.8827,-1.8827,-1.8743,-1.8574,-1.8473,-1.828,-1.7971,-1.7666,-1.7319,-1.7109,-1.6818,-1.6781,-1.6743,-1.6286,-1.6038,-1.6023,-1.5804,-1.5687,-1.5694,-1.5687,-1.565,-1.557,-1.5562,-1.5599,-1.5679,-1.5687,-1.5687,-1.5687,-1.5687,-1.5687,-1.5687,-1.5613,-1.5526,-1.5438,-1.5431,-1.5467,-1.5548,-1.5562,-1.5599,-1.5701,-1.5994,-1.6265,-1.6499,-1.6799,-1.7077,-1.7289,-1.7333,-1.7333,-1.7333,-1.7333,-1.7333,-1.7333,-1.7333,-1.7333,-1.7333,-1.7239,-1.7246,-1.7239,-1.7145,-1.7145,-1.7239,-1.7239,-1.7333,-1.7333,-1.7239,-1.7246,-1.7246,-1.7145,-1.7044,-1.7052,-1.6965,-1.6972,-1.7145,-1.7145,-1.7145,-1.7138,-1.7052,-1.7052,-1.7138,-1.6965,-1.6878,-1.6871,-1.6683,-1.6581,-1.6581,-1.6487,-1.5615,-1.4459,-1.3494,-1.2624,-1.156,-1.1468,-1.1082,-2.5895,-2.5538,-2.3414,-2.1826,-2.0503,-1.9363,-1.8827,-1.8827,-1.8827,-1.8827,-1.8827,-1.8827,-1.8827,-1.8827,-1.8827,-1.8827,-1.8827,-1.8827,-1.8827,-1.8827,-1.8827,-1.8827,-1.8827,-1.8827,-1.8651,-1.8481,-1.8396,-1.8202,-1.7721,-1.7412,-1.7304,-1.726,-1.7059,-1.6926,-1.6882,-1.6603,-1.6352,-1.6345,-1.6287,-1.6294,-1.6301,-1.6294,-1.6155,-1.595,-1.5891,-1.6016,-1.6257,-1.6309,-1.6309,-1.6316,-1.6287,-1.6294,-1.6287,-1.6038,-1.5767,-1.5511,-1.546,-1.5584,-1.5848,-1.5891,-1.5994,-1.6279,-1.6528,-1.6784,-1.6791,-1.7047,-1.7238,-1.7333,-1.7333,-1.7333,-1.7333,-1.7333,-1.7333,-1.7333,-1.7333,-1.7333,-1.7232,-1.716,-1.7066,-1.6979,-1.6871,-1.6777,-1.6972,-1.7145,-1.7239,-1.7239,-1.7153,-1.6979,-1.6972,-1.6777,-1.6676,-1.6676,-1.6683,-1.6683,-1.6878,-1.6871,-1.6676,-1.6676,-1.677,-1.6676,-1.6676,-1.6581,-1.6588,-1.6588,-1.6487,-1.6393,-1.6386,-1.552,-1.4172,-1.3017,-1.2155,-1.1287,-1.06,-1.0404,-1.0212,-2.538,-2.4498,-2.3607,-2.2199,-2.043,-1.9894,-1.9363,-1.8827,-1.8827,-1.8827,-1.8827,-1.8827,-1.8827,-1.8827,-1.8827,-1.8827,-1.8827,-1.8827,-1.8827,-1.8827,-1.8827,-1.8827,-1.8827,-1.8651,-1.8473,-1.828,-1.8102,-1.7815,-1.752,-1.7326,-1.7333,-1.7318,-1.7223,-1.7157,-1.7099,-1.6835,-1.6772,-1.666,-1.6491,-1.6367,-1.6382,-1.6367,-1.6404,-1.6506,-1.6316,-1.6257,-1.636,-1.6367,-1.6367,-1.6367,-1.6367,-1.6367,-1.636,-1.6265,-1.6162,-1.6045,-1.603,-1.6082,-1.6184,-1.6199,-1.6243,-1.6352,-1.6469,-1.6674,-1.6911,-1.6967,-1.7106,-1.7274,-1.7333,-1.7333,-1.7333,-1.7333,-1.7333,-1.7333,-1.7153,-1.716,-1.7066,-1.6878,-1.6784,-1.669,-1.6683,-1.6676,-1.6683,-1.6777,-1.6864,-1.6864,-1.6777,-1.6784,-1.6784,-1.6683,-1.6588,-1.6588,-1.6494,-1.6407,-1.6414,-1.6595,-1.6588,-1.6588,-1.6588,-1.6581,-1.6581,-1.64,-1.64,-1.6305,-1.6305,-1.5724,-1.5432,-1.3878,-1.2533,-1.1853,-1.0988,-1.0516,-0.9826,-0.9958,-0.9949,-2.5285,-2.4413,-2.3973,-2.2648,-2.0881,-2.043,-1.972,-1.8827,-1.8827,-1.8827,-1.8827,-1.8827,-1.8827,-1.8827,-1.8827,-1.8827,-1.8827,-1.8827,-1.8827,-1.8827,-1.8827,-1.8743,-1.8651,-1.8574,-1.8288,-1.7994,-1.7714,-1.7434,-1.7326,-1.7333,-1.7333,-1.7333,-1.7333,-1.7333,-1.7289,-1.7113,-1.7011,-1.696,-1.6784,-1.6682,-1.6682,-1.6674,-1.6777,-1.6938,-1.6784,-1.6674,-1.6682,-1.6674,-1.6674,-1.6682,-1.6682,-1.663,-1.6543,-1.6528,-1.6469,-1.6382,-1.636,-1.6418,-1.6513,-1.6528,-1.6572,-1.6674,-1.6689,-1.6791,-1.6989,-1.7011,-1.7121,-1.7274,-1.7333,-1.7333,-1.7239,-1.7239,-1.7246,-1.7153,-1.7066,-1.6972,-1.6878,-1.6588,-1.64,-1.64,-1.64,-1.6494,-1.6494,-1.6588,-1.6588,-1.6588,-1.6487,-1.6494,-1.6494,-1.64,-1.6305,-1.6305,-1.6218,-1.6123,-1.6123,-1.6211,-1.6305,-1.6305,-1.6305,-1.6393,-1.6393,-1.6211,-1.6116,-1.6021,-1.5635,-1.5057,-1.3896,-1.2344,-1.1473,-1.089,-1.0413,-0.9937,-0.9673,-0.9726,-0.9762,-2.5728,-2.538,-2.4327,-2.3096,-2.1765,-2.0791,-1.9812,-1.892,-1.8827,-1.8827,-1.8827,-1.8827,-1.8827,-1.8827,-1.8827,-1.8827,-1.8827,-1.8827,-1.8827,-1.8827,-1.8827,-1.8743,-1.8574,-1.8473,-1.8202,-1.7721,-1.7434,-1.7333,-1.7333,-1.7333,-1.7333,-1.7333,-1.7333,-1.7333,-1.7333,-1.7296,-1.7296,-1.7282,-1.7238,-1.726,-1.7326,-1.726,-1.7252,-1.7296,-1.7267,-1.7252,-1.7274,-1.7282,-1.7245,-1.7267,-1.7267,-1.7157,-1.6894,-1.6857,-1.6726,-1.6506,-1.6418,-1.6557,-1.6904,-1.6857,-1.6982,-1.7157,-1.7282,-1.7238,-1.7252,-1.7274,-1.7296,-1.7318,-1.7333,-1.7246,-1.7066,-1.7073,-1.6972,-1.6979,-1.6979,-1.6791,-1.6595,-1.6407,-1.6123,-1.5927,-1.6021,-1.6218,-1.6218,-1.64,-1.6487,-1.64,-1.6305,-1.6218,-1.6218,-1.6021,-1.5832,-1.5825,-1.5927,-1.5927,-1.5832,-1.5825,-1.5825,-1.5825,-1.592,-1.592,-1.6015,-1.5927,-1.5927,-1.5825,-1.5051,-1.4376,-1.3017,-1.157,-1.0833,-1.025,-0.9859,-0.9726,-0.9823,-0.9904,-0.9961,-2.5559,-2.5295,-2.4765,-2.3454,-2.1863,-2.1418,-2.0348,-1.8827,-1.8827,-1.8827,-1.8827,-1.8827,-1.8827,-1.8827,-1.8827,-1.8827,-1.8827,-1.8827,-1.8827,-1.8827,-1.8827,-1.8743,-1.8651,-1.8373,-1.7994,-1.752,-1.7333,-1.7333,-1.7333,-1.7333,-1.7333,-1.7333,-1.7333,-1.7333,-1.7333,-1.7333,-1.7333,-1.7333,-1.7333,-1.7333,-1.7333,-1.7333,-1.7333,-1.7333,-1.7333,-1.7333,-1.7333,-1.7333,-1.7333,-1.7333,-1.7333,-1.7282,-1.7201,-1.7179,-1.7128,-1.7047,-1.7026,-1.7062,-1.715,-1.7172,-1.7208,-1.7311,-1.7333,-1.7333,-1.7333,-1.7333,-1.7333,-1.7333,-1.7333,-1.7239,-1.7066,-1.6979,-1.6885,-1.6777,-1.6595,-1.6414,-1.6312,-1.6116,-1.5927,-1.5832,-1.5832,-1.5927,-1.5927,-1.6021,-1.6015,-1.6021,-1.5927,-1.5927,-1.5832,-1.5737,-1.5825,-1.5825,-1.5825,-1.573,-1.5825,-1.5825,-1.5825,-1.5825,-1.5825,-1.5825,-1.5825,-1.554,-1.5635,-1.5146,-1.4376,-1.342,-1.2058,-1.1016,-1.0285,-1.0067,-0.992,-0.9916,-1.0034,-1.0103,-1.0148,-2.5475,-2.52,-2.4946,-2.3637,-2.1784,-2.1695,-2.0628,-1.892,-1.8827,-1.8827,-1.8827,-1.8827,-1.8827,-1.8827,-1.8827,-1.8827,-1.8827,-1.8827,-1.8827,-1.8827,-1.8827,-1.8735,-1.8651,-1.8179,-1.7714,-1.7426,-1.7333,-1.7333,-1.7333,-1.7333,-1.7333,-1.7333,-1.7333,-1.7333,-1.7333,-1.7333,-1.7333,-1.7333,-1.7333,-1.7333,-1.7333,-1.7333,-1.7333,-1.7333,-1.7333,-1.7333,-1.7333,-1.7333,-1.7333,-1.7333,-1.7333,-1.7333,-1.7333,-1.7326,-1.7333,-1.7333,-1.7326,-1.7326,-1.7333,-1.7311,-1.7333,-1.7333,-1.7333,-1.7333,-1.7333,-1.7333,-1.7333,-1.7333,-1.7246,-1.7059,-1.6878,-1.6697,-1.6595,-1.6305,-1.6218,-1.6123,-1.6028,-1.5927,-1.5832,-1.5825,-1.5825,-1.5825,-1.5832,-1.5356,-1.5255,-1.5255,-1.5255,-1.5255,-1.5248,-1.5255,-1.535,-1.5445,-1.535,-1.5445,-1.573,-1.5825,-1.5825,-1.5825,-1.5825,-1.5825,-1.5825,-1.5255,-1.4962,-1.3986,-1.321,-1.2634,-1.1373,-1.0527,-0.9887,-0.9872,-0.9998,-1.0091,-1.0197,-1.0253,-1.0306,-2.538,-2.52,-2.4946,-2.3714,-2.1961,-2.1784,-2.0709,-1.9096,-1.8827,-1.8827,-1.8827,-1.8827,-1.8827,-1.8827,-1.8827,-1.8827,-1.8827,-1.8827,-1.8827,-1.8827,-1.8827,-1.8743,-1.8381,-1.8001,-1.7628,-1.7333,-1.7333,-1.7333,-1.7333,-1.7333,-1.7333,-1.7333,-1.7333,-1.7333,-1.7333,-1.7333,-1.7333,-1.7333,-1.7333,-1.7333,-1.7333,-1.7333,-1.7333,-1.7333,-1.7333,-1.7333,-1.7333,-1.7333,-1.7333,-1.7333,-1.7333,-1.7333,-1.7333,-1.7333,-1.7333,-1.7333,-1.7333,-1.7333,-1.7333,-1.7333,-1.7333,-1.7333,-1.7333,-1.7333,-1.7333,-1.7333,-1.7333,-1.7333,-1.7153,-1.6878,-1.6683,-1.6407,-1.6123,-1.5927,-1.6028,-1.6021,-1.5825,-1.5825,-1.573,-1.5642,-1.5737,-1.573,-1.554,-1.4771,-1.4388,-1.4394,-1.4292,-1.419,-1.419,-1.4286,-1.4675,-1.4675,-1.4478,-1.4478,-1.4663,-1.4663,-1.4663,-1.4663,-1.486,-1.5064,-1.5159,-1.4682,-1.387,-1.298,-1.2227,-1.1623,-1.102,-1.0285,-0.9977,-1.0111,-1.0209,-1.0282,-1.0347,-1.0416,-1.0452,-2.5285,-2.52,-2.4786,-2.3907,-2.2658,-2.2041,-2.106,-1.9894,-1.9088,-1.8912,-1.8827,-1.8827,-1.8827,-1.8827,-1.8827,-1.8827,-1.8827,-1.8827,-1.8827,-1.8827,-1.8827,-1.855,-1.828,-1.8087,-1.7714,-1.7326,-1.7333,-1.7333,-1.7333,-1.7333,-1.7333,-1.7333,-1.7333,-1.7333,-1.7333,-1.7333,-1.7333,-1.7333,-1.7333,-1.7333,-1.7333,-1.7333,-1.7333,-1.7333,-1.7333,-1.7333,-1.7333,-1.7333,-1.7333,-1.7333,-1.7333,-1.7333,-1.7333,-1.7333,-1.7333,-1.7333,-1.7333,-1.7333,-1.7333,-1.7333,-1.7333,-1.7333,-1.7333,-1.7333,-1.7333,-1.7333,-1.7333,-1.7239,-1.716,-1.6878,-1.6595,-1.6312,-1.6123,-1.5832,-1.5927,-1.5927,-1.5832,-1.5825,-1.554,-1.4867,-1.4771,-1.4675,-1.4484,-1.3896,-1.3414,-1.3806,-1.3613,-1.3125,-1.3119,-1.3119,-1.3409,-1.3312,-1.3216,-1.3312,-1.3307,-1.3403,-1.3403,-1.3312,-1.3414,-1.3727,-1.3823,-1.3732,-1.2861,-1.1954,-1.171,-1.1189,-1.071,-1.0195,-1.0217,-1.0327,-1.0375,-1.0428,-1.0538,-1.0615,-1.0603,-2.5285,-2.52,-2.4871,-2.4079,-2.3096,-2.2473,-2.1774,-2.0791,-1.9894,-1.9446,-1.9363,-1.8912,-1.8827,-1.8827,-1.8827,-1.8827,-1.8827,-1.8827,-1.8827,-1.8743,-1.8743,-1.8465,-1.8179,-1.8087,-1.78,-1.7326,-1.7333,-1.7333,-1.7333,-1.7333,-1.7333,-1.7333,-1.7333,-1.7333,-1.7333,-1.7333,-1.7333,-1.7333,-1.7333,-1.7333,-1.7333,-1.7333,-1.7333,-1.7333,-1.7333,-1.7333,-1.7333,-1.7333,-1.7333,-1.7333,-1.7333,-1.7333,-1.7333,-1.7333,-1.7333,-1.7333,-1.7333,-1.7333,-1.7333,-1.7333,-1.7333,-1.7333,-1.7333,-1.7333,-1.7333,-1.7333,-1.7333,-1.7239,-1.7066,-1.6878,-1.6588,-1.6305,-1.6021,-1.5825,-1.5825,-1.5825,-1.5825,-1.5445,-1.4968,-1.4394,-1.3908,-1.3607,-1.3613,-1.2727,-1.2533,-1.2635,-1.2441,-1.2145,-1.2047,-1.2047,-1.2145,-1.2242,-1.2247,-1.2339,-1.263,-1.2727,-1.2662,-1.2565,-1.2304,-1.2588,-1.262,-1.262,-1.1929,-1.1245,-1.1087,-1.0861,-1.0494,-1.0298,-1.0375,-1.0461,-1.0509,-1.0562,-1.0651,-1.0692,-1.0692,-2.5464,-2.52,-2.4946,-2.4241,-2.3367,-2.3096,-2.257,-2.1774,-2.0881,-2.0439,-2.0257,-1.9363,-1.9096,-1.8912,-1.8912,-1.8827,-1.8827,-1.8827,-1.8827,-1.8743,-1.8658,-1.8373,-1.8087,-1.7994,-1.7707,-1.7333,-1.7333,-1.7333,-1.7333,-1.7333,-1.7333,-1.7333,-1.7333,-1.7333,-1.7333,-1.7333,-1.7333,-1.7333,-1.7333,-1.7333,-1.7333,-1.7333,-1.7333,-1.7333,-1.7333,-1.7333,-1.7333,-1.7333,-1.7333,-1.7333,-1.7333,-1.7333,-1.7333,-1.7333,-1.7333,-1.7333,-1.7333,-1.7333,-1.7333,-1.7333,-1.7333,-1.7333,-1.7333,-1.7333,-1.7333,-1.7333,-1.7333,-1.7333,-1.7059,-1.6683,-1.6204,-1.5927,-1.573,-1.554,-1.554,-1.5635,-1.5445,-1.4873,-1.4298,-1.41,-1.3221,-1.2635,-1.2339,-1.176,-1.1175,-1.1853,-1.1468,-1.1082,-1.0984,-1.0984,-1.1272,-1.1663,-1.1565,-1.137,-1.176,-1.215,-1.2093,-1.1943,-1.1453,-1.1433,-1.1498,-1.142,-1.0959,-1.0613,-1.0677,-1.0682,-1.0621,-1.0501,-1.0542,-1.0574,-1.0611,-1.0647,-1.0692,-1.0692,-1.0692,-2.5464,-2.52,-2.5031,-2.4605,-2.409,-2.3464,-2.3008,-2.2746,-2.1774,-2.1418,-2.115,-2.0439,-1.9994,-1.9894,-1.9271,-1.8827,-1.8827,-1.8827,-1.8827,-1.8743,-1.8566,-1.8373,-1.8087,-1.7908,-1.7621,-1.7333,-1.7333,-1.7333,-1.7333,-1.7333,-1.7333,-1.7333,-1.7333,-1.7333,-1.7333,-1.7333,-1.7333,-1.7333,-1.7333,-1.7333,-1.7333,-1.7333,-1.7333,-1.7333,-1.7333,-1.7333,-1.7333,-1.7333,-1.7333,-1.7333,-1.7333,-1.7333,-1.7333,-1.7333,-1.7333,-1.7333,-1.7333,-1.7333,-1.7333,-1.7333,-1.7333,-1.7333,-1.7333,-1.7333,-1.7333,-1.7333,-1.7333,-1.7239,-1.6958,-1.6204,-1.5248,-1.554,-1.5248,-1.4873,-1.458,-1.458,-1.4586,-1.4394,-1.3806,-1.3022,-1.2145,-1.156,-1.1468,-1.0694,-1.0498,-1.0881,-1.069,-1.0113,-1.0019,-1.0113,-1.043,-1.0927,-1.0852,-1.0677,-1.0843,-1.1245,-1.1278,-1.1239,-1.1008,-1.0724,-1.0785,-1.0745,-1.0569,-1.0514,-1.0465,-1.0477,-1.057,-1.0611,-1.0631,-1.0672,-1.0692,-1.0692,-1.0692,-1.0692,-1.0692,-2.5549,-2.52,-2.5105,-2.4871,-2.4454,-2.4003,-2.3734,-2.3551,-2.2746,-2.2394,-2.2129,-2.1329,-2.0979,-2.0881,-1.9994,-1.9546,-1.9363,-1.9004,-1.8827,-1.8735,-1.8465,-1.828,-1.7994,-1.7714,-1.7426,-1.7333,-1.7333,-1.7333,-1.7333,-1.7333,-1.7333,-1.7333,-1.7333,-1.7333,-1.7333,-1.7333,-1.7333,-1.7333,-1.7333,-1.7333,-1.7333,-1.7333,-1.7333,-1.7333,-1.7333,-1.7333,-1.7333,-1.7333,-1.7333,-1.7333,-1.7333,-1.7333,-1.7333,-1.7333,-1.7333,-1.7333,-1.7333,-1.7333,-1.7333,-1.7333,-1.7333,-1.7333,-1.7333,-1.7333,-1.7333,-1.7333,-1.7333,-1.7239,-1.6871,-1.6211,-1.4765,-1.4675,-1.458,-1.38,-1.3511,-1.3511,-1.3511,-1.3119,-1.2732,-1.195,-1.1077,-1.0596,-1.0207,-0.9821,-0.983,-1.0319,-1.0319,-0.9735,-0.9727,-0.9834,-0.9805,-1.0124,-0.995,-0.9895,-0.9985,-1.0234,-1.0374,-1.0458,-1.0585,-1.0476,-1.0543,-1.0502,-1.0568,-1.0493,-1.0521,-1.0566,-1.0647,-1.0684,-1.0692,-1.0692,-1.0692,-1.0692,-1.0692,-1.0692,-1.0692,-2.5644,-2.52,-2.52,-2.4956,-2.454,-2.4464,-2.4454,-2.4358,-2.3637,-2.329,-2.3105,-2.2306,-2.1961,-2.1686,-2.097,-2.052,-2.0257,-1.9538,-1.9188,-1.918,-1.845,-1.8179,-1.7986,-1.7606,-1.7333,-1.7333,-1.7333,-1.7333,-1.7333,-1.7333,-1.7333,-1.7333,-1.7333,-1.7333,-1.7333,-1.7333,-1.7333,-1.7333,-1.7333,-1.7333,-1.7333,-1.7333,-1.7333,-1.7333,-1.7333,-1.7333,-1.7333,-1.7333,-1.7333,-1.7333,-1.7333,-1.7333,-1.7333,-1.7333,-1.7333,-1.7333,-1.7333,-1.7333,-1.7333,-1.7333,-1.7333,-1.7333,-1.7333,-1.7333,-1.7333,-1.7333,-1.7333,-1.7239,-1.6965,-1.6204,-1.4949,-1.458,-1.3902,-1.3022,-1.263,-1.2436,-1.2339,-1.156,-1.1175,-1.1175,-1.0592,-1.0015,-0.9817,-0.9628,-0.964,-0.9661,-0.9665,-0.9677,-0.9685,-0.9721,-0.9823,-0.988,-0.9916,-0.9929,-1.0006,-1.0136,-1.0168,-1.0229,-1.0347,-1.042,-1.0485,-1.0534,-1.0582,-1.0627,-1.0664,-1.0684,-1.0684,-1.0688,-1.0692,-1.0692,-1.0692,-1.0692,-1.0692,-1.0692,-1.0692,-2.5644,-2.52,-2.52,-2.4956,-2.454,-2.455,-2.455,-2.4454,-2.4272,-2.4272,-2.409,-2.328,-2.2833,-2.2658,-2.1863,-2.1516,-2.1159,-2.0439,-1.9985,-1.9712,-1.8896,-1.8265,-1.7994,-1.7613,-1.7333,-1.7333,-1.7333,-1.7333,-1.7333,-1.7333,-1.7333,-1.7333,-1.7333,-1.7333,-1.7333,-1.7333,-1.7333,-1.7333,-1.7333,-1.7333,-1.7333,-1.7333,-1.7333,-1.7333,-1.7333,-1.7333,-1.7333,-1.7333,-1.7333,-1.7333,-1.7333,-1.7333,-1.7333,-1.7333,-1.7333,-1.7333,-1.7333,-1.7333,-1.7333,-1.7333,-1.7333,-1.7333,-1.7333,-1.7333,-1.7333,-1.7333,-1.7333,-1.7145,-1.6864,-1.6103,-1.4848,-1.4484,-1.3806,-1.292,-1.2047,-1.156,-1.1365,-1.0806,-1.043,-1.0829,-1.0134,-0.9648,-0.9677,-0.9721,-0.9782,-0.9827,-0.9847,-0.99,-0.9949,-0.9985,-1.0054,-1.0091,-1.0111,-1.0115,-1.0136,-1.0286,-1.0383,-1.0408,-1.0493,-1.0566,-1.0623,-1.0651,-1.0692,-1.0692,-1.0692,-1.0688,-1.0688,-1.0692,-1.0692,-1.0692,-1.0692,-1.0692,-1.0692,-1.0692,-1.0692,-2.5728,-2.538,-2.5295,-2.5041,-2.47,-2.454,-2.455,-2.455,-2.455,-2.455,-2.4368,-2.4003,-2.382,-2.3551,-2.2833,-2.2227,-2.1695,-2.1329,-2.0791,-2.0167,-1.9438,-1.8627,-1.8179,-1.7714,-1.7426,-1.7333,-1.7333,-1.7333,-1.7333,-1.7333,-1.7333,-1.7333,-1.7333,-1.7333,-1.7333,-1.7333,-1.7333,-1.7333,-1.7333,-1.7333,-1.7333,-1.7333,-1.7333,-1.7333,-1.7333,-1.7333,-1.7333,-1.7333,-1.7333,-1.7333,-1.7333,-1.7333,-1.7333,-1.7333,-1.7333,-1.7333,-1.7333,-1.7333,-1.7333,-1.7333,-1.7333,-1.7333,-1.7333,-1.7333,-1.7333,-1.7333,-1.7246,-1.7059,-1.677,-1.6103,-1.4848,-1.4478,-1.3806,-1.2829,-1.1853,-1.1365,-1.1007,-1.0298,-1.0328,-1.054,-1.0083,-0.9807,-0.9803,-0.986,-0.9941,-0.9985,-1.0022,-1.0099,-1.0188,-1.0217,-1.0249,-1.0302,-1.0327,-1.0359,-1.0355,-1.0432,-1.0526,-1.0558,-1.059,-1.0664,-1.0692,-1.0692,-1.0692,-1.0692,-1.0692,-1.0692,-1.0692,-1.0692,-1.0692,-1.0692,-1.0692,-1.0692,-1.0692,-1.0692,-1.0692,-2.5822,-2.5559,-2.5285,-2.5115,-2.4861,-2.4615,-2.455,-2.455,-2.455,-2.455,-2.455,-2.4454,-2.4454,-2.4272,-2.3724,-2.3018,-2.2227,-2.2138,-2.1596,-2.0962,-2.0068,-1.9263,-1.8627,-1.79,-1.7621,-1.7426,-1.7333,-1.7333,-1.7333,-1.7333,-1.7333,-1.7333,-1.7333,-1.7333,-1.7333,-1.7333,-1.7333,-1.7333,-1.7333,-1.7333,-1.7333,-1.7333,-1.7333,-1.7333,-1.7333,-1.7333,-1.7333,-1.7333,-1.7333,-1.7333,-1.7333,-1.7333,-1.7333,-1.7333,-1.7333,-1.7333,-1.7333,-1.7333,-1.7333,-1.7333,-1.7333,-1.7333,-1.7333,-1.7333,-1.7333,-1.7333,-1.7239,-1.7059,-1.6777,-1.6298,-1.533,-1.4669,-1.3998,-1.3221,-1.2247,-1.1394,-1.1185,-1.068,-1.0285,-1.0315,-1.0055,-0.9977,-1.0088,-0.9994,-1.0075,-1.018,-1.0217,-1.029,-1.0363,-1.0367,-1.0408,-1.0489,-1.0546,-1.0603,-1.0611,-1.0582,-1.0631,-1.0635,-1.0643,-1.068,-1.0692,-1.0692,-1.0692,-1.0692,-1.0692,-1.0692,-1.0692,-1.0692,-1.0692,-1.0692,-1.0692,-1.0692,-1.0692,-1.0692,-1.0692,-2.5812,-2.5559,-2.5285,-2.5115,-2.4861,-2.4615,-2.455,-2.455,-2.455,-2.455,-2.455,-2.455,-2.455,-2.4454,-2.4368,-2.4186,-2.3917,-2.329,-2.2746,-2.2199,-2.0962,-1.9977,-1.9446,-1.8265,-1.7815,-1.7527,-1.7326,-1.7333,-1.7333,-1.7333,-1.7333,-1.7333,-1.7333,-1.7333,-1.7333,-1.7333,-1.7333,-1.7333,-1.7333,-1.7333,-1.7333,-1.7333,-1.7333,-1.7333,-1.7333,-1.7333,-1.7333,-1.7333,-1.7333,-1.7333,-1.7333,-1.7333,-1.7333,-1.7333,-1.7333,-1.7333,-1.7333,-1.7333,-1.7333,-1.7333,-1.7333,-1.7333,-1.7333,-1.7333,-1.7333,-1.7333,-1.7239,-1.7232,-1.6864,-1.6487,-1.5913,-1.5057,-1.4388,-1.3823,-1.3255,-1.2376,-1.1795,-1.1378,-1.0968,-1.0759,-1.0724,-1.0506,-1.0402,-1.0297,-1.0209,-1.0318,-1.042,-1.0485,-1.0526,-1.0517,-1.0521,-1.059,-1.0619,-1.0672,-1.0692,-1.0692,-1.0692,-1.0692,-1.0692,-1.0692,-1.0692,-1.0692,-1.0692,-1.0692,-1.0692,-1.0692,-1.0692,-1.0692,-1.0692,-1.0692,-1.0692,-1.0692,-1.0692,-1.0692,-1.0692,-2.5822,-2.5728,-2.5475,-2.5295,-2.5031,-2.4775,-2.4615,-2.454,-2.455,-2.455,-2.455,-2.455,-2.455,-2.455,-2.455,-2.4464,-2.4368,-2.4003,-2.3541,-2.3173,-2.2022,-2.0953,-1.9795,-1.8988,-1.8442,-1.7621,-1.7426,-1.7333,-1.7333,-1.7333,-1.7333,-1.7333,-1.7333,-1.7333,-1.7333,-1.7333,-1.7333,-1.7333,-1.7333,-1.7333,-1.7333,-1.7333,-1.7333,-1.7333,-1.7333,-1.7333,-1.7333,-1.7333,-1.7333,-1.7333,-1.7333,-1.7333,-1.7333,-1.7333,-1.7333,-1.7333,-1.7333,-1.7333,-1.7333,-1.7333,-1.7333,-1.7333,-1.7333,-1.7333,-1.7333,-1.7333,-1.7239,-1.7153,-1.6777,-1.6588,-1.6305,-1.5635,-1.535,-1.4892,-1.431,-1.3872,-1.3057,-1.2191,-1.1726,-1.1521,-1.1287,-1.0946,-1.0724,-1.0527,-1.0535,-1.0485,-1.055,-1.0586,-1.0619,-1.0627,-1.0639,-1.0664,-1.0676,-1.0688,-1.0692,-1.0692,-1.0692,-1.0692,-1.0692,-1.0692,-1.0692,-1.0692,-1.0692,-1.0692,-1.0692,-1.0692,-1.0692,-1.0692,-1.0692,-1.0692,-1.0692,-1.0692,-1.0692,-1.0692,-1.0692,-2.5895,-2.5906,-2.5654,-2.5475,-2.52,-2.4935,-2.4786,-2.454,-2.455,-2.455,-2.455,-2.455,-2.455,-2.455,-2.455,-2.455,-2.4464,-2.455,-2.409,-2.3627,-2.2999,-2.2022,-2.0872,-2.0068,-1.898,-1.7792,-1.752,-1.7426,-1.7333,-1.7333,-1.7333,-1.7333,-1.7333,-1.7333,-1.7333,-1.7333,-1.7333,-1.7333,-1.7333,-1.7333,-1.7333,-1.7333,-1.7333,-1.7333,-1.7333,-1.7333,-1.7333,-1.7333,-1.7333,-1.7333,-1.7333,-1.7333,-1.7333,-1.7333,-1.7333,-1.7333,-1.7333,-1.7333,-1.7333,-1.7333,-1.7333,-1.7333,-1.7333,-1.7239,-1.7239,-1.7239,-1.7145,-1.6878,-1.6595,-1.6407,-1.6218,-1.5933,-1.5803,-1.5608,-1.5344,-1.5103,-1.4689,-1.354,-1.2514,-1.1996,-1.1644,-1.1155,-1.0941,-1.087,-1.0777,-1.0676,-1.0692,-1.0692,-1.0692,-1.0692,-1.0692,-1.0692,-1.0692,-1.0692,-1.0692,-1.0692,-1.0692,-1.0692,-1.0692,-1.0692,-1.0692,-1.0692,-1.0692,-1.0692,-1.0692,-1.0692,-1.0692,-1.0692,-1.0692,-1.0692,-1.0692,-1.0692,-1.0692,-1.0692,-1.0692,-2.5895,-2.5895,-2.5654,-2.5464,-2.5211,-2.4935,-2.4775,-2.455,-2.455,-2.455,-2.455,-2.455,-2.455,-2.455,-2.455,-2.455,-2.455,-2.455,-2.4358,-2.4079,-2.3541,-2.2921,-2.2022,-2.0872,-1.9803,-1.9163,-1.8342,-1.7699,-1.7326,-1.7326,-1.7326,-1.7333,-1.7333,-1.7333,-1.7333,-1.7333,-1.7333,-1.7333,-1.7333,-1.7333,-1.7333,-1.7333,-1.7333,-1.7333,-1.7333,-1.7333,-1.7333,-1.7333,-1.7333,-1.7333,-1.7333,-1.7333,-1.7333,-1.7333,-1.7333,-1.7333,-1.7333,-1.7333,-1.7333,-1.7333,-1.7333,-1.7333,-1.7239,-1.7153,-1.7066,-1.7066,-1.6878,-1.6683,-1.6407,-1.6218,-1.6123,-1.6055,-1.5999,-1.6056,-1.5947,-1.5995,-1.5466,-1.451,-1.3471,-1.2562,-1.2082,-1.1982,-1.1555,-1.1555,-1.0907,-1.0798,-1.0692,-1.0692,-1.0692,-1.0692,-1.0692,-1.0692,-1.0692,-1.0692,-1.0692,-1.0692,-1.0692,-1.0692,-1.0692,-1.0692,-1.0692,-1.0692,-1.0692,-1.0692,-1.0692,-1.0692,-1.0692,-1.0692,-1.0692,-1.0692,-1.0692,-1.0692,-1.0692,-1.0692,-1.0692,-2.5895,-2.5906,-2.5812,-2.5559,-2.52,-2.5105,-2.4861,-2.454,-2.455,-2.455,-2.455,-2.455,-2.455,-2.455,-2.455,-2.455,-2.455,-2.455,-2.455,-2.4454,-2.409,-2.3541,-2.2736,-2.2022,-2.1132,-2.015,-1.9063,-1.8434,-1.8249,-1.7606,-1.7326,-1.7333,-1.7333,-1.7333,-1.7333,-1.7333,-1.7333,-1.7333,-1.7333,-1.7333,-1.7333,-1.7333,-1.7333,-1.7333,-1.7333,-1.7333,-1.7333,-1.7333,-1.7333,-1.7333,-1.7333,-1.7333,-1.7333,-1.7333,-1.7333,-1.7333,-1.7333,-1.7333,-1.7333,-1.7333,-1.7333,-1.7239,-1.7153,-1.7066,-1.6979,-1.6878,-1.669,-1.6407,-1.6319,-1.613,-1.5947,-1.6095,-1.6186,-1.6333,-1.6461,-1.655,-1.6137,-1.5252,-1.4924,-1.4212,-1.3593,-1.3166,-1.2738,-1.2309,-1.1555,-1.0907,-1.0798,-1.0692,-1.0692,-1.0692,-1.0692,-1.0692,-1.0692,-1.0692,-1.0692,-1.0692,-1.0692,-1.0692,-1.0692,-1.0692,-1.0692,-1.0692,-1.0692,-1.0692,-1.0692,-1.0692,-1.0692,-1.0692,-1.0692,-1.0692,-1.0692,-1.0692,-1.0692,-1.0692,-1.0692,-2.5895,-2.5895,-2.5895,-2.5633,-2.5285,-2.52,-2.4946,-2.4625,-2.454,-2.455,-2.455,-2.455,-2.455,-2.455,-2.455,-2.455,-2.455,-2.455,-2.455,-2.4454,-2.4358,-2.4003,-2.3367,-2.2736,-2.1933,-2.0854,-1.9869,-1.9155,-1.8257,-1.7699,-1.7426,-1.7333,-1.7333,-1.7333,-1.7333,-1.7333,-1.7333,-1.7333,-1.7333,-1.7333,-1.7333,-1.7333,-1.7333,-1.7333,-1.7333,-1.7333,-1.7333,-1.7333,-1.7333,-1.7333,-1.7333,-1.7333,-1.7333,-1.7333,-1.7333,-1.7333,-1.7333,-1.7333,-1.7333,-1.7333,-1.7333,-1.7239,-1.7239,-1.7066,-1.6979,-1.6784,-1.669,-1.6319,-1.6224,-1.6157,-1.5919,-1.6139,-1.642,-1.6607,-1.682,-1.6985,-1.6743,-1.6156,-1.6206,-1.6074,-1.5102,-1.3706,-1.2738,-1.2096,-1.1555,-1.0907,-1.0798,-1.0692,-1.0692,-1.0692,-1.0692,-1.0692,-1.0692,-1.0692,-1.0692,-1.0692,-1.0692,-1.0692,-1.0692,-1.0692,-1.0692,-1.0692,-1.0692,-1.0692,-1.0692,-1.0692,-1.0692,-1.0692,-1.0692,-1.0692,-1.0692,-1.0692,-1.0692,-1.0692,-1.0692,-2.5895,-2.5895,-2.5895,-2.5822,-2.5559,-2.5295,-2.5115,-2.4871,-2.4625,-2.455,-2.455,-2.455,-2.455,-2.455,-2.455,-2.455,-2.455,-2.455,-2.455,-2.455,-2.4464,-2.4368,-2.409,-2.3454,-2.2746,-2.1391,-2.0413,-1.9338,-1.8087,-1.7714,-1.7527,-1.7426,-1.7333,-1.7333,-1.7333,-1.7333,-1.7333,-1.7333,-1.7333,-1.7333,-1.7333,-1.7333,-1.7333,-1.7333,-1.7333,-1.7333,-1.7333,-1.7333,-1.7333,-1.7333,-1.7333,-1.7333,-1.7333,-1.7333,-1.7333,-1.7333,-1.7333,-1.7333,-1.7333,-1.7333,-1.7333,-1.7333,-1.7239,-1.716,-1.7073,-1.6878,-1.669,-1.6224,-1.6265,-1.6293,-1.6236,-1.6333,-1.6653,-1.6874,-1.719,-1.7268,-1.7121,-1.6983,-1.6916,-1.6935,-1.5423,-1.3809,-1.2738,-1.1773,-1.1341,-1.0907,-1.0802,-1.0692,-1.0692,-1.0692,-1.0692,-1.0692,-1.0692,-1.0692,-1.0692,-1.0692,-1.0692,-1.0692,-1.0692,-1.0692,-1.0692,-1.0692,-1.0692,-1.0692,-1.0692,-1.0692,-1.0692,-1.0692,-1.0692,-1.0692,-1.0692,-1.0692,-1.0692,-1.0692,-1.0692,-2.5895,-2.5895,-2.5895,-2.5906,-2.5812,-2.5559,-2.5295,-2.4871,-2.4615,-2.455,-2.455,-2.455,-2.455,-2.455,-2.455,-2.455,-2.455,-2.455,-2.455,-2.455,-2.455,-2.4464,-2.4368,-2.409,-2.356,-2.2746,-2.1587,-2.043,-1.9729,-1.8458,-1.7721,-1.7527,-1.7333,-1.7333,-1.7333,-1.7333,-1.7333,-1.7333,-1.7333,-1.7333,-1.7333,-1.7333,-1.7333,-1.7333,-1.7333,-1.7333,-1.7333,-1.7333,-1.7333,-1.7333,-1.7333,-1.7333,-1.7333,-1.7333,-1.7333,-1.7333,-1.7333,-1.7333,-1.7333,-1.7333,-1.7333,-1.7239,-1.7153,-1.716,-1.6979,-1.6784,-1.6501,-1.6374,-1.6402,-1.6443,-1.635,-1.6687,-1.6994,-1.7088,-1.7261,-1.7422,-1.745,-1.7351,-1.7259,-1.7364,-1.6393,-1.5642,-1.4674,-1.3063,-1.2309,-1.1551,-1.1446,-1.0907,-1.0692,-1.0692,-1.0692,-1.0692,-1.0692,-1.0692,-1.0692,-1.0692,-1.0692,-1.0692,-1.0692,-1.0692,-1.0692,-1.0692,-1.0692,-1.0692,-1.0692,-1.0692,-1.0692,-1.0692,-1.0692,-1.0692,-1.0692,-1.0692,-1.0692,-1.0692,-1.0692,-2.5895,-2.5895,-2.5895,-2.5895,-2.5906,-2.5738,-2.5306,-2.4861,-2.4625,-2.455,-2.455,-2.455,-2.455,-2.455,-2.455,-2.455,-2.455,-2.455,-2.455,-2.455,-2.455,-2.455,-2.455,-2.4454,-2.3907,-2.3377,-2.2208,-2.1051,-2.0085,-1.8635,-1.7807,-1.7527,-1.7426,-1.7333,-1.7333,-1.7333,-1.7333,-1.7333,-1.7333,-1.7333,-1.7333,-1.7333,-1.7333,-1.7333,-1.7333,-1.7333,-1.7333,-1.7333,-1.7333,-1.7333,-1.7333,-1.7333,-1.7333,-1.7333,-1.7333,-1.7333,-1.7333,-1.7333,-1.7333,-1.7333,-1.7333,-1.7333,-1.7153,-1.7066,-1.6979,-1.6878,-1.6693,-1.6505,-1.658,-1.6687,-1.6699,-1.7156,-1.7181,-1.7268,-1.7402,-1.7562,-1.7575,-1.7477,-1.7477,-1.7582,-1.7477,-1.6935,-1.6399,-1.4888,-1.3491,-1.2738,-1.2091,-1.1446,-1.0911,-1.0692,-1.0692,-1.0692,-1.0692,-1.0692,-1.0692,-1.0692,-1.0692,-1.0692,-1.0692,-1.0692,-1.0692,-1.0692,-1.0692,-1.0692,-1.0692,-1.0692,-1.0692,-1.0692,-1.0692,-1.0692,-1.0692,-1.0692,-1.0692,-1.0692,-1.0692,-2.5895,-2.5895,-2.5895,-2.5895,-2.5906,-2.5654,-2.5306,-2.4861,-2.4625,-2.454,-2.455,-2.455,-2.455,-2.455,-2.455,-2.455,-2.455,-2.455,-2.455,-2.455,-2.455,-2.455,-2.455,-2.4454,-2.409,-2.3193,-2.212,-2.115,-1.9977,-1.8727,-1.79,-1.7527,-1.7434,-1.7333,-1.7333,-1.7333,-1.7333,-1.7333,-1.7333,-1.7333,-1.7333,-1.7333,-1.7333,-1.7333,-1.7333,-1.7333,-1.7333,-1.7333,-1.7333,-1.7333,-1.7333,-1.7333,-1.7333,-1.7333,-1.7333,-1.7333,-1.7333,-1.7333,-1.7333,-1.7333,-1.7333,-1.734,-1.7384,-1.7174,-1.7088,-1.7037,-1.6894,-1.678,-1.6876,-1.7014,-1.713,-1.7271,-1.7308,-1.7415,-1.7528,-1.7582,-1.7582,-1.7589,-1.7589,-1.7589,-1.7589,-1.7259,-1.7041,-1.5855,-1.4781,-1.4132,-1.3383,-1.2304,-1.1664,-1.0802,-1.0692,-1.0692,-1.0692,-1.0692,-1.0692,-1.0692,-1.0692,-1.0692,-1.0692,-1.0692,-1.0692,-1.0692,-1.0692,-1.0692,-1.0692,-1.0692,-1.0692,-1.0692,-1.0692,-1.0692,-1.0692,-1.0692,-1.0692,-1.0692,-1.0692,-2.5895,-2.5895,-2.5895,-2.5895,-2.5906,-2.5654,-2.5391,-2.5115,-2.4871,-2.47,-2.455,-2.455,-2.455,-2.455,-2.455,-2.455,-2.455,-2.455,-2.455,-2.455,-2.455,-2.455,-2.455,-2.4464,-2.4196,-2.3474,-2.2492,-2.1427,-2.0619,-1.9271,-1.8102,-1.7721,-1.7527,-1.7426,-1.7333,-1.7333,-1.7333,-1.7333,-1.7333,-1.7333,-1.7333,-1.7333,-1.7333,-1.7333,-1.7333,-1.7333,-1.7333,-1.7333,-1.7333,-1.7333,-1.7333,-1.7333,-1.7333,-1.7333,-1.7333,-1.7333,-1.7333,-1.7333,-1.7333,-1.7333,-1.7347,-1.7421,-1.753,-1.7494,-1.7297,-1.7194,-1.7173,-1.7093,-1.7038,-1.7171,-1.7277,-1.7315,-1.7415,-1.7508,-1.7589,-1.7589,-1.7589,-1.7589,-1.7589,-1.7589,-1.7589,-1.7582,-1.7364,-1.7147,-1.618,-1.5535,-1.4669,-1.3599,-1.2413,-1.1555,-1.0802,-1.0802,-1.0692,-1.0692,-1.0692,-1.0692,-1.0692,-1.0692,-1.0692,-1.0692,-1.0692,-1.0692,-1.0692,-1.0692,-1.0692,-1.0692,-1.0692,-1.0692,-1.0692,-1.0692,-1.0692,-1.0692,-1.0692,-1.0692,-1.0692,-2.5895,-2.5895,-2.5895,-2.5895,-2.5895,-2.5738,-2.5549,-2.5285,-2.5041,-2.4786,-2.455,-2.455,-2.455,-2.455,-2.455,-2.455,-2.455,-2.455,-2.455,-2.455,-2.455,-2.455,-2.455,-2.4454,-2.4454,-2.3744,-2.2765,-2.1606,-2.0889,-1.9554,-1.8202,-1.7721,-1.7721,-1.7527,-1.7426,-1.7333,-1.7333,-1.7333,-1.7333,-1.7333,-1.7333,-1.7333,-1.7333,-1.7333,-1.7333,-1.7333,-1.7333,-1.7333,-1.7333,-1.7333,-1.7333,-1.7333,-1.7333,-1.7333,-1.7333,-1.7333,-1.7333,-1.7333,-1.7333,-1.7333,-1.7399,-1.753,-1.7713,-1.7765,-1.7645,-1.7552,-1.7422,-1.7299,-1.736,-1.74,-1.7439,-1.7462,-1.7522,-1.7582,-1.7589,-1.7589,-1.7589,-1.7589,-1.7589,-1.7589,-1.7589,-1.7589,-1.7589,-1.7589,-1.7259,-1.618,-1.5322,-1.4674,-1.3383,-1.2309,-1.1341,-1.0802,-1.0802,-1.0692,-1.0692,-1.0692,-1.0692,-1.0692,-1.0692,-1.0692,-1.0692,-1.0692,-1.0692,-1.0692,-1.0692,-1.0692,-1.0692,-1.0692,-1.0692,-1.0692,-1.0692,-1.0692,-1.0692,-1.0692,-1.0692,-2.5895,-2.5895,-2.5895,-2.5895,-2.5895,-2.5895,-2.5738,-2.5559,-2.5126,-2.4786,-2.4625,-2.4529,-2.455,-2.455,-2.455,-2.455,-2.455,-2.455,-2.455,-2.455,-2.455,-2.455,-2.4454,-2.4358,-2.409,-2.3647,-2.2668,-2.1159,-2.0799,-1.9546,-1.8288,-1.7815,-1.7822,-1.7721,-1.7434,-1.7426,-1.7426,-1.7333,-1.7333,-1.7333,-1.7333,-1.7333,-1.7333,-1.7333,-1.7333,-1.7333,-1.7333,-1.7333,-1.7333,-1.7333,-1.7333,-1.7333,-1.7333,-1.7333,-1.7333,-1.7333,-1.7333,-1.7333,-1.7362,-1.7399,-1.756,-1.7706,-1.7867,-1.8072,-1.8134,-1.7796,-1.7631,-1.7555,-1.7586,-1.7536,-1.7468,-1.7515,-1.7562,-1.7589,-1.7589,-1.7589,-1.7589,-1.7589,-1.7589,-1.7589,-1.7589,-1.7589,-1.7589,-1.7589,-1.7477,-1.6505,-1.6074,-1.5535,-1.446,-1.328,-1.2309,-1.1341,-1.0802,-1.0802,-1.0692,-1.0692,-1.0692,-1.0692,-1.0692,-1.0692,-1.0692,-1.0692,-1.0692,-1.0692,-1.0692,-1.0692,-1.0692,-1.0692,-1.0692,-1.0692,-1.0692,-1.0692,-1.0692,-1.0692,-1.0692,-2.5895,-2.5895,-2.5895,-2.5895,-2.5895,-2.5895,-2.5822,-2.5559,-2.5475,-2.5211,-2.4871,-2.4625,-2.454,-2.454,-2.455,-2.455,-2.455,-2.455,-2.455,-2.455,-2.455,-2.455,-2.4368,-2.4003,-2.3637,-2.2833,-2.1765,-2.0439,-1.972,-1.9004,-1.8558,-1.8295,-1.8202,-1.8001,-1.7621,-1.7527,-1.7527,-1.7333,-1.7333,-1.7333,-1.7333,-1.7333,-1.7333,-1.7333,-1.7333,-1.7333,-1.7333,-1.7333,-1.7333,-1.7333,-1.7333,-1.7333,-1.7333,-1.7333,-1.7333,-1.7333,-1.7333,-1.7347,-1.7428,-1.7545,-1.7735,-1.7977,-1.8203,-1.8482,-1.8542,-1.8051,-1.7911,-1.7825,-1.7736,-1.7671,-1.7549,-1.7575,-1.7589,-1.7589,-1.7589,-1.7589,-1.7589,-1.7589,-1.7589,-1.7589,-1.7589,-1.7589,-1.7589,-1.7582,-1.747,-1.7358,-1.7259,-1.6717,-1.5535,-1.4352,-1.3712,-1.2635,-1.1122,-1.0798,-1.0802,-1.0692,-1.0692,-1.0692,-1.0692,-1.0692,-1.0692,-1.0692,-1.0692,-1.0692,-1.0692,-1.0692,-1.0692,-1.0692,-1.0692,-1.0692,-1.0692,-1.0692,-1.0692,-1.0692,-1.0692,-2.5895,-2.5895,-2.5895,-2.5895,-2.5895,-2.5895,-2.5812,-2.5738,-2.5644,-2.538,-2.5041,-2.4786,-2.47,-2.4615,-2.454,-2.455,-2.455,-2.455,-2.455,-2.455,-2.455,-2.455,-2.4186,-2.3907,-2.3551,-2.2833,-2.1141,-1.9894,-1.8912,-1.8735,-1.8651,-1.8574,-1.8481,-1.8288,-1.7815,-1.7721,-1.7628,-1.7333,-1.7333,-1.7333,-1.7333,-1.7333,-1.7333,-1.7333,-1.7333,-1.7333,-1.7333,-1.7333,-1.7333,-1.7333,-1.7333,-1.7333,-1.7333,-1.7333,-1.7333,-1.7333,-1.7347,-1.7399,-1.7545,-1.7728,-1.7969,-1.8269,-1.8474,-1.8738,-1.8979,-1.859,-1.8281,-1.8275,-1.7977,-1.7786,-1.7674,-1.7582,-1.7589,-1.7589,-1.7589,-1.7589,-1.7589,-1.7589,-1.7589,-1.7589,-1.7589,-1.7589,-1.7589,-1.7589,-1.7477,-1.7477,-1.7582,-1.747,-1.6393,-1.5328,-1.468,-1.3819,-1.2205,-1.1126,-1.0802,-1.0692,-1.0692,-1.0692,-1.0692,-1.0692,-1.0692,-1.0692,-1.0692,-1.0692,-1.0692,-1.0692,-1.0692,-1.0692,-1.0692,-1.0692,-1.0692,-1.0692,-1.0692,-1.0692,-1.0692,-2.5895,-2.5895,-2.5895,-2.5895,-2.5895,-2.5895,-2.5906,-2.5895,-2.5738,-2.5464,-2.5285,-2.5031,-2.4946,-2.4786,-2.4625,-2.454,-2.455,-2.455,-2.455,-2.455,-2.455,-2.455,-2.4454,-2.4176,-2.3367,-2.2208,-2.0701,-1.972,-1.8827,-1.8827,-1.8743,-1.8566,-1.8481,-1.8295,-1.7916,-1.7721,-1.7621,-1.7426,-1.7333,-1.7333,-1.7333,-1.7333,-1.7333,-1.7333,-1.7333,-1.7333,-1.7333,-1.7333,-1.7333,-1.7333,-1.7333,-1.7333,-1.7333,-1.7333,-1.7333,-1.734,-1.7443,-1.756,-1.7743,-1.7947,-1.8291,-1.8606,-1.8767,-1.8957,-1.9199,-1.9042,-1.8729,-1.852,-1.822,-1.7905,-1.7799,-1.7589,-1.7589,-1.7589,-1.7589,-1.7589,-1.7589,-1.7589,-1.7589,-1.7589,-1.7589,-1.7589,-1.7589,-1.7589,-1.7589,-1.7589,-1.7582,-1.7477,-1.7147,-1.6299,-1.5441,-1.4471,-1.3176,-1.21,-1.1126,-1.0692,-1.0692,-1.0692,-1.0692,-1.0692,-1.0692,-1.0692,-1.0692,-1.0692,-1.0692,-1.0692,-1.0692,-1.0692,-1.0692,-1.0692,-1.0692,-1.0692,-1.0692,-1.0692,-1.0692,-2.5895,-2.5895,-2.5895,-2.5895,-2.5895,-2.5895,-2.5895,-2.5895,-2.5906,-2.5738,-2.5475,-2.52,-2.4946,-2.454,-2.454,-2.455,-2.455,-2.455,-2.455,-2.455,-2.455,-2.455,-2.4272,-2.381,-2.2385,-2.123,-2.0167,-1.918,-1.8827,-1.8827,-1.8827,-1.8743,-1.8743,-1.8558,-1.8388,-1.8187,-1.79,-1.7621,-1.7426,-1.7333,-1.7333,-1.7333,-1.7333,-1.7333,-1.7333,-1.7333,-1.7333,-1.7333,-1.7333,-1.7333,-1.7333,-1.7333,-1.7333,-1.7333,-1.7333,-1.7399,-1.7501,-1.7721,-1.7911,-1.8255,-1.8635,-1.8796,-1.8957,-1.9133,-1.9264,-1.9264,-1.8952,-1.875,-1.8443,-1.8122,-1.7911,-1.7694,-1.7589,-1.7589,-1.7589,-1.7589,-1.7589,-1.7589,-1.7589,-1.7589,-1.7589,-1.7589,-1.7589,-1.7589,-1.7589,-1.7589,-1.7589,-1.7477,-1.6942,-1.6518,-1.6205,-1.5125,-1.3938,-1.297,-1.2001,-1.0911,-1.0692,-1.0692,-1.0692,-1.0692,-1.0692,-1.0692,-1.0692,-1.0692,-1.0692,-1.0692,-1.0692,-1.0692,-1.0692,-1.0692,-1.0692,-1.0692,-1.0692,-1.0692,-1.0692]},{"header":{"parameterUnit":"m.s-1","parameterCategory":1,"la1":31.0,"la2":29.5877,"lo1":-88.7671,"lo2":-86.6584,"dy":0.0162,"dx":0.0185,"nx":115,"ny":88,"refTime":"2023-07-04T12:00:00:Z","depth":0,"parameterNumber":3,"parameterNumberName":"V-component_of_WINDS"},"data":[0.0,0.0,0.0,0.0,0.0,0.0,0.0,0.0,0.0,0.0,0.0,0.0,0.0,0.0,0.0,0.0,0.0,0.0,0.0,0.0,0.0,0.0,0.0,0.0,0.0,0.0,0.0,0.0,0.0,0.0,0.0,0.0,0.0,0.0,0.0,0.0,0.0,0.0,0.0,0.0,0.0,0.0,0.0,0.0,0.0,0.0,0.0,0.0,0.0,0.0,0.0,0.0,0.0,0.0,0.0,0.0,0.0,0.0,0.0,0.0,0.0,0.0,0.0,0.0,0.0,0.0,0.0,0.0,0.0,0.0,0.0,0.0,0.0,0.0,0.0,0.0,0.0,0.0,0.0,0.0,0.0,0.0,0.0,0.0,0.0,0.0,0.0,0.0,0.0,0.0,0.0,0.0,0.0,0.0,0.0,0.0,0.0,0.0,0.0,0.0,0.0,0.0,0.0,0.0,0.0,0.0,0.0,0.0,0.0,0.0,0.0,0.0,0.0,0.0,0.0,0.0,0.0,0.0,0.0,0.0,0.0,0.0,0.0,0.0,0.0,0.0,0.0,0.0,0.0,0.0,0.0,0.0,0.0,0.0,0.0,0.0,0.0,0.0,0.0,0.0,0.0,0.0,0.0,0.0,0.0,0.0,0.0,0.0,0.0,0.0,0.0,0.0,0.0,0.0,0.0,0.0,0.0,0.0,0.0,0.0,0.0,0.0,0.0,0.0,0.0,0.0,0.0,0.0,0.0,0.0,0.0,0.0,0.0,0.0,0.0,0.0,0.0,0.0,0.0,0.0,0.0,0.0,0.0,0.0,0.0,0.0,0.0,0.0,0.0,0.0,0.0,0.0,0.0,0.0,0.0,0.0,0.0,0.0,0.0,0.0,0.0,0.0,0.0,0.0,0.0,0.0,0.0,0.0,0.0,0.0,0.0,0.0,0.0,0.0,0.0,0.0,0.0,0.0,0.0,0.0,0.0,0.0,0.0,0.0,0.0,0.0,0.0,0.0,0.0,0.0,0.0,0.0,0.0,0.0,0.0,0.0,0.0,0.0,0.0,0.0,0.0,0.0,0.0,0.0,0.0,0.0,0.0,0.0,0.0,0.0,0.0,0.0,0.0,0.0,0.0,0.0,0.0,0.0,0.0,0.0,0.0,0.0,0.0,0.0,0.0,0.0,0.0,0.0,0.0,0.0,0.0,0.0,0.0,0.0,0.0,0.0,0.0,0.0,0.0,0.0,0.0,0.0,0.0,0.0,0.0,0.0,0.0,0.0,0.0,0.0,0.0,0.0,0.0,0.0,0.0,0.0,0.0,0.0,0.0,0.0,0.0,0.0,0.0,0.0,0.0,0.0,0.0,0.0,0.0,0.0,0.0,0.0,0.0,0.0,0.0,0.0,0.0,0.0,0.0,0.0,0.0,0.0,0.0,0.0,0.0,0.0,0.0,0.0,0.0,0.0,0.0,0.0,0.0,0.0,0.0,0.0,0.0,0.0,0.0,0.0,0.0,0.0,0.0,0.0,0.0,0.0,0.0,0.0,0.0,0.0,0.0,0.0,0.0,0.0,0.0,0.0,0.0,0.0,0.0,0.0,0.0,0.0,0.0,0.0,0.0,0.0,0.0,0.0,0.0,0.0,0.0,0.0,0.0,0.0,0.0,0.0,0.0,0.0,0.0,0.0,0.0,0.0,0.0,0.0,0.0,0.0,0.0,0.0,0.0,0.0,0.0,0.0,0.0,0.0,0.0,0.0,0.0,0.0,0.0,0.0,0.0,0.0,0.0,0.0,0.0,0.0,0.0,0.0,0.0,0.0,0.0,0.0,0.0,0.0,0.0,0.0,0.0,0.0,0.0,0.0,0.0,0.0,0.0,0.0,0.0,0.0,0.0,0.0,0.0,0.0,0.0,0.0,0.0,0.0,0.0,0.0,0.0,0.0,0.0,0.0,0.0,0.0,0.0,0.0,0.0,0.0,0.0,0.0,0.0,0.0,0.0,0.0,0.0,0.0,0.0,0.0,0.0,0.0,0.0,0.0,0.0,0.0,0.0,0.0,0.0,0.0,0.0,0.0,0.0,0.0,0.0,0.0,0.0,0.0,0.0,0.0,0.0,0.0,0.0,0.0,0.0,0.0,0.0,0.0,0.0,0.0,0.0,0.0,0.0,0.0,0.0,0.0,0.0,0.0,0.0,0.0,0.0,0.0,0.0,0.0,0.0,0.0,0.0,0.0,0.0,0.0,0.0,0.0,0.0,0.0,0.0,0.0,0.0,0.0,0.0,0.0,0.0,0.0,0.0,0.0,0.0,0.0,0.0,0.0,0.0,0.0,0.0,0.0,0.0,0.0,0.0,0.0,0.0,0.0,0.0,0.0,0.0,0.0,0.0,0.0,0.0,0.0,0.0,0.0,0.0,0.0,0.0,0.0,0.0,0.0,0.0,0.0,0.0,0.0,0.0,0.0,0.0,0.0,0.0,0.0,0.0,0.0,0.0,0.0,0.0,0.0,0.0,0.0,0.0,0.0,0.0,0.0,0.0,0.0,0.0,0.0,0.0,0.0,0.0,0.0,0.0,0.0,0.0,0.0,0.0,0.0,0.0,0.0,0.0,0.0,0.0,0.0,0.0,0.0,0.0,0.0,0.0,0.0,0.0,0.0,0.0,0.0,0.0,0.0,0.0,0.0,0.0,0.0,0.0,0.0,0.0,0.0,0.0,0.0,0.0,0.0,0.0,0.0,0.0,0.0,0.0,0.0,0.0,0.0,0.0,0.0,0.0,0.0,0.0,0.0,0.0,0.0,0.0,0.0,0.0,0.0,0.0,0.0,0.0,0.0,0.0,0.0,0.0,0.0,0.0,0.0,0.0,0.0,0.0,0.0,0.0,0.0,0.0,0.0,0.0,0.0,0.0,0.0,0.0,0.0,0.0,0.0,0.0,0.0,0.0,0.0,0.0,0.0,0.0,0.0,0.0,0.0,0.0,0.0,0.0,0.0,0.0,0.0,0.0,0.0,0.0,0.0,0.0,0.0,0.0,0.0,0.0,0.0,0.0,0.0,0.0,0.0,0.0,0.0,0.0,0.0,0.0,0.0,0.0,0.0,0.0,0.0,0.0,0.0,0.0,0.0,0.0,0.0,0.0,0.0,0.0,0.0,0.0,0.0,0.0,0.0,0.0,0.0,0.0,0.0,0.0,0.0,0.0,0.0,0.0,0.0,0.0,0.0,0.0,0.0,0.0,0.0,0.0,0.0,0.0,0.0,0.0,0.0,0.0,0.0,0.0,0.0,0.0,0.0,0.0,0.0,0.0,0.0,0.0,0.0,0.0,0.0,0.0,0.0,0.0,0.0,0.0,0.0,0.0,0.0,0.0,0.0,0.0,0.0,0.0,0.0,0.0,0.0,0.0,0.0,0.0,0.0,0.0,0.0,0.0,0.0,0.0,0.0,0.0,0.0,0.0,0.0,0.0,0.0,0.0,0.0,0.0,0.0,0.0,0.0,0.0,0.0,0.0,0.0,0.0,0.0,0.0,0.0,0.0,0.0,0.0,0.0,0.0,0.0,0.0,0.0,0.0,0.0,0.0,0.0,0.0,0.0,0.0,0.0,0.0,0.0,0.0,0.0,0.0,0.0,0.0,0.0,0.0,0.0,0.0,0.0,0.0,0.0,0.0,0.0,0.0,0.0,0.0,0.0,0.0,0.0,0.0,0.0,0.0,0.0,0.0,0.0,0.0,0.0,0.0,0.0,0.0,0.0,0.0,0.0,0.0,0.0,0.0,0.0,0.0,0.0,0.0,0.0,0.0,0.0,0.0,0.0,0.0,0.0,0.0,0.0,0.0,0.0,0.0,0.0,0.0,0.0,0.0,0.0,0.0,0.0,0.0,0.0,0.0,0.0,0.0,0.0,0.0,0.0,0.0,0.0,0.0,0.0,0.0,0.0,0.0,0.0,0.0,0.0,0.0,0.0,0.0,0.0,0.0,0.0,0.0,0.0,0.0,0.0,0.0,0.0,0.0,0.0,0.0,0.0,0.0,0.0,0.0,0.0,0.0,0.0,0.0,0.0,0.0,0.0,0.0,0.0,0.0,0.0,0.0,0.0,0.0,0.0,0.0,0.0,0.0,0.0,0.0,0.0,0.0,0.0,0.0,0.0,0.0,0.0,0.0,0.0,0.0,0.0,0.0,0.0,0.0,0.0,0.0,0.0,0.0,0.0,0.0,0.0,0.0,0.0,0.0,0.0,0.0,0.0,0.0,0.0,0.0,0.0,0.0,0.0,-3.1731,0.0,0.0,0.0,0.0,0.0,0.0,0.0,0.0,0.0,0.0,0.0,0.0,0.0,0.0,0.0,0.0,0.0,0.0,0.0,0.0,0.0,0.0,0.0,0.0,0.0,0.0,0.0,0.0,0.0,0.0,0.0,0.0,0.0,0.0,0.0,0.0,0.0,0.0,0.0,0.0,0.0,0.0,0.0,0.0,0.0,0.0,0.0,0.0,0.0,0.0,0.0,0.0,0.0,0.0,0.0,0.0,0.0,0.0,0.0,0.0,0.0,0.0,0.0,0.0,0.0,0.0,0.0,0.0,0.0,0.0,0.0,0.0,0.0,0.0,0.0,0.0,0.0,0.0,0.0,0.0,0.0,0.0,0.0,0.0,0.0,0.0,0.0,0.0,0.0,0.0,0.0,0.0,0.0,0.0,0.0,0.0,0.0,0.0,0.0,0.0,0.0,0.0,0.0,0.0,0.0,0.0,0.0,0.0,0.0,0.0,-3.1376,-3.0885,-3.0948,-3.1004,-3.1004,0.0,0.0,0.0,0.0,0.0,0.0,0.0,0.0,0.0,0.0,0.0,0.0,0.0,0.0,0.0,0.0,0.0,0.0,0.0,0.0,0.0,0.0,0.0,0.0,0.0,0.0,0.0,0.0,0.0,0.0,0.0,0.0,0.0,0.0,0.0,0.0,0.0,0.0,0.0,0.0,0.0,0.0,0.0,0.0,0.0,0.0,0.0,0.0,0.0,0.0,0.0,0.0,0.0,0.0,0.0,0.0,0.0,0.0,0.0,0.0,0.0,0.0,0.0,0.0,0.0,0.0,0.0,0.0,0.0,0.0,0.0,0.0,0.0,0.0,0.0,0.0,0.0,0.0,0.0,0.0,0.0,0.0,0.0,0.0,0.0,0.0,0.0,0.0,0.0,0.0,0.0,0.0,0.0,0.0,0.0,0.0,0.0,0.0,0.0,0.0,0.0,0.0,0.0,0.0,0.0,0.0,0.0,0.0,0.0,0.0,0.0,0.0,-3.0274,-3.0359,-3.0359,0.0,0.0,0.0,0.0,0.0,0.0,0.0,0.0,0.0,0.0,0.0,0.0,0.0,0.0,0.0,0.0,0.0,0.0,0.0,0.0,0.0,0.0,0.0,0.0,0.0,0.0,0.0,0.0,0.0,0.0,0.0,0.0,0.0,0.0,0.0,0.0,0.0,0.0,0.0,0.0,0.0,0.0,0.0,0.0,0.0,0.0,0.0,0.0,0.0,0.0,0.0,0.0,0.0,0.0,0.0,0.0,0.0,0.0,0.0,0.0,0.0,0.0,0.0,0.0,0.0,0.0,0.0,0.0,0.0,0.0,0.0,0.0,0.0,0.0,0.0,0.0,0.0,0.0,0.0,0.0,0.0,0.0,0.0,0.0,0.0,0.0,0.0,0.0,0.0,0.0,0.0,0.0,0.0,0.0,0.0,0.0,0.0,0.0,0.0,0.0,0.0,0.0,0.0,0.0,0.0,0.0,0.0,0.0,0.0,0.0,-3.0601,-3.0231,-3.0189,0.0,-3.0248,0.0,0.0,0.0,0.0,0.0,0.0,0.0,0.0,0.0,0.0,0.0,0.0,0.0,0.0,0.0,0.0,0.0,0.0,0.0,0.0,0.0,0.0,0.0,0.0,0.0,0.0,0.0,0.0,0.0,0.0,0.0,0.0,0.0,0.0,0.0,0.0,0.0,0.0,0.0,0.0,0.0,0.0,0.0,0.0,0.0,0.0,0.0,0.0,0.0,0.0,0.0,0.0,0.0,0.0,0.0,0.0,0.0,0.0,0.0,0.0,0.0,0.0,0.0,0.0,0.0,0.0,0.0,0.0,0.0,0.0,0.0,0.0,0.0,0.0,0.0,0.0,0.0,0.0,0.0,0.0,0.0,0.0,0.0,0.0,0.0,0.0,0.0,0.0,0.0,0.0,0.0,0.0,0.0,0.0,0.0,0.0,0.0,0.0,0.0,0.0,0.0,0.0,0.0,0.0,0.0,0.0,0.0,0.0,0.0,0.0,-3.0156,-3.0033,-3.0076,-3.0103,0.0,0.0,0.0,0.0,0.0,0.0,0.0,0.0,0.0,0.0,0.0,0.0,0.0,0.0,0.0,0.0,0.0,0.0,0.0,0.0,0.0,0.0,0.0,0.0,0.0,0.0,0.0,0.0,0.0,0.0,0.0,0.0,0.0,0.0,0.0,0.0,0.0,0.0,0.0,0.0,0.0,0.0,0.0,0.0,0.0,0.0,0.0,0.0,0.0,0.0,0.0,0.0,0.0,0.0,0.0,0.0,0.0,0.0,0.0,0.0,0.0,0.0,0.0,0.0,0.0,0.0,0.0,0.0,0.0,0.0,0.0,0.0,0.0,0.0,0.0,0.0,0.0,0.0,0.0,0.0,0.0,0.0,0.0,0.0,0.0,0.0,0.0,0.0,0.0,0.0,0.0,0.0,0.0,0.0,0.0,0.0,0.0,0.0,0.0,0.0,0.0,0.0,0.0,0.0,0.0,0.0,0.0,0.0,0.0,0.0,-3.0027,-2.9842,-2.9918,-2.9946,-3.0017,-3.0119,0.0,0.0,0.0,0.0,0.0,0.0,0.0,0.0,0.0,0.0,0.0,0.0,0.0,0.0,0.0,0.0,0.0,0.0,0.0,0.0,0.0,0.0,0.0,0.0,0.0,0.0,0.0,0.0,0.0,0.0,0.0,0.0,0.0,0.0,0.0,0.0,0.0,0.0,0.0,0.0,0.0,0.0,0.0,0.0,0.0,0.0,0.0,0.0,0.0,0.0,0.0,0.0,0.0,0.0,0.0,0.0,0.0,0.0,0.0,0.0,0.0,0.0,0.0,0.0,0.0,0.0,0.0,0.0,0.0,0.0,0.0,0.0,0.0,0.0,0.0,0.0,0.0,0.0,0.0,0.0,0.0,0.0,0.0,0.0,0.0,0.0,0.0,0.0,0.0,0.0,0.0,0.0,0.0,0.0,0.0,0.0,0.0,0.0,0.0,0.0,0.0,0.0,0.0,0.0,0.0,0.0,0.0,0.0,-2.977,-2.9814,-2.9918,-2.9918,-2.9902,-2.9918,0.0,0.0,0.0,0.0,0.0,0.0,0.0,0.0,0.0,0.0,0.0,0.0,0.0,0.0,0.0,0.0,0.0,0.0,0.0,0.0,0.0,0.0,0.0,0.0,0.0,0.0,0.0,0.0,0.0,0.0,0.0,0.0,0.0,0.0,0.0,0.0,0.0,0.0,0.0,0.0,0.0,0.0,0.0,0.0,0.0,0.0,0.0,0.0,0.0,0.0,0.0,0.0,0.0,0.0,0.0,0.0,0.0,0.0,0.0,0.0,0.0,0.0,0.0,0.0,0.0,0.0,0.0,0.0,0.0,0.0,0.0,0.0,0.0,0.0,0.0,0.0,0.0,0.0,0.0,0.0,0.0,0.0,0.0,0.0,0.0,0.0,0.0,0.0,0.0,0.0,0.0,0.0,0.0,0.0,0.0,0.0,0.0,0.0,0.0,0.0,0.0,0.0,0.0,0.0,0.0,0.0,0.0,0.0,0.0,-2.983,-2.9874,-2.9874,-2.9786,-2.9874,-2.9918,0.0,0.0,0.0,0.0,0.0,0.0,0.0,0.0,0.0,0.0,0.0,0.0,0.0,0.0,0.0,0.0,0.0,0.0,0.0,0.0,0.0,0.0,0.0,0.0,0.0,0.0,0.0,0.0,0.0,0.0,0.0,0.0,0.0,0.0,0.0,0.0,0.0,0.0,0.0,0.0,0.0,0.0,0.0,0.0,0.0,0.0,0.0,0.0,0.0,0.0,0.0,0.0,0.0,0.0,0.0,0.0,0.0,0.0,0.0,0.0,0.0,0.0,0.0,0.0,0.0,0.0,0.0,0.0,0.0,0.0,0.0,0.0,0.0,0.0,0.0,0.0,0.0,0.0,0.0,0.0,0.0,0.0,0.0,0.0,0.0,0.0,0.0,0.0,0.0,0.0,0.0,0.0,0.0,0.0,0.0,0.0,0.0,0.0,0.0,0.0,0.0,0.0,0.0,0.0,0.0,0.0,0.0,0.0,0.0,-2.977,0.0,-2.9742,-2.9697,-2.983,-2.9918,0.0,0.0,0.0,0.0,0.0,0.0,0.0,0.0,0.0,0.0,0.0,0.0,0.0,0.0,0.0,0.0,0.0,0.0,0.0,0.0,0.0,0.0,0.0,0.0,0.0,0.0,0.0,0.0,0.0,0.0,0.0,0.0,0.0,0.0,0.0,0.0,0.0,0.0,0.0,0.0,0.0,0.0,0.0,0.0,0.0,0.0,0.0,0.0,0.0,0.0,0.0,0.0,0.0,0.0,0.0,0.0,0.0,0.0,0.0,0.0,0.0,0.0,0.0,0.0,0.0,0.0,0.0,0.0,0.0,0.0,0.0,0.0,0.0,0.0,0.0,0.0,0.0,0.0,0.0,0.0,0.0,0.0,0.0,0.0,0.0,0.0,0.0,0.0,0.0,0.0,0.0,0.0,0.0,0.0,0.0,0.0,0.0,0.0,0.0,0.0,0.0,0.0,0.0,0.0,0.0,0.0,0.0,0.0,-2.9637,-2.9518,-2.9518,-2.9579,-2.9681,-2.983,-2.9918,0.0,0.0,0.0,0.0,0.0,0.0,0.0,0.0,0.0,0.0,0.0,0.0,0.0,0.0,0.0,0.0,0.0,0.0,0.0,0.0,0.0,0.0,0.0,0.0,0.0,0.0,0.0,0.0,0.0,0.0,0.0,0.0,0.0,0.0,0.0,0.0,0.0,0.0,0.0,0.0,0.0,0.0,0.0,0.0,0.0,0.0,0.0,0.0,0.0,0.0,0.0,0.0,0.0,0.0,0.0,0.0,0.0,0.0,0.0,0.0,0.0,0.0,0.0,0.0,0.0,0.0,0.0,0.0,0.0,0.0,0.0,0.0,0.0,0.0,0.0,0.0,0.0,0.0,0.0,0.0,0.0,0.0,0.0,0.0,0.0,0.0,0.0,0.0,0.0,0.0,0.0,0.0,0.0,0.0,0.0,0.0,0.0,0.0,0.0,0.0,0.0,0.0,0.0,0.0,0.0,0.0,0.0,0.0,0.0,-2.9518,-2.9518,-2.9518,-2.9563,-2.9608,-2.9653,0.0,0.0,0.0,0.0,0.0,0.0,0.0,0.0,0.0,0.0,0.0,0.0,0.0,0.0,0.0,0.0,0.0,0.0,0.0,0.0,0.0,0.0,0.0,0.0,0.0,0.0,0.0,0.0,0.0,0.0,0.0,0.0,0.0,0.0,0.0,0.0,0.0,0.0,0.0,0.0,0.0,0.0,0.0,0.0,0.0,0.0,0.0,0.0,0.0,0.0,0.0,0.0,0.0,0.0,0.0,0.0,0.0,0.0,0.0,0.0,0.0,0.0,0.0,0.0,0.0,0.0,0.0,0.0,0.0,0.0,0.0,0.0,0.0,0.0,0.0,0.0,0.0,0.0,0.0,0.0,0.0,0.0,0.0,0.0,0.0,0.0,0.0,0.0,0.0,0.0,0.0,0.0,0.0,0.0,0.0,0.0,0.0,0.0,0.0,0.0,0.0,0.0,0.0,0.0,0.0,0.0,0.0,0.0,0.0,-3.01,-2.9699,-2.9555,-2.9826,-2.9617,-2.9691,-3.0068,0.0,0.0,0.0,0.0,0.0,0.0,0.0,0.0,0.0,0.0,0.0,0.0,0.0,0.0,0.0,0.0,0.0,0.0,0.0,0.0,0.0,0.0,0.0,0.0,0.0,0.0,0.0,0.0,0.0,0.0,0.0,0.0,0.0,0.0,0.0,0.0,0.0,0.0,0.0,0.0,0.0,0.0,0.0,0.0,0.0,0.0,0.0,0.0,0.0,0.0,0.0,0.0,0.0,0.0,0.0,0.0,0.0,0.0,0.0,0.0,0.0,0.0,0.0,0.0,0.0,0.0,0.0,0.0,0.0,0.0,0.0,0.0,0.0,0.0,0.0,0.0,0.0,0.0,0.0,0.0,0.0,0.0,0.0,0.0,0.0,0.0,0.0,0.0,0.0,0.0,0.0,0.0,0.0,0.0,0.0,0.0,0.0,0.0,0.0,0.0,0.0,0.0,0.0,0.0,0.0,0.0,0.0,0.0,-3.1207,-3.0022,-2.9766,-3.0418,-2.9922,-2.9934,0.0,0.0,0.0,0.0,0.0,0.0,0.0,0.0,0.0,0.0,0.0,0.0,0.0,0.0,0.0,0.0,0.0,0.0,0.0,0.0,0.0,0.0,0.0,0.0,0.0,0.0,0.0,0.0,0.0,0.0,0.0,0.0,0.0,0.0,0.0,0.0,0.0,0.0,0.0,0.0,0.0,0.0,0.0,0.0,0.0,0.0,0.0,0.0,0.0,0.0,0.0,0.0,0.0,0.0,0.0,0.0,0.0,0.0,0.0,0.0,0.0,0.0,0.0,0.0,0.0,0.0,0.0,0.0,0.0,0.0,0.0,0.0,0.0,0.0,0.0,0.0,0.0,0.0,0.0,0.0,0.0,0.0,0.0,0.0,0.0,0.0,0.0,0.0,0.0,0.0,0.0,0.0,0.0,0.0,0.0,0.0,0.0,0.0,0.0,0.0,0.0,0.0,0.0,0.0,0.0,0.0,0.0,0.0,0.0,-3.1191,-3.0844,-3.0798,-3.0987,-3.0813,-3.0959,0.0,0.0,0.0,0.0,0.0,0.0,0.0,0.0,0.0,0.0,0.0,0.0,0.0,0.0,0.0,0.0,0.0,0.0,0.0,0.0,0.0,0.0,0.0,0.0,0.0,0.0,0.0,0.0,0.0,0.0,0.0,0.0,0.0,0.0,0.0,0.0,0.0,0.0,0.0,0.0,0.0,0.0,0.0,0.0,0.0,0.0,0.0,0.0,0.0,0.0,0.0,0.0,0.0,0.0,0.0,0.0,0.0,0.0,0.0,0.0,0.0,0.0,0.0,0.0,0.0,0.0,0.0,0.0,0.0,0.0,0.0,0.0,0.0,0.0,0.0,0.0,0.0,0.0,0.0,0.0,0.0,0.0,0.0,0.0,0.0,0.0,0.0,0.0,0.0,0.0,0.0,0.0,0.0,0.0,0.0,0.0,0.0,0.0,0.0,0.0,0.0,0.0,0.0,0.0,0.0,0.0,0.0,0.0,-3.2092,-3.2108,-3.2092,-3.2092,-3.2092,-3.1507,-3.1433,0.0,0.0,0.0,0.0,0.0,0.0,0.0,0.0,0.0,0.0,0.0,0.0,0.0,0.0,0.0,0.0,0.0,0.0,0.0,0.0,0.0,0.0,0.0,0.0,0.0,0.0,0.0,0.0,0.0,0.0,0.0,0.0,0.0,0.0,0.0,0.0,0.0,0.0,0.0,0.0,0.0,0.0,0.0,0.0,0.0,0.0,0.0,0.0,0.0,0.0,0.0,0.0,0.0,0.0,0.0,0.0,0.0,0.0,0.0,0.0,0.0,0.0,0.0,0.0,0.0,0.0,0.0,0.0,0.0,0.0,0.0,0.0,0.0,0.0,0.0,0.0,0.0,0.0,0.0,0.0,0.0,0.0,0.0,0.0,0.0,0.0,0.0,0.0,0.0,0.0,0.0,0.0,0.0,0.0,0.0,0.0,0.0,0.0,0.0,0.0,0.0,0.0,0.0,0.0,0.0,0.0,0.0,0.0,-3.3293,-3.3293,-3.3293,-3.3293,-3.3261,-3.2092,-3.1813,0.0,0.0,0.0,0.0,0.0,0.0,0.0,0.0,0.0,0.0,0.0,0.0,0.0,0.0,0.0,0.0,0.0,0.0,0.0,0.0,0.0,0.0,0.0,0.0,0.0,0.0,0.0,0.0,0.0,0.0,0.0,0.0,0.0,0.0,0.0,0.0,0.0,0.0,0.0,0.0,0.0,0.0,0.0,0.0,0.0,0.0,0.0,0.0,0.0,0.0,0.0,0.0,0.0,0.0,0.0,0.0,0.0,0.0,0.0,0.0,0.0,0.0,0.0,0.0,0.0,0.0,0.0,0.0,0.0,0.0,0.0,0.0,0.0,0.0,0.0,0.0,0.0,0.0,0.0,0.0,0.0,0.0,0.0,0.0,0.0,0.0,0.0,0.0,0.0,0.0,0.0,0.0,0.0,0.0,0.0,0.0,0.0,0.0,0.0,0.0,0.0,0.0,0.0,0.0,0.0,0.0,0.0,0.0,-3.3293,-3.3293,-3.3293,-3.3293,-3.3293,-3.3024,-3.3085,0.0,0.0,0.0,0.0,0.0,0.0,0.0,0.0,0.0,0.0,0.0,0.0,0.0,0.0,0.0,0.0,0.0,0.0,0.0,0.0,0.0,0.0,0.0,0.0,0.0,0.0,0.0,0.0,0.0,0.0,0.0,0.0,0.0,0.0,0.0,0.0,0.0,0.0,0.0,0.0,0.0,0.0,0.0,0.0,0.0,0.0,0.0,0.0,-3.7334,0.0,0.0,0.0,0.0,0.0,0.0,0.0,0.0,0.0,0.0,0.0,0.0,0.0,0.0,0.0,0.0,0.0,0.0,0.0,0.0,0.0,0.0,0.0,0.0,0.0,0.0,0.0,0.0,0.0,0.0,0.0,0.0,0.0,0.0,0.0,0.0,0.0,0.0,0.0,0.0,0.0,0.0,0.0,0.0,0.0,0.0,0.0,0.0,0.0,0.0,0.0,0.0,0.0,0.0,0.0,0.0,0.0,0.0,0.0,-3.3293,-3.3293,-3.3293,-3.3293,-3.3293,-3.3293,-3.345,0.0,0.0,0.0,0.0,0.0,0.0,0.0,0.0,0.0,0.0,0.0,0.0,0.0,0.0,0.0,0.0,0.0,0.0,0.0,0.0,0.0,0.0,0.0,0.0,0.0,0.0,0.0,0.0,0.0,0.0,0.0,0.0,0.0,0.0,0.0,0.0,0.0,0.0,0.0,0.0,0.0,0.0,0.0,0.0,0.0,0.0,0.0,0.0,0.0,0.0,0.0,0.0,0.0,0.0,0.0,0.0,0.0,0.0,0.0,0.0,0.0,0.0,0.0,0.0,0.0,0.0,0.0,0.0,0.0,0.0,0.0,0.0,0.0,0.0,0.0,0.0,0.0,0.0,0.0,0.0,0.0,0.0,0.0,0.0,0.0,0.0,0.0,0.0,0.0,0.0,0.0,0.0,0.0,0.0,0.0,0.0,0.0,0.0,0.0,0.0,0.0,0.0,0.0,0.0,0.0,0.0,0.0,-3.3309,-3.3293,-3.3293,-3.3293,-3.3293,-3.3293,-3.3293,-3.3466,-3.371,0.0,0.0,0.0,0.0,0.0,0.0,0.0,0.0,0.0,0.0,0.0,0.0,0.0,0.0,0.0,0.0,0.0,0.0,0.0,0.0,0.0,0.0,0.0,0.0,0.0,0.0,0.0,0.0,0.0,0.0,0.0,0.0,0.0,0.0,0.0,0.0,0.0,0.0,-3.6878,-3.7091,0.0,0.0,0.0,0.0,0.0,0.0,0.0,0.0,-3.7164,0.0,0.0,0.0,0.0,0.0,0.0,0.0,0.0,0.0,0.0,0.0,0.0,0.0,0.0,0.0,0.0,0.0,0.0,0.0,0.0,0.0,0.0,0.0,0.0,0.0,0.0,0.0,0.0,0.0,0.0,0.0,0.0,0.0,0.0,0.0,0.0,0.0,0.0,0.0,0.0,0.0,0.0,0.0,0.0,0.0,0.0,0.0,0.0,0.0,0.0,0.0,0.0,0.0,0.0,0.0,0.0,-3.345,-3.3361,-3.3293,-3.3293,-3.3293,-3.3293,-3.3293,-3.3398,-3.3539,-3.3694,0.0,0.0,0.0,0.0,0.0,0.0,0.0,0.0,0.0,0.0,0.0,0.0,0.0,0.0,0.0,0.0,0.0,0.0,0.0,0.0,0.0,0.0,0.0,0.0,0.0,0.0,0.0,0.0,0.0,0.0,0.0,0.0,0.0,0.0,0.0,0.0,0.0,0.0,0.0,-3.6147,-3.6357,0.0,0.0,0.0,0.0,0.0,0.0,0.0,0.0,-3.7009,0.0,0.0,0.0,0.0,0.0,0.0,0.0,0.0,0.0,0.0,0.0,0.0,0.0,0.0,0.0,0.0,0.0,0.0,0.0,0.0,0.0,0.0,0.0,0.0,0.0,0.0,0.0,0.0,0.0,0.0,0.0,0.0,0.0,0.0,0.0,0.0,0.0,0.0,0.0,0.0,0.0,0.0,0.0,0.0,0.0,0.0,0.0,0.0,0.0,0.0,0.0,0.0,0.0,0.0,0.0,-3.3503,-3.345,-3.3346,-3.3293,-3.3293,-3.3361,-3.3398,-3.345,-3.3607,0.0,0.0,0.0,0.0,0.0,0.0,0.0,0.0,0.0,0.0,0.0,0.0,0.0,0.0,0.0,0.0,0.0,0.0,0.0,0.0,0.0,0.0,0.0,0.0,0.0,0.0,0.0,0.0,0.0,0.0,0.0,0.0,0.0,0.0,0.0,0.0,0.0,0.0,0.0,0.0,-3.6037,-3.6207,-3.5715,0.0,0.0,0.0,0.0,0.0,0.0,-3.7009,-3.697,0.0,0.0,0.0,0.0,0.0,0.0,0.0,0.0,0.0,0.0,0.0,0.0,0.0,0.0,0.0,0.0,0.0,0.0,0.0,0.0,0.0,0.0,0.0,0.0,0.0,0.0,0.0,0.0,0.0,0.0,0.0,0.0,0.0,0.0,0.0,0.0,0.0,0.0,0.0,0.0,0.0,0.0,0.0,0.0,0.0,0.0,0.0,0.0,0.0,0.0,0.0,0.0,0.0,0.0,0.0,-3.3607,-3.3555,-3.3503,-3.3398,-3.3414,-3.345,-3.3555,-3.3555,-3.371,0.0,0.0,0.0,0.0,0.0,0.0,0.0,0.0,0.0,0.0,0.0,0.0,0.0,0.0,0.0,0.0,0.0,0.0,0.0,0.0,0.0,0.0,0.0,0.0,0.0,0.0,0.0,0.0,0.0,0.0,0.0,0.0,0.0,0.0,0.0,0.0,0.0,0.0,0.0,0.0,0.0,-3.6037,-3.5174,-3.6045,0.0,0.0,0.0,0.0,-3.7069,-3.7048,0.0,0.0,0.0,0.0,0.0,0.0,0.0,0.0,0.0,0.0,0.0,0.0,0.0,0.0,0.0,0.0,0.0,0.0,0.0,0.0,0.0,0.0,0.0,0.0,0.0,0.0,0.0,0.0,0.0,0.0,0.0,0.0,0.0,0.0,0.0,0.0,0.0,0.0,0.0,0.0,0.0,0.0,0.0,0.0,0.0,0.0,0.0,0.0,0.0,0.0,0.0,0.0,0.0,0.0,0.0,0.0,-3.3848,-3.3729,-3.3642,-3.3642,-3.3642,-3.3658,-3.371,-3.3797,-3.3848,0.0,0.0,0.0,0.0,0.0,0.0,0.0,0.0,0.0,0.0,0.0,0.0,0.0,0.0,0.0,0.0,0.0,0.0,0.0,0.0,0.0,0.0,0.0,0.0,0.0,0.0,0.0,0.0,0.0,0.0,0.0,0.0,0.0,0.0,0.0,0.0,0.0,0.0,0.0,0.0,0.0,-3.5283,-3.4675,-3.5144,-3.5644,0.0,0.0,-3.6249,-3.6913,-3.7027,0.0,0.0,0.0,0.0,0.0,0.0,0.0,0.0,0.0,0.0,0.0,0.0,0.0,0.0,0.0,0.0,0.0,0.0,0.0,0.0,0.0,0.0,0.0,0.0,0.0,0.0,0.0,0.0,0.0,0.0,0.0,0.0,0.0,0.0,0.0,0.0,0.0,0.0,0.0,0.0,0.0,0.0,0.0,0.0,0.0,0.0,0.0,0.0,0.0,0.0,0.0,0.0,0.0,0.0,0.0,-3.4,-3.3899,-3.3848,-3.3797,-3.3694,-3.3694,-3.3745,-3.3797,-3.3848,-3.3949,0.0,0.0,0.0,0.0,0.0,0.0,0.0,0.0,0.0,0.0,0.0,0.0,0.0,0.0,0.0,0.0,0.0,0.0,0.0,0.0,0.0,0.0,0.0,0.0,0.0,0.0,0.0,0.0,0.0,0.0,0.0,0.0,0.0,0.0,0.0,0.0,0.0,0.0,0.0,0.0,0.0,0.0,-3.4626,-3.5316,0.0,0.0,0.0,-3.5907,-3.6492,0.0,0.0,0.0,0.0,0.0,0.0,0.0,0.0,0.0,0.0,0.0,0.0,0.0,0.0,0.0,0.0,0.0,0.0,0.0,0.0,0.0,0.0,0.0,0.0,0.0,0.0,0.0,0.0,0.0,0.0,0.0,0.0,0.0,0.0,0.0,0.0,0.0,0.0,0.0,0.0,0.0,0.0,0.0,0.0,0.0,0.0,0.0,0.0,0.0,0.0,0.0,0.0,0.0,0.0,0.0,0.0,0.0,-3.3965,-3.3949,-3.3899,-3.3797,-3.3797,-3.3848,-3.3949,-3.3949,0.0,0.0,0.0,0.0,0.0,0.0,0.0,0.0,0.0,0.0,0.0,0.0,0.0,0.0,0.0,0.0,0.0,0.0,0.0,0.0,0.0,0.0,0.0,0.0,0.0,0.0,0.0,-3.7577,0.0,0.0,0.0,0.0,0.0,0.0,0.0,0.0,0.0,0.0,0.0,0.0,0.0,0.0,-3.5391,-3.4913,-3.5498,-3.5793,0.0,0.0,-3.5985,-3.6426,-3.6468,-3.6591,0.0,0.0,0.0,0.0,0.0,0.0,0.0,0.0,0.0,0.0,0.0,0.0,0.0,0.0,0.0,0.0,0.0,0.0,0.0,0.0,0.0,0.0,0.0,0.0,0.0,0.0,0.0,0.0,0.0,0.0,0.0,0.0,0.0,0.0,0.0,0.0,0.0,0.0,0.0,0.0,0.0,0.0,0.0,0.0,0.0,0.0,0.0,0.0,0.0,0.0,0.0,0.0,0.0,0.0,0.0,-3.4101,-3.4101,-3.405,-3.405,-3.405,-3.4101,-3.4101,-3.4101,-3.4151,0.0,0.0,0.0,0.0,0.0,0.0,0.0,0.0,0.0,0.0,0.0,0.0,0.0,0.0,0.0,0.0,0.0,0.0,0.0,0.0,0.0,0.0,0.0,0.0,0.0,0.0,0.0,0.0,0.0,0.0,0.0,0.0,0.0,0.0,0.0,0.0,0.0,0.0,0.0,0.0,0.0,-3.4849,-3.5605,-3.5345,-3.5345,0.0,0.0,-3.6585,-3.6908,-3.693,-3.697,-3.697,0.0,0.0,0.0,0.0,0.0,0.0,0.0,0.0,0.0,0.0,0.0,0.0,0.0,0.0,0.0,0.0,0.0,0.0,0.0,0.0,0.0,0.0,0.0,0.0,0.0,0.0,0.0,0.0,0.0,0.0,0.0,0.0,0.0,0.0,0.0,0.0,0.0,0.0,0.0,0.0,0.0,0.0,0.0,0.0,0.0,0.0,0.0,0.0,0.0,0.0,0.0,0.0,0.0,-3.4101,-3.4101,-3.4101,-3.4101,-3.4101,-3.4101,-3.4101,-3.4101,-3.4101,-3.4151,0.0,0.0,0.0,0.0,0.0,0.0,0.0,0.0,0.0,0.0,0.0,0.0,0.0,0.0,0.0,0.0,0.0,0.0,0.0,0.0,0.0,0.0,0.0,0.0,0.0,0.0,0.0,0.0,-3.7577,-3.7773,-3.8272,0.0,0.0,0.0,0.0,0.0,0.0,0.0,0.0,0.0,0.0,-3.5907,-3.5864,-3.5864,0.0,0.0,-3.5898,-3.6114,-3.6574,-3.6956,-3.7393,-3.7849,-3.8294,0.0,0.0,0.0,0.0,0.0,0.0,0.0,0.0,0.0,0.0,0.0,0.0,0.0,0.0,0.0,0.0,0.0,0.0,0.0,0.0,0.0,0.0,0.0,0.0,0.0,0.0,0.0,0.0,0.0,0.0,0.0,0.0,0.0,0.0,0.0,0.0,0.0,0.0,0.0,0.0,0.0,0.0,0.0,0.0,0.0,0.0,0.0,0.0,0.0,0.0,0.0,0.0,-3.4101,-3.4101,-3.4101,-3.4101,-3.4101,-3.4101,-3.4101,-3.4101,-3.4151,-3.4284,0.0,0.0,0.0,0.0,0.0,0.0,0.0,0.0,0.0,0.0,0.0,0.0,0.0,0.0,0.0,0.0,0.0,0.0,0.0,0.0,0.0,0.0,0.0,0.0,0.0,0.0,0.0,0.0,-3.8148,-3.8487,-3.9075,0.0,0.0,0.0,0.0,0.0,0.0,0.0,0.0,0.0,0.0,-3.6602,-3.6644,-3.653,-3.6419,-3.6388,-3.6191,-3.6139,-3.6533,-3.7182,-3.7853,-3.8369,0.0,0.0,0.0,0.0,0.0,0.0,0.0,0.0,0.0,0.0,0.0,0.0,0.0,0.0,0.0,0.0,0.0,0.0,0.0,0.0,0.0,0.0,0.0,0.0,0.0,0.0,0.0,0.0,0.0,0.0,-3.43,0.0,0.0,0.0,0.0,0.0,0.0,0.0,0.0,0.0,0.0,0.0,0.0,0.0,0.0,0.0,0.0,0.0,0.0,0.0,0.0,0.0,0.0,-3.4101,-3.4101,-3.4101,-3.4101,-3.4101,-3.4101,-3.4101,-3.4101,-3.425,-3.4561,-3.5191,0.0,0.0,0.0,0.0,0.0,0.0,0.0,0.0,0.0,0.0,0.0,0.0,0.0,0.0,0.0,0.0,0.0,0.0,0.0,0.0,0.0,0.0,0.0,0.0,0.0,0.0,-3.8701,-3.9414,-3.9807,0.0,0.0,0.0,0.0,0.0,0.0,0.0,0.0,0.0,0.0,-3.6392,-3.6728,-3.8188,-3.7266,-3.6876,-3.7998,-3.7484,-3.697,-3.697,-3.7699,-3.8272,0.0,0.0,0.0,0.0,0.0,0.0,0.0,0.0,0.0,0.0,0.0,0.0,0.0,0.0,0.0,0.0,0.0,0.0,0.0,0.0,0.0,0.0,0.0,0.0,0.0,0.0,0.0,-3.4101,-3.4101,0.0,0.0,0.0,0.0,0.0,0.0,0.0,0.0,0.0,0.0,0.0,-3.4643,-3.4691,0.0,0.0,0.0,0.0,0.0,0.0,0.0,0.0,0.0,0.0,0.0,0.0,-3.425,-3.425,-3.4151,-3.4151,-3.425,-3.425,-3.425,-3.4349,-3.469,-3.5191,-3.5776,0.0,0.0,0.0,0.0,0.0,0.0,0.0,0.0,0.0,0.0,0.0,0.0,0.0,0.0,0.0,0.0,0.0,0.0,0.0,0.0,0.0,0.0,0.0,0.0,0.0,-3.9312,0.0,0.0,0.0,0.0,0.0,0.0,0.0,0.0,0.0,0.0,0.0,-3.7362,-3.8043,-3.798,-3.8068,-3.849,-3.8178,-3.7835,0.0,0.0,0.0,0.0,0.0,0.0,0.0,0.0,0.0,0.0,0.0,0.0,0.0,0.0,-4.1163,-4.011,-3.9718,-3.9557,-3.9539,0.0,0.0,0.0,0.0,0.0,0.0,0.0,0.0,0.0,0.0,0.0,0.0,0.0,0.0,-3.4101,0.0,-3.4151,0.0,0.0,0.0,0.0,0.0,0.0,0.0,0.0,-3.4756,-3.4756,-3.4804,-3.4756,-3.4787,0.0,-3.4804,-3.4756,0.0,0.0,0.0,0.0,0.0,0.0,0.0,0.0,-3.4349,-3.4349,-3.448,-3.4496,-3.461,-3.4802,-3.488,-3.4975,-3.5476,-3.5916,-3.6392,-3.6563,-3.6701,0.0,0.0,0.0,0.0,0.0,0.0,0.0,0.0,0.0,0.0,0.0,0.0,0.0,0.0,0.0,0.0,0.0,0.0,0.0,0.0,0.0,0.0,0.0,-3.9636,0.0,0.0,0.0,0.0,0.0,0.0,0.0,0.0,0.0,-3.8076,-3.8023,-3.8308,-3.9093,-3.8968,-3.8859,-3.9014,0.0,0.0,0.0,0.0,0.0,0.0,0.0,-3.8525,-3.8696,-3.9316,-4.0032,-4.061,-4.1167,-4.1524,-4.1524,0.0,0.0,-4.0864,-4.056,-4.0363,-4.0402,-4.0226,-4.0068,-4.0161,-3.9871,-3.9636,0.0,0.0,0.0,0.0,0.0,0.0,0.0,0.0,-3.4101,-3.4101,0.0,-3.425,0.0,0.0,0.0,0.0,0.0,-3.4756,0.0,0.0,-3.4739,-3.4804,-3.4899,-3.4899,-3.4899,-3.4899,-3.4899,-3.4899,-3.4899,-3.4756,0.0,0.0,0.0,0.0,0.0,0.0,-3.4497,-3.4529,-3.4975,-3.522,-3.522,-3.5671,-3.5907,-3.595,-3.6422,-3.6746,-3.6956,-3.7337,-3.7577,-3.7577,-3.7577,0.0,0.0,0.0,0.0,0.0,0.0,0.0,0.0,0.0,0.0,0.0,0.0,0.0,0.0,0.0,0.0,0.0,0.0,0.0,0.0,-3.8995,0.0,0.0,0.0,0.0,0.0,0.0,0.0,0.0,0.0,0.0,-3.8915,-3.8861,-3.9111,-3.986,0.0,0.0,0.0,0.0,-3.7802,-3.8531,-3.794,-3.7385,-3.7403,-3.8099,-3.8655,-3.8655,0.0,0.0,-3.9968,-4.0063,-4.0208,-4.0155,-4.0249,-4.0684,-4.2113,-4.1644,-4.1217,-4.1258,-4.0721,-4.0327,-4.0255,-3.9733,-3.9247,-3.4,0.0,0.0,0.0,0.0,-3.4101,-3.4101,-3.4101,-3.4101,-3.4101,-3.4101,-3.425,0.0,0.0,0.0,0.0,0.0,0.0,-3.4835,-3.4899,-3.4851,-3.4835,-3.4899,-3.4899,-3.4899,-3.4899,-3.4899,-3.4899,-3.4899,-3.4835,-3.4787,-3.4787,0.0,0.0,0.0,0.0,-3.4818,-3.5115,-3.5191,-3.5402,-3.582,-3.595,-3.6207,-3.662,-3.6764,-3.7017,-3.7374,-3.754,-3.7577,-3.7577,-3.7577,0.0,0.0,0.0,0.0,0.0,0.0,0.0,0.0,0.0,0.0,0.0,0.0,0.0,0.0,0.0,0.0,0.0,0.0,0.0,-4.0113,-3.9427,-3.9265,0.0,0.0,0.0,0.0,0.0,0.0,0.0,0.0,0.0,-4.036,-3.995,-3.9878,0.0,0.0,-4.0521,-4.0717,-4.0321,-3.9929,-3.959,-3.932,0.0,-3.9139,-3.9355,-3.9536,-3.9536,-4.0196,-4.0753,-4.077,-4.0867,-4.0942,-4.0963,-4.0538,-4.038,-4.0849,-4.0757,-4.054,-4.0504,-4.0362,-4.0273,-4.031,-4.0093,-3.9894,-3.405,-3.4,-3.4034,-3.4101,-3.4101,-3.4101,-3.4101,-3.4101,-3.4101,-3.4151,-3.4201,-3.43,-3.4448,-3.4594,-3.4707,0.0,0.0,0.0,-3.4899,-3.4899,-3.4899,-3.4977,-3.5148,-3.5195,-3.527,-3.5391,-3.5391,-3.5407,-3.5391,-3.5391,-3.5391,-3.5391,0.0,0.0,-3.4883,-3.4787,-3.5008,-3.5481,-3.5537,-3.583,-3.6416,-3.658,-3.6838,-3.715,-3.7188,-3.7337,-3.7577,-3.7577,-3.7577,-3.7577,-3.7577,-3.7613,0.0,0.0,0.0,0.0,0.0,0.0,0.0,0.0,0.0,0.0,0.0,-3.9284,-3.9517,0.0,0.0,0.0,-4.0348,-4.042,-3.9589,-3.9283,0.0,0.0,0.0,0.0,0.0,0.0,0.0,-4.0459,-4.059,-4.0894,-4.1568,-4.1264,-4.1117,-4.1502,-4.1306,-4.1109,-4.1109,0.0,-4.0467,-4.0003,-3.9896,-3.9896,-3.9896,-3.9896,-3.9914,-3.9953,-4.0384,-4.0706,-4.0745,-4.0858,-4.0953,-4.0881,-4.0597,-4.0329,-4.042,-4.0384,-4.0311,-4.0329,-4.0329,-4.0329,-4.0438,-4.0149,-3.9932,-3.4101,-3.4101,-3.4101,-3.4101,-3.4101,-3.4101,-3.4101,-3.4101,-3.4101,-3.4184,-3.4349,-3.4464,-3.4611,-3.4739,-3.4883,0.0,-3.4899,-3.4947,-3.493,-3.4899,-3.4899,-3.5102,-3.5526,-3.5588,-3.5776,-3.613,-3.619,-3.6215,-3.6172,-3.6172,-3.6215,-3.6172,-3.5391,-3.5024,-3.5041,-3.5024,-3.5224,-3.5705,-3.6062,-3.6464,-3.6956,-3.7374,-3.7577,-3.7577,-3.7577,-3.7594,-3.7577,-3.7613,-3.7613,-3.7577,-3.7613,-3.7667,-3.7703,0.0,0.0,0.0,0.0,0.0,0.0,0.0,0.0,0.0,0.0,0.0,0.0,0.0,0.0,0.0,-3.9767,0.0,-3.8337,-3.892,0.0,0.0,0.0,-4.0381,-4.0399,-4.0453,-4.0759,-4.1423,0.0,0.0,-4.2519,-4.2609,-4.253,-4.2369,-4.1703,-4.1239,-4.1199,-4.0628,-4.011,-4.0217,-4.0146,-4.011,-4.0271,-4.0274,-4.0331,-4.0426,-4.0303,-4.0446,-4.0578,-4.0526,-4.0528,-4.0582,-4.0492,-4.051,-4.051,-4.0474,-4.051,-4.0474,-4.051,-4.051,-4.0456,-3.9967,-3.9478,-3.4101,-3.4101,-3.4101,-3.4101,-3.4101,-3.4101,-3.4151,-3.4234,-3.4234,-3.4349,-3.4448,-3.4594,-3.4756,-3.4883,-3.527,-3.5241,-3.4947,-3.527,-3.5241,-3.4899,-3.4899,-3.493,-3.5071,-3.5436,-3.5661,-3.5749,-3.6045,-3.6215,-3.6215,-3.6215,-3.6215,-3.619,-3.5977,-3.589,-3.589,-3.589,-3.6147,-3.658,-3.6684,-3.6939,-3.7411,-3.754,-3.7577,-3.7577,-3.7577,-3.7577,-3.7613,-3.7649,-3.7649,-3.7613,-3.7739,-3.7775,-3.7703,-3.781,0.0,0.0,0.0,0.0,0.0,0.0,0.0,0.0,0.0,-3.9425,-3.9481,0.0,-3.9352,0.0,-3.9081,-3.9315,-3.9134,-3.9715,0.0,0.0,-4.0762,-4.1173,-4.1266,-4.1807,-4.224,-4.2286,-4.2418,-4.249,-4.2591,-4.2609,-4.257,-4.2512,-4.2368,-4.2221,-4.2159,-4.2034,-4.1832,-4.1739,-4.1761,-4.189,-4.1819,-4.1934,-4.192,-4.1995,-4.1995,-4.1995,-4.2034,-4.1625,-4.1286,-4.125,-4.0836,-4.0564,-4.0546,-4.051,-4.0528,-4.051,-4.051,-4.051,-4.0492,-3.993,-3.9405,-3.4101,-3.4101,-3.4101,-3.4101,-3.4101,-3.4101,-3.4151,-3.4201,-3.43,-3.4399,-3.4513,-3.4691,-3.4851,-3.4883,-3.5148,-3.5148,-3.4947,-3.5165,-3.5148,-3.4899,-3.4899,-3.5102,-3.5481,-3.5732,-3.6079,-3.6498,-3.6741,-3.6821,-3.6821,-3.6803,-3.6803,-3.6821,-3.6821,-3.6821,-3.6821,-3.6381,-3.644,-3.69,-3.7129,-3.7319,-3.7577,-3.7577,-3.7577,-3.7577,-3.7577,-3.7613,-3.7631,-3.7667,-3.7721,-3.7739,-3.7828,-3.7881,-3.7845,-3.7898,-3.7967,0.0,0.0,0.0,0.0,0.0,0.0,0.0,0.0,0.0,0.0,0.0,-3.8826,-3.863,-3.9388,-3.9894,-3.9894,-4.0565,-4.098,-4.1017,-4.1648,-4.208,-4.2155,-4.2571,-4.2786,-4.2747,-4.2804,-4.2804,-4.2747,-4.2747,-4.2747,-4.2747,-4.2747,-4.2688,-4.2588,-4.2566,-4.2508,-4.245,-4.2508,-4.2566,-4.2548,-4.257,-4.2609,-4.2688,-4.2688,-4.2688,-4.2709,-4.2443,-4.2173,-4.2137,-4.1831,-4.156,-4.156,-4.156,-4.156,-4.1578,-4.1578,-4.1307,-4.0655,-4.0184,-3.9894,-3.4101,-3.4101,-3.4101,-3.4101,-3.4101,-3.4101,-3.4151,-3.4151,-3.43,-3.4399,-3.4546,-3.4804,-3.4899,-3.4899,-3.4947,-3.493,-3.4899,-3.5024,-3.5024,-3.4977,-3.5008,-3.5481,-3.6172,-3.6256,-3.6724,-3.7485,-3.7577,-3.7577,-3.7577,-3.7577,-3.7577,-3.7577,-3.7577,-3.7577,-3.7577,-3.6781,-3.6563,-3.6978,-3.7411,-3.7577,-3.7577,-3.7577,-3.7577,-3.7577,-3.7613,-3.7649,-3.7703,-3.7739,-3.7792,-3.7899,-3.7917,-3.7969,-3.7984,-3.8018,-3.8036,0.0,-3.8036,0.0,0.0,0.0,0.0,0.0,0.0,0.0,0.0,-3.8282,-3.8663,-3.946,-4.0238,-4.0673,-4.0673,-4.1397,-4.1868,-4.1886,-4.2466,-4.29,-4.2882,-4.29,-4.29,-4.29,-4.29,-4.29,-4.29,-4.29,-4.29,-4.29,-4.29,-4.2824,-4.267,-4.2649,-4.2609,-4.2609,-4.2609,-4.2609,-4.2649,-4.2631,-4.2688,-4.2783,-4.2822,-4.2842,-4.2844,-4.2882,-4.2882,-4.2864,-4.281,-4.2828,-4.29,-4.2846,-4.2846,-4.2774,-4.2755,-4.2357,-4.127,-4.0782,-4.0673,-3.4101,-3.4101,-3.4101,-3.4101,-3.4101,-3.4201,-3.43,-3.4448,-3.4562,-3.4691,-3.4835,-3.4899,-3.4899,-3.4947,-3.5333,-3.527,-3.4947,-3.5644,-3.5776,-3.5498,-3.582,-3.6062,-3.6232,-3.6603,-3.6843,-3.7073,-3.7411,-3.7577,-3.7577,-3.7577,-3.7577,-3.7577,-3.7577,-3.7577,-3.7577,0.0,0.0,0.0,-3.7522,-3.7577,-3.7577,-3.7577,-3.7577,-3.7577,-3.7649,0.0,-3.7703,-3.7845,-3.7933,-3.7899,-3.8038,0.0,0.0,0.0,0.0,0.0,0.0,0.0,0.0,0.0,0.0,0.0,-3.8192,-3.8192,-3.821,-3.8771,-3.9496,-4.0238,-4.1035,-4.1488,-4.1488,-4.2194,-4.2683,-4.2683,-4.281,-4.29,-4.29,-4.29,-4.29,-4.29,-4.29,-4.29,-4.29,-4.29,-4.29,-4.29,-4.29,-4.2882,-4.2862,-4.2804,-4.2745,-4.2609,-4.2688,-4.2765,-4.2824,-4.2806,-4.2806,-4.29,-4.29,-4.2882,-4.2846,-4.2864,-4.2882,-4.2882,-4.29,-4.29,-4.29,-4.29,-4.29,-4.29,-4.29,-4.2792,-4.2484,-4.1922,-4.1488,-3.4101,0.0,-3.4101,-3.4167,0.0,-3.4349,-3.4448,-3.4611,-3.4691,-3.4787,-3.4899,-3.4899,-3.4899,-3.4947,-3.5407,-3.5453,-3.527,-3.589,-3.6105,-3.5907,-3.6105,-3.6316,-3.6563,-3.6764,-3.7052,-3.7243,-3.7503,-3.7577,-3.7577,-3.7577,-3.7577,-3.7577,-3.7577,-3.7577,-3.7577,-3.7577,-3.7577,-3.7577,-3.7577,-3.7577,-3.7577,-3.7577,-3.7613,-3.7649,-3.7685,0.0,0.0,0.0,0.0,0.0,0.0,0.0,0.0,0.0,0.0,-3.8192,-3.8192,-3.8192,-3.8192,-3.8192,-3.8192,-3.821,-3.8554,-3.8771,-3.8771,-3.9858,-4.0691,-4.1089,-4.1832,-4.2285,-4.2321,-4.2647,-4.29,-4.29,-4.29,-4.29,-4.29,-4.29,-4.29,-4.29,-4.29,-4.29,-4.29,-4.29,-4.29,-4.29,-4.29,-4.29,-4.29,-4.2862,-4.2842,-4.2747,-4.2786,-4.288,-4.2882,-4.29,-4.2719,-4.2429,-4.2303,-4.2303,-4.2303,-4.2321,-4.2411,-4.2774,-4.29,-4.29,-4.29,-4.29,-4.29,-4.29,-4.29,-4.29,-4.2882,-4.2574,-4.2303,-3.4489,-3.4489,-3.4489,-3.459,-3.4691,-3.4824,-3.4972,-3.5119,0.0,0.0,0.0,-3.4977,-3.5041,-3.5055,-3.5481,-3.5688,-3.5732,-3.6165,-3.6298,-3.634,-3.6399,-3.6643,-3.7017,-3.7034,-3.7226,-3.7577,-3.7577,-3.7577,-3.7577,-3.7577,-3.7577,-3.7577,-3.7577,-3.7577,-3.7577,-3.7577,-3.7613,-3.7631,-3.7577,-3.7577,-3.7613,-3.7631,-3.7649,-3.7739,-3.7739,-3.7845,-3.7984,-3.8036,-3.807,-3.8192,-3.8192,-3.8192,-3.8192,-3.8192,-3.8192,-3.8192,-3.8192,-3.8192,-3.8192,-3.8192,-3.8192,-3.8192,-3.9061,-3.9586,-3.9586,-4.0908,-4.1778,-4.1904,-4.252,-4.29,-4.29,-4.29,-4.29,-4.29,-4.29,-4.29,-4.29,-4.29,-4.29,-4.29,-4.29,-4.29,-4.29,-4.29,-4.29,-4.29,-4.29,-4.29,-4.29,-4.29,-4.29,-4.29,-4.29,-4.29,-4.29,-4.29,-4.2629,-4.2158,-4.2013,-4.1922,-4.194,-4.1922,-4.2176,-4.2774,-4.2882,-4.29,-4.29,-4.29,-4.29,-4.29,-4.29,-4.29,-4.29,-4.29,-4.2884,-3.5979,-3.6011,-3.5995,-3.6084,-3.6225,-3.6329,-3.6534,-3.6638,-3.5446,-3.4899,-3.4947,-3.5316,-3.5498,-3.5543,-3.5933,-3.6105,-3.6147,-3.6603,-3.6821,-3.6821,-3.7188,-3.7449,-3.7485,-3.7485,-3.754,-3.7594,-3.7594,-3.7577,-3.7577,-3.7594,-3.7577,-3.7594,-3.7577,-3.7577,-3.7577,-3.7577,-3.7613,-3.7667,-3.7649,-3.7613,-3.7667,-3.7667,-3.7757,-3.7864,-3.7933,-3.7984,-3.8018,-3.8122,-3.8174,-3.8192,-3.8192,-3.8192,-3.8192,-3.8192,-3.8192,-3.8192,-3.8192,-3.8192,-3.8192,-3.8192,-3.8192,-3.8264,-3.9532,-4.0365,-4.0383,-4.118,-4.1995,-4.2629,-4.2828,-4.29,-4.29,-4.29,-4.29,-4.29,-4.29,-4.29,-4.29,-4.29,-4.29,-4.29,-4.29,-4.29,-4.29,-4.29,-4.29,-4.29,-4.29,-4.29,-4.29,-4.29,-4.29,-4.29,-4.29,-4.29,-4.29,-4.29,-4.2774,-4.2755,-4.2629,-4.2538,-4.2538,-4.252,-4.2611,-4.2864,-4.29,-4.29,-4.29,-4.29,-4.29,-4.29,-4.29,-4.29,-4.29,-4.292,-4.3032,-3.6303,-3.6303,-3.6393,-3.6607,-3.7019,-3.7481,-3.7787,-3.7831,-3.7216,-3.6726,-3.6491,-3.6709,-3.6939,-3.7254,-3.7689,-3.7875,-3.7917,-3.8325,-3.8522,-3.8539,-3.8768,-3.8861,-3.8843,-3.8843,-3.8843,-3.8843,-3.8843,-3.8843,-3.8826,-3.8451,-3.8237,-3.8219,-3.7882,-3.7631,-3.7631,-3.7739,-3.7775,-3.781,-3.7721,-3.7721,-3.781,-3.7792,-3.7846,-3.7951,-3.8002,-3.8036,-3.8088,-3.8174,-3.8192,-3.8192,-3.8192,-3.8192,-3.8192,-3.8192,-3.8192,-3.8192,-3.8192,-3.8192,-3.8192,-3.8192,-3.8192,-3.8246,-3.9623,-4.051,-4.051,-4.1633,-4.2502,-4.2864,-4.29,-4.29,-4.29,-4.29,-4.29,-4.29,-4.29,-4.29,-4.29,-4.29,-4.29,-4.29,-4.29,-4.29,-4.29,-4.29,-4.29,-4.29,-4.29,-4.29,-4.29,-4.29,-4.29,-4.29,-4.29,-4.29,-4.29,-4.29,-4.2719,-4.2339,-4.2248,-4.2248,-4.2248,-4.2266,-4.2466,-4.281,-4.29,-4.29,-4.29,-4.29,-4.29,-4.29,-4.29,-4.29,-4.292,-4.3142,-4.344,-3.6788,-3.6772,-3.7045,-3.7516,-3.8147,-3.8826,-3.9116,-3.9116,-3.9116,-3.8917,-3.8636,-3.8299,-3.8373,-3.879,-3.9252,-3.9435,-3.9476,-3.9757,-3.9896,-3.9896,-3.9896,-3.9896,-3.9896,-3.9896,-3.9896,-3.9896,-3.9896,-3.9914,-3.9881,-3.9381,-3.9113,-3.9062,-3.8384,-3.8026,-3.8026,-3.7935,-3.7899,-3.7916,-3.7846,-3.7828,-3.7934,-3.7916,-3.7951,-3.8036,-3.8018,-3.8088,-3.8192,-3.8192,-3.8192,-3.8192,-3.8192,-3.8192,-3.8192,-3.8192,-3.8192,-3.8192,-3.8192,-3.8192,-3.8192,-3.8192,-3.8192,-3.8228,-3.9623,-4.051,-4.0619,-4.1959,-4.29,-4.29,-4.29,-4.29,-4.29,-4.29,-4.29,-4.29,-4.29,-4.29,-4.29,-4.29,-4.29,-4.29,-4.29,-4.29,-4.29,-4.29,-4.29,-4.29,-4.29,-4.29,-4.29,-4.29,-4.29,-4.29,-4.29,-4.29,-4.29,-4.29,-4.2665,-4.2049,-4.2049,-4.214,-4.2103,-4.2049,-4.2194,-4.2774,-4.29,-4.29,-4.29,-4.29,-4.2938,-4.2938,-4.2995,-4.3069,-4.3213,-4.3605,-4.3912,-3.8181,-3.8309,-3.878,-3.9581,-4.0271,-4.0496,-4.0573,-4.0573,-4.0578,-4.081,-4.0919,-3.9781,-3.9221,-3.9311,-3.9731,-3.9925,-3.9907,-3.9875,-3.995,-3.9968,-3.9914,-3.9914,-3.9985,-3.995,-3.9914,-3.9968,-3.9985,-4.0113,-4.0229,-4.005,-4.0016,-4.0056,-3.9373,-3.8978,-3.8924,-3.8276,-3.7934,-3.7984,-3.8002,-3.7984,-3.7984,-3.8002,-3.8054,-3.8174,-3.8192,-3.8192,-3.8192,-3.8192,-3.8192,-3.8192,-3.8192,-3.8192,-3.8192,-3.8192,-3.8192,-3.8192,-3.8192,-3.8192,-3.8192,-3.8192,-3.8192,-3.8282,-3.9604,-4.0492,-4.0564,-4.1959,-4.2882,-4.29,-4.29,-4.29,-4.29,-4.29,-4.29,-4.29,-4.29,-4.29,-4.29,-4.29,-4.29,-4.29,-4.29,-4.29,-4.29,-4.29,-4.29,-4.29,-4.29,-4.29,-4.29,-4.29,-4.29,-4.29,-4.29,-4.29,-4.29,-4.29,-4.2828,-4.2737,-4.2755,-4.2701,-4.2647,-4.2683,-4.2828,-4.2829,-4.2938,-4.2938,-4.2938,-4.29,-4.2975,-4.3123,-4.3267,-4.3456,-4.3799,-4.4106,-4.4252,-3.8391,-3.8504,-3.9189,-4.0136,-4.1094,-4.1534,-4.1683,-4.1683,-4.1683,-4.1831,-4.1888,-4.1328,-4.1079,-4.1079,-4.1225,-4.1324,-4.1324,-4.1324,-4.1306,-4.1324,-4.1324,-4.1306,-4.1324,-4.1324,-4.1381,-4.1421,-4.1421,-4.1483,-4.1471,-4.1076,-4.0666,-4.0309,-3.9986,-3.986,-3.9824,-3.9138,-3.8776,-3.8828,-3.8375,-3.8122,-3.8122,-3.8122,-3.8122,-3.8192,-3.8192,-3.8192,-3.8192,-3.8192,-3.8192,-3.8192,-3.8192,-3.8192,-3.8192,-3.8192,-3.8192,-3.8192,-3.8192,-3.8192,-3.8192,-3.8192,-3.8192,-3.8192,-3.9206,-4.0021,-4.051,-4.1542,-4.2375,-4.281,-4.29,-4.29,-4.29,-4.29,-4.29,-4.29,-4.29,-4.29,-4.29,-4.29,-4.29,-4.29,-4.29,-4.29,-4.29,-4.29,-4.29,-4.29,-4.29,-4.29,-4.29,-4.29,-4.29,-4.2882,-4.2956,-4.2994,-4.2938,-4.29,-4.29,-4.29,-4.29,-4.29,-4.292,-4.2994,-4.2994,-4.2994,-4.3031,-4.305,-4.3087,-4.3087,-4.316,-4.3391,-4.3656,-4.3937,-4.429,-4.4447,-4.4572,-3.8391,-3.8544,-3.9385,-4.0414,-4.1472,-4.2044,-4.2287,-4.2287,-4.2287,-4.2287,-4.2287,-4.2287,-4.2287,-4.2287,-4.2287,-4.2287,-4.2287,-4.2287,-4.2287,-4.2287,-4.2287,-4.2287,-4.2287,-4.2287,-4.2346,-4.2463,-4.2486,-4.2548,-4.2595,-4.2129,-4.1555,-4.105,-4.0853,-4.0763,-4.0673,-4.0058,-3.9695,-3.9659,-3.9115,-3.8826,-3.8844,-3.8826,-3.8735,-3.8536,-3.8518,-3.8608,-3.8808,-3.8826,-3.8826,-3.8826,-3.8826,-3.8826,-3.8826,-3.8645,-3.8427,-3.821,-3.8192,-3.8282,-3.8482,-3.8518,-3.8608,-3.8862,-3.9586,-4.0256,-4.0836,-4.1578,-4.2266,-4.2792,-4.29,-4.29,-4.29,-4.29,-4.29,-4.29,-4.29,-4.29,-4.29,-4.2938,-4.2956,-4.2938,-4.2975,-4.2975,-4.2938,-4.2938,-4.29,-4.29,-4.2938,-4.2956,-4.2956,-4.2975,-4.2995,-4.3013,-4.3068,-4.3086,-4.2975,-4.2975,-4.2975,-4.2957,-4.3013,-4.3013,-4.2957,-4.3068,-4.3123,-4.3105,-4.3178,-4.3196,-4.3196,-4.3232,-4.3493,-4.3849,-4.4136,-4.4392,-4.4701,-4.4745,-4.4862,-3.8391,-3.8583,-3.9749,-4.0621,-4.1348,-4.2002,-4.2287,-4.2287,-4.2287,-4.2287,-4.2287,-4.2287,-4.2287,-4.2287,-4.2287,-4.2287,-4.2287,-4.2287,-4.2287,-4.2287,-4.2287,-4.2287,-4.2287,-4.2287,-4.2387,-4.2503,-4.2562,-4.2624,-4.2783,-4.2826,-4.2828,-4.2719,-4.1958,-4.1632,-4.1523,-4.0836,-4.0474,-4.0456,-4.0311,-4.0329,-4.0347,-4.0329,-3.9985,-3.9478,-3.9333,-3.9641,-4.0238,-4.0365,-4.0365,-4.0383,-4.0311,-4.0329,-4.0311,-3.9695,-3.9025,-3.8391,-3.8264,-3.8572,-3.9224,-3.9333,-3.9586,-4.0293,-4.0908,-4.1542,-4.156,-4.2194,-4.2665,-4.29,-4.29,-4.29,-4.29,-4.29,-4.29,-4.29,-4.29,-4.29,-4.292,-4.3012,-4.3049,-4.3104,-4.3105,-4.3142,-4.3086,-4.2975,-4.2938,-4.2938,-4.2994,-4.3104,-4.3086,-4.3142,-4.316,-4.316,-4.3178,-4.3178,-4.3123,-4.3105,-4.316,-4.316,-4.3123,-4.316,-4.316,-4.3196,-4.3214,-4.3214,-4.3232,-4.3268,-4.325,-4.3526,-4.3943,-4.4299,-4.4584,-4.4852,-4.5019,-4.5065,-4.5129,-3.8711,-3.9206,-3.968,-4.0463,-4.1428,-4.1709,-4.2002,-4.2287,-4.2287,-4.2287,-4.2287,-4.2287,-4.2287,-4.2287,-4.2287,-4.2287,-4.2287,-4.2287,-4.2287,-4.2287,-4.2287,-4.2287,-4.2287,-4.2387,-4.2486,-4.2548,-4.2645,-4.2745,-4.2824,-4.2882,-4.29,-4.2864,-4.2629,-4.2466,-4.2321,-4.1669,-4.1252,-4.1234,-4.0818,-4.051,-4.0546,-4.051,-4.06,-4.0854,-4.0383,-4.0238,-4.0492,-4.051,-4.051,-4.051,-4.051,-4.051,-4.0492,-4.0256,-4.0003,-3.9713,-3.9677,-3.9804,-4.0057,-4.0093,-4.0202,-4.0474,-4.0763,-4.127,-4.1596,-4.1995,-4.2339,-4.2755,-4.29,-4.29,-4.29,-4.29,-4.29,-4.29,-4.2994,-4.3012,-4.3049,-4.3123,-4.316,-4.3196,-4.3178,-4.316,-4.3178,-4.3142,-4.3087,-4.3087,-4.3142,-4.316,-4.316,-4.3178,-4.3214,-4.3214,-4.3251,-4.3305,-4.3323,-4.3233,-4.3214,-4.3214,-4.3214,-4.3196,-4.3196,-4.3286,-4.3286,-4.3322,-4.3322,-4.3495,-4.3579,-4.4016,-4.4438,-4.4624,-4.4905,-4.5099,-4.5254,-4.5385,-4.5347,-3.875,-3.9259,-3.9506,-4.0235,-4.1202,-4.1428,-4.1813,-4.2287,-4.2287,-4.2287,-4.2287,-4.2287,-4.2287,-4.2287,-4.2287,-4.2287,-4.2287,-4.2287,-4.2287,-4.2287,-4.2287,-4.2346,-4.2387,-4.2463,-4.2566,-4.2649,-4.2765,-4.288,-4.2882,-4.29,-4.29,-4.29,-4.29,-4.29,-4.2792,-4.2357,-4.2103,-4.1977,-4.1542,-4.1289,-4.1289,-4.127,-4.1524,-4.1922,-4.1542,-4.127,-4.1289,-4.127,-4.127,-4.1289,-4.1289,-4.1162,-4.0944,-4.0908,-4.0763,-4.0546,-4.0492,-4.0637,-4.0872,-4.0908,-4.1017,-4.127,-4.1307,-4.156,-4.2049,-4.2103,-4.2375,-4.2755,-4.29,-4.29,-4.2938,-4.2938,-4.2956,-4.2994,-4.3049,-4.3086,-4.3123,-4.3214,-4.3286,-4.3286,-4.3286,-4.3251,-4.3251,-4.3214,-4.3214,-4.3214,-4.3232,-4.3251,-4.3251,-4.3286,-4.3322,-4.3322,-4.3376,-4.3411,-4.3411,-4.3358,-4.3322,-4.3322,-4.3322,-4.3268,-4.3268,-4.3358,-4.3393,-4.3428,-4.3548,-4.373,-4.4072,-4.4511,-4.4764,-4.4929,-4.5103,-4.529,-4.5507,-4.5755,-4.5927,-3.8504,-3.8711,-3.9312,-4.0003,-4.072,-4.1248,-4.177,-4.2246,-4.2287,-4.2287,-4.2287,-4.2287,-4.2287,-4.2287,-4.2287,-4.2287,-4.2287,-4.2287,-4.2287,-4.2287,-4.2287,-4.2346,-4.2463,-4.2486,-4.2624,-4.2783,-4.288,-4.29,-4.29,-4.29,-4.29,-4.29,-4.29,-4.29,-4.29,-4.281,-4.281,-4.2774,-4.2665,-4.2719,-4.2882,-4.2719,-4.2701,-4.281,-4.2737,-4.2701,-4.2755,-4.2774,-4.2683,-4.2737,-4.2737,-4.2466,-4.1814,-4.1723,-4.1397,-4.0854,-4.0637,-4.0981,-4.1578,-4.1723,-4.2031,-4.2466,-4.2774,-4.2665,-4.2701,-4.2755,-4.281,-4.2864,-4.29,-4.2956,-4.3049,-4.3067,-4.3086,-4.3104,-4.3104,-4.3178,-4.3233,-4.3305,-4.3411,-4.3463,-4.3428,-4.3376,-4.3376,-4.3286,-4.3232,-4.3286,-4.3322,-4.3376,-4.3376,-4.3428,-4.3497,-4.3479,-4.3463,-4.3463,-4.3497,-4.3479,-4.3479,-4.3479,-4.3444,-4.3444,-4.341,-4.3463,-4.3463,-4.3479,-4.3712,-4.3918,-4.4299,-4.4739,-4.5124,-4.53,-4.5407,-4.5755,-4.6214,-4.6596,-4.6863,-3.8616,-3.8766,-3.9061,-3.9817,-4.0689,-4.0926,-4.149,-4.2287,-4.2287,-4.2287,-4.2287,-4.2287,-4.2287,-4.2287,-4.2287,-4.2287,-4.2287,-4.2287,-4.2287,-4.2287,-4.2287,-4.2346,-4.2387,-4.2508,-4.2649,-4.2824,-4.29,-4.29,-4.29,-4.29,-4.29,-4.29,-4.29,-4.29,-4.29,-4.29,-4.29,-4.29,-4.29,-4.29,-4.29,-4.29,-4.29,-4.29,-4.29,-4.29,-4.29,-4.29,-4.29,-4.29,-4.29,-4.2774,-4.2574,-4.252,-4.2393,-4.2194,-4.214,-4.223,-4.2448,-4.2502,-4.2592,-4.2846,-4.29,-4.29,-4.29,-4.29,-4.29,-4.29,-4.29,-4.2938,-4.3049,-4.3104,-4.3141,-4.3142,-4.3233,-4.3323,-4.334,-4.3393,-4.3463,-4.3497,-4.3497,-4.3463,-4.3463,-4.3428,-4.341,-4.3428,-4.3463,-4.3463,-4.3497,-4.3532,-4.3479,-4.3479,-4.3479,-4.3513,-4.3479,-4.3479,-4.3479,-4.3479,-4.3479,-4.3479,-4.3479,-4.3582,-4.3548,-4.3679,-4.3918,-4.424,-4.461,-4.5019,-4.5452,-4.5881,-4.6173,-4.6653,-4.7207,-4.7532,-4.7742,-3.8672,-3.8805,-3.8969,-3.9731,-4.0754,-4.0802,-4.1373,-4.2246,-4.2287,-4.2287,-4.2287,-4.2287,-4.2287,-4.2287,-4.2287,-4.2287,-4.2287,-4.2287,-4.2287,-4.2287,-4.2287,-4.2328,-4.2387,-4.257,-4.2765,-4.2862,-4.29,-4.29,-4.29,-4.29,-4.29,-4.29,-4.29,-4.29,-4.29,-4.29,-4.29,-4.29,-4.29,-4.29,-4.29,-4.29,-4.29,-4.29,-4.29,-4.29,-4.29,-4.29,-4.29,-4.29,-4.29,-4.29,-4.29,-4.2882,-4.29,-4.29,-4.2882,-4.2882,-4.29,-4.2846,-4.29,-4.29,-4.29,-4.29,-4.29,-4.29,-4.29,-4.29,-4.2956,-4.3031,-4.3123,-4.3215,-4.3233,-4.3322,-4.3376,-4.3411,-4.3446,-4.3463,-4.3497,-4.3479,-4.3479,-4.3479,-4.3497,-4.3667,-4.3682,-4.3682,-4.3682,-4.3682,-4.3664,-4.3682,-4.3649,-4.3615,-4.3649,-4.3615,-4.3513,-4.3479,-4.3479,-4.3479,-4.3479,-4.3479,-4.3479,-4.3682,-4.3763,-4.4023,-4.4242,-4.4795,-4.5192,-4.5597,-4.602,-4.6443,-4.7035,-4.7474,-4.7971,-4.8239,-4.8487,-3.8711,-3.8805,-3.8969,-3.9662,-4.0659,-4.0754,-4.1311,-4.2145,-4.2287,-4.2287,-4.2287,-4.2287,-4.2287,-4.2287,-4.2287,-4.2287,-4.2287,-4.2287,-4.2287,-4.2287,-4.2287,-4.2346,-4.2526,-4.2667,-4.2822,-4.29,-4.29,-4.29,-4.29,-4.29,-4.29,-4.29,-4.29,-4.29,-4.29,-4.29,-4.29,-4.29,-4.29,-4.29,-4.29,-4.29,-4.29,-4.29,-4.29,-4.29,-4.29,-4.29,-4.29,-4.29,-4.29,-4.29,-4.29,-4.29,-4.29,-4.29,-4.29,-4.29,-4.29,-4.29,-4.29,-4.29,-4.29,-4.29,-4.29,-4.29,-4.29,-4.29,-4.2994,-4.3123,-4.3178,-4.3305,-4.3411,-4.3463,-4.3446,-4.3428,-4.3479,-4.3479,-4.3513,-4.3566,-4.3532,-4.3513,-4.3582,-4.3828,-4.3955,-4.3974,-4.3986,-4.3999,-4.3999,-4.3968,-4.386,-4.386,-4.3905,-4.3905,-4.3823,-4.3823,-4.3823,-4.3823,-4.3777,-4.3749,-4.3716,-4.3878,-4.4326,-4.4533,-4.4847,-4.5351,-4.5903,-4.6393,-4.694,-4.757,-4.8028,-4.8372,-4.8678,-4.9003,-4.9175,-3.875,-3.8805,-3.9094,-3.9592,-4.0252,-4.0594,-4.1111,-4.1709,-4.2127,-4.2228,-4.2287,-4.2287,-4.2287,-4.2287,-4.2287,-4.2287,-4.2287,-4.2287,-4.2287,-4.2287,-4.2287,-4.2409,-4.2548,-4.2609,-4.2765,-4.2882,-4.29,-4.29,-4.29,-4.29,-4.29,-4.29,-4.29,-4.29,-4.29,-4.29,-4.29,-4.29,-4.29,-4.29,-4.29,-4.29,-4.29,-4.29,-4.29,-4.29,-4.29,-4.29,-4.29,-4.29,-4.29,-4.29,-4.29,-4.29,-4.29,-4.29,-4.29,-4.29,-4.29,-4.29,-4.29,-4.29,-4.29,-4.29,-4.29,-4.29,-4.29,-4.2938,-4.3012,-4.3123,-4.3233,-4.334,-4.3411,-4.3497,-4.3463,-4.3463,-4.3497,-4.3479,-4.3582,-4.3795,-4.3828,-4.386,-4.3923,-4.4072,-4.4221,-4.4121,-4.4181,-4.4308,-4.4289,-4.4289,-4.4202,-4.4231,-4.426,-4.4231,-4.4213,-4.4184,-4.4184,-4.4231,-4.4221,-4.4207,-4.4177,-4.4226,-4.4853,-4.5406,-4.5691,-4.6163,-4.6858,-4.7452,-4.8067,-4.8582,-4.8812,-4.906,-4.9576,-4.9939,-4.9882,-3.875,-3.8805,-3.904,-3.9487,-4.0003,-4.0334,-4.0737,-4.1248,-4.1709,-4.1941,-4.2002,-4.2228,-4.2287,-4.2287,-4.2287,-4.2287,-4.2287,-4.2287,-4.2287,-4.2346,-4.2346,-4.2468,-4.257,-4.2609,-4.2709,-4.2882,-4.29,-4.29,-4.29,-4.29,-4.29,-4.29,-4.29,-4.29,-4.29,-4.29,-4.29,-4.29,-4.29,-4.29,-4.29,-4.29,-4.29,-4.29,-4.29,-4.29,-4.29,-4.29,-4.29,-4.29,-4.29,-4.29,-4.29,-4.29,-4.29,-4.29,-4.29,-4.29,-4.29,-4.29,-4.29,-4.29,-4.29,-4.29,-4.29,-4.29,-4.29,-4.2938,-4.3049,-4.3123,-4.3214,-4.3322,-4.3428,-4.3479,-4.3479,-4.3479,-4.3479,-4.3615,-4.3781,-4.3974,-4.4109,-4.4162,-4.4181,-4.4383,-4.4438,-4.443,-4.4484,-4.4546,-4.4572,-4.4572,-4.4546,-4.4519,-4.4538,-4.4493,-4.4411,-4.4383,-4.4524,-4.4551,-4.513,-4.5011,-4.5124,-4.5124,-4.5715,-4.6391,-4.663,-4.7044,-4.7827,-4.8449,-4.8812,-4.9213,-4.9442,-4.9691,-5.0111,-5.0302,-5.0302,-3.8655,-3.8805,-3.8969,-3.9365,-3.9868,-4.0003,-4.0302,-4.0737,-4.1202,-4.1445,-4.1534,-4.2002,-4.2145,-4.2228,-4.2228,-4.2287,-4.2287,-4.2287,-4.2287,-4.2346,-4.2405,-4.2508,-4.2609,-4.2649,-4.2747,-4.29,-4.29,-4.29,-4.29,-4.29,-4.29,-4.29,-4.29,-4.29,-4.29,-4.29,-4.29,-4.29,-4.29,-4.29,-4.29,-4.29,-4.29,-4.29,-4.29,-4.29,-4.29,-4.29,-4.29,-4.29,-4.29,-4.29,-4.29,-4.29,-4.29,-4.29,-4.29,-4.29,-4.29,-4.29,-4.29,-4.29,-4.29,-4.29,-4.29,-4.29,-4.29,-4.29,-4.3031,-4.3178,-4.3339,-4.3463,-4.3513,-4.3582,-4.3582,-4.3548,-4.3615,-4.3814,-4.4005,-4.4048,-4.4279,-4.443,-4.4493,-4.4669,-4.4819,-4.4624,-4.4745,-4.4862,-4.4887,-4.4887,-4.4795,-4.4695,-4.472,-4.477,-4.4669,-4.4565,-4.4742,-4.4964,-4.5937,-4.6285,-4.655,-4.667,-4.7001,-4.7381,-4.7666,-4.8185,-4.8919,-4.9404,-4.9595,-4.9748,-4.992,-5.0092,-5.0302,-5.0302,-5.0302,-3.8655,-3.8805,-3.8914,-3.9185,-3.9504,-3.9833,-4.0053,-4.0203,-4.0737,-4.0926,-4.1065,-4.1445,-4.1683,-4.1709,-4.2044,-4.2287,-4.2287,-4.2287,-4.2287,-4.2346,-4.2445,-4.2508,-4.2609,-4.2706,-4.2804,-4.29,-4.29,-4.29,-4.29,-4.29,-4.29,-4.29,-4.29,-4.29,-4.29,-4.29,-4.29,-4.29,-4.29,-4.29,-4.29,-4.29,-4.29,-4.29,-4.29,-4.29,-4.29,-4.29,-4.29,-4.29,-4.29,-4.29,-4.29,-4.29,-4.29,-4.29,-4.29,-4.29,-4.29,-4.29,-4.29,-4.29,-4.29,-4.29,-4.29,-4.29,-4.29,-4.2938,-4.305,-4.3339,-4.3664,-4.3582,-4.3664,-4.3814,-4.3892,-4.3892,-4.391,-4.3974,-4.4121,-4.4318,-4.4546,-4.4701,-4.4745,-4.4976,-4.5023,-4.4891,-4.4957,-4.5151,-4.5192,-4.5151,-4.5179,-4.5081,-4.52,-4.5342,-4.5603,-4.5526,-4.5659,-4.593,-4.6749,-4.7395,-4.7662,-4.7971,-4.817,-4.8422,-4.8713,-4.9289,-4.9729,-4.992,-5.0015,-5.0206,-5.0302,-5.0302,-5.0302,-5.0302,-5.0302,-3.86,-3.8805,-3.8843,-3.904,-3.9325,-3.9556,-3.9696,-3.9782,-4.0203,-4.04,-4.0546,-4.0972,-4.1174,-4.1202,-4.1683,-4.1917,-4.2002,-4.2187,-4.2287,-4.2328,-4.2468,-4.2548,-4.2649,-4.2765,-4.2862,-4.29,-4.29,-4.29,-4.29,-4.29,-4.29,-4.29,-4.29,-4.29,-4.29,-4.29,-4.29,-4.29,-4.29,-4.29,-4.29,-4.29,-4.29,-4.29,-4.29,-4.29,-4.29,-4.29,-4.29,-4.29,-4.29,-4.29,-4.29,-4.29,-4.29,-4.29,-4.29,-4.29,-4.29,-4.29,-4.29,-4.29,-4.29,-4.29,-4.29,-4.29,-4.29,-4.2938,-4.3105,-4.3358,-4.3809,-4.386,-4.3892,-4.4102,-4.4192,-4.4192,-4.4192,-4.4289,-4.4402,-4.4599,-4.4843,-4.5,-4.5109,-4.5235,-4.5273,-4.5144,-4.5144,-4.5314,-4.5275,-4.5292,-4.5638,-4.5668,-4.5827,-4.6058,-4.6478,-4.6644,-4.6793,-4.7175,-4.7747,-4.8251,-4.8556,-4.8884,-4.919,-4.9366,-4.95,-4.971,-5.0092,-5.0264,-5.0302,-5.0302,-5.0302,-5.0302,-5.0302,-5.0302,-5.0302,-3.856,-3.8805,-3.8805,-3.8985,-3.9272,-3.9342,-3.9325,-3.9362,-3.9731,-3.9935,-4.002,-4.0449,-4.0659,-4.0784,-4.1157,-4.1383,-4.1534,-4.1899,-4.2103,-4.2086,-4.2432,-4.257,-4.2631,-4.2768,-4.29,-4.29,-4.29,-4.29,-4.29,-4.29,-4.29,-4.29,-4.29,-4.29,-4.29,-4.29,-4.29,-4.29,-4.29,-4.29,-4.29,-4.29,-4.29,-4.29,-4.29,-4.29,-4.29,-4.29,-4.29,-4.29,-4.29,-4.29,-4.29,-4.29,-4.29,-4.29,-4.29,-4.29,-4.29,-4.29,-4.29,-4.29,-4.29,-4.29,-4.29,-4.29,-4.29,-4.2938,-4.3068,-4.3339,-4.3726,-4.3892,-4.4091,-4.4318,-4.4411,-4.4465,-4.4493,-4.4701,-4.4819,-4.4819,-4.4981,-4.5173,-4.5216,-4.5297,-4.5354,-4.5449,-4.5468,-4.5526,-4.5564,-4.5736,-4.6214,-4.6481,-4.6653,-4.671,-4.7073,-4.7685,-4.7837,-4.8124,-4.8678,-4.9022,-4.9328,-4.9557,-4.9786,-4.9996,-5.0168,-5.0264,-5.0264,-5.0283,-5.0302,-5.0302,-5.0302,-5.0302,-5.0302,-5.0302,-5.0302,-3.856,-3.8805,-3.8805,-3.8985,-3.9272,-3.9288,-3.9288,-3.9325,-3.9415,-3.9415,-3.9504,-3.9919,-4.0153,-4.0252,-4.0689,-4.0896,-4.1082,-4.1445,-4.1666,-4.1796,-4.2192,-4.2512,-4.2649,-4.2786,-4.29,-4.29,-4.29,-4.29,-4.29,-4.29,-4.29,-4.29,-4.29,-4.29,-4.29,-4.29,-4.29,-4.29,-4.29,-4.29,-4.29,-4.29,-4.29,-4.29,-4.29,-4.29,-4.29,-4.29,-4.29,-4.29,-4.29,-4.29,-4.29,-4.29,-4.29,-4.29,-4.29,-4.29,-4.29,-4.29,-4.29,-4.29,-4.29,-4.29,-4.29,-4.29,-4.29,-4.2975,-4.3087,-4.3356,-4.374,-4.3923,-4.4121,-4.4327,-4.4572,-4.4701,-4.4751,-4.501,-4.5179,-4.5105,-4.5246,-4.5392,-4.5526,-4.5736,-4.6023,-4.6233,-4.6328,-4.6577,-4.6806,-4.6978,-4.7302,-4.7474,-4.757,-4.7589,-4.7685,-4.8391,-4.885,-4.8965,-4.9366,-4.971,-4.9977,-5.0111,-5.0302,-5.0302,-5.0302,-5.0283,-5.0283,-5.0302,-5.0302,-5.0302,-5.0302,-5.0302,-5.0302,-5.0302,-5.0302,-3.8504,-3.8711,-3.8766,-3.8931,-3.9148,-3.9272,-3.9288,-3.9288,-3.9288,-3.9288,-3.9379,-3.9556,-3.9644,-3.9782,-4.0153,-4.0514,-4.0802,-4.0972,-4.1248,-4.1578,-4.1924,-4.2333,-4.257,-4.2765,-4.2862,-4.29,-4.29,-4.29,-4.29,-4.29,-4.29,-4.29,-4.29,-4.29,-4.29,-4.29,-4.29,-4.29,-4.29,-4.29,-4.29,-4.29,-4.29,-4.29,-4.29,-4.29,-4.29,-4.29,-4.29,-4.29,-4.29,-4.29,-4.29,-4.29,-4.29,-4.29,-4.29,-4.29,-4.29,-4.29,-4.29,-4.29,-4.29,-4.29,-4.29,-4.29,-4.2956,-4.3031,-4.3123,-4.3356,-4.374,-4.3905,-4.4121,-4.4374,-4.4624,-4.4751,-4.4981,-4.551,-4.5643,-4.5654,-4.5957,-4.6137,-4.6118,-4.6385,-4.6768,-4.6978,-4.715,-4.7513,-4.7933,-4.8067,-4.822,-4.8468,-4.8582,-4.8735,-4.8716,-4.9079,-4.9519,-4.9671,-4.9824,-5.0168,-5.0302,-5.0302,-5.0302,-5.0302,-5.0302,-5.0302,-5.0302,-5.0302,-5.0302,-5.0302,-5.0302,-5.0302,-5.0302,-5.0302,-5.0302,-3.8464,-3.8616,-3.875,-3.886,-3.9023,-3.9202,-3.9288,-3.9288,-3.9288,-3.9288,-3.9288,-3.9325,-3.9325,-3.9415,-3.9679,-4.007,-4.0514,-4.0563,-4.0832,-4.1139,-4.1604,-4.2026,-4.2333,-4.2688,-4.2804,-4.2862,-4.29,-4.29,-4.29,-4.29,-4.29,-4.29,-4.29,-4.29,-4.29,-4.29,-4.29,-4.29,-4.29,-4.29,-4.29,-4.29,-4.29,-4.29,-4.29,-4.29,-4.29,-4.29,-4.29,-4.29,-4.29,-4.29,-4.29,-4.29,-4.29,-4.29,-4.29,-4.29,-4.29,-4.29,-4.29,-4.29,-4.29,-4.29,-4.29,-4.29,-4.2938,-4.3031,-4.3142,-4.3304,-4.3594,-4.3841,-4.406,-4.4279,-4.4538,-4.4865,-4.528,-4.5803,-4.6393,-4.6527,-4.6803,-4.694,-4.6956,-4.7016,-4.7398,-4.7895,-4.8067,-4.8411,-4.8754,-4.8774,-4.8965,-4.9347,-4.9614,-4.9882,-4.992,-4.9786,-5.0015,-5.0034,-5.0073,-5.0245,-5.0302,-5.0302,-5.0302,-5.0302,-5.0302,-5.0302,-5.0302,-5.0302,-5.0302,-5.0302,-5.0302,-5.0302,-5.0302,-5.0302,-5.0302,-3.8448,-3.8616,-3.875,-3.886,-3.9023,-3.9202,-3.9288,-3.9288,-3.9288,-3.9288,-3.9288,-3.9288,-3.9288,-3.9325,-3.9379,-3.9468,-3.9609,-3.9935,-4.0203,-4.0463,-4.1139,-4.1648,-4.1941,-4.2512,-4.2745,-4.2842,-4.2882,-4.29,-4.29,-4.29,-4.29,-4.29,-4.29,-4.29,-4.29,-4.29,-4.29,-4.29,-4.29,-4.29,-4.29,-4.29,-4.29,-4.29,-4.29,-4.29,-4.29,-4.29,-4.29,-4.29,-4.29,-4.29,-4.29,-4.29,-4.29,-4.29,-4.29,-4.29,-4.29,-4.29,-4.29,-4.29,-4.29,-4.29,-4.29,-4.29,-4.2938,-4.292,-4.3087,-4.3232,-4.3426,-4.373,-4.3955,-4.4177,-4.4391,-4.5009,-4.5609,-4.6499,-4.7039,-4.7548,-4.7876,-4.7884,-4.7907,-4.793,-4.8028,-4.8544,-4.9022,-4.9328,-4.9519,-4.948,-4.95,-4.9824,-4.9958,-5.0206,-5.0302,-5.0302,-5.0302,-5.0302,-5.0302,-5.0302,-5.0302,-5.0302,-5.0302,-5.0302,-5.0302,-5.0302,-5.0302,-5.0302,-5.0302,-5.0302,-5.0302,-5.0302,-5.0302,-5.0302,-5.0302,-3.8464,-3.8504,-3.8672,-3.8766,-3.8914,-3.9077,-3.9202,-3.9272,-3.9288,-3.9288,-3.9288,-3.9288,-3.9288,-3.9288,-3.9288,-3.9342,-3.9379,-3.9556,-3.9765,-3.9935,-4.0559,-4.1122,-4.1735,-4.2151,-4.2414,-4.2804,-4.2862,-4.29,-4.29,-4.29,-4.29,-4.29,-4.29,-4.29,-4.29,-4.29,-4.29,-4.29,-4.29,-4.29,-4.29,-4.29,-4.29,-4.29,-4.29,-4.29,-4.29,-4.29,-4.29,-4.29,-4.29,-4.29,-4.29,-4.29,-4.29,-4.29,-4.29,-4.29,-4.29,-4.29,-4.29,-4.29,-4.29,-4.29,-4.29,-4.29,-4.2938,-4.2994,-4.3142,-4.3214,-4.3322,-4.3548,-4.3649,-4.3869,-4.4371,-4.5021,-4.5914,-4.714,-4.7922,-4.8454,-4.889,-4.8867,-4.8876,-4.8999,-4.9037,-4.9328,-4.9633,-4.9805,-4.9958,-4.9996,-5.0054,-5.0168,-5.0225,-5.0283,-5.0302,-5.0302,-5.0302,-5.0302,-5.0302,-5.0302,-5.0302,-5.0302,-5.0302,-5.0302,-5.0302,-5.0302,-5.0302,-5.0302,-5.0302,-5.0302,-5.0302,-5.0302,-5.0302,-5.0302,-5.0302,-3.8391,-3.8408,-3.8576,-3.8672,-3.8805,-3.8952,-3.9094,-3.9272,-3.9288,-3.9288,-3.9288,-3.9288,-3.9288,-3.9288,-3.9288,-3.9288,-3.9342,-3.9288,-3.9504,-3.9714,-4.0036,-4.0559,-4.1185,-4.1604,-4.2133,-4.2691,-4.2824,-4.2862,-4.29,-4.29,-4.29,-4.29,-4.29,-4.29,-4.29,-4.29,-4.29,-4.29,-4.29,-4.29,-4.29,-4.29,-4.29,-4.29,-4.29,-4.29,-4.29,-4.29,-4.29,-4.29,-4.29,-4.29,-4.29,-4.29,-4.29,-4.29,-4.29,-4.29,-4.29,-4.29,-4.29,-4.29,-4.29,-4.2938,-4.2938,-4.2938,-4.2975,-4.3123,-4.3233,-4.3305,-4.3376,-4.3481,-4.3716,-4.4076,-4.4561,-4.5138,-4.589,-4.7218,-4.8388,-4.9022,-4.9448,-4.9801,-4.9868,-5.0064,-5.0164,-5.0225,-5.0302,-5.0302,-5.0302,-5.0302,-5.0302,-5.0302,-5.0302,-5.0302,-5.0302,-5.0302,-5.0302,-5.0302,-5.0302,-5.0302,-5.0302,-5.0302,-5.0302,-5.0302,-5.0302,-5.0302,-5.0302,-5.0302,-5.0302,-5.0302,-5.0302,-5.0302,-5.0302,-5.0302,-5.0302,-3.8391,-3.8391,-3.8576,-3.8655,-3.8821,-3.8952,-3.9077,-3.9288,-3.9288,-3.9288,-3.9288,-3.9288,-3.9288,-3.9288,-3.9288,-3.9288,-3.9288,-3.9288,-3.9362,-3.9487,-3.9765,-4.0103,-4.0559,-4.1185,-4.1753,-4.205,-4.2436,-4.2729,-4.2882,-4.2882,-4.2882,-4.29,-4.29,-4.29,-4.29,-4.29,-4.29,-4.29,-4.29,-4.29,-4.29,-4.29,-4.29,-4.29,-4.29,-4.29,-4.29,-4.29,-4.29,-4.29,-4.29,-4.29,-4.29,-4.29,-4.29,-4.29,-4.29,-4.29,-4.29,-4.29,-4.29,-4.29,-4.2938,-4.2994,-4.3049,-4.3049,-4.3123,-4.3178,-4.3305,-4.3376,-4.3411,-4.352,-4.3956,-4.4413,-4.5033,-4.5803,-4.6561,-4.746,-4.8577,-4.9465,-4.9846,-4.991,-5.0051,-5.0051,-5.0236,-5.0259,-5.0302,-5.0302,-5.0302,-5.0302,-5.0302,-5.0302,-5.0302,-5.0302,-5.0302,-5.0302,-5.0302,-5.0302,-5.0302,-5.0302,-5.0302,-5.0302,-5.0302,-5.0302,-5.0302,-5.0302,-5.0302,-5.0302,-5.0302,-5.0302,-5.0302,-5.0302,-5.0302,-5.0302,-5.0302,-3.8391,-3.8408,-3.8448,-3.8616,-3.8805,-3.8843,-3.9023,-3.9272,-3.9288,-3.9288,-3.9288,-3.9288,-3.9288,-3.9288,-3.9288,-3.9288,-3.9288,-3.9288,-3.9288,-3.9325,-3.9504,-3.9765,-4.0186,-4.0559,-4.103,-4.1543,-4.2074,-4.2396,-4.2476,-4.2768,-4.2882,-4.29,-4.29,-4.29,-4.29,-4.29,-4.29,-4.29,-4.29,-4.29,-4.29,-4.29,-4.29,-4.29,-4.29,-4.29,-4.29,-4.29,-4.29,-4.29,-4.29,-4.29,-4.29,-4.29,-4.29,-4.29,-4.29,-4.29,-4.29,-4.29,-4.29,-4.2938,-4.2994,-4.3049,-4.3104,-4.3123,-4.3196,-4.3305,-4.3359,-4.3429,-4.3518,-4.3921,-4.447,-4.4874,-4.5534,-4.6415,-4.72,-4.8006,-4.8436,-4.9159,-4.9435,-4.957,-4.9702,-4.983,-5.0051,-5.0236,-5.0259,-5.0302,-5.0302,-5.0302,-5.0302,-5.0302,-5.0302,-5.0302,-5.0302,-5.0302,-5.0302,-5.0302,-5.0302,-5.0302,-5.0302,-5.0302,-5.0302,-5.0302,-5.0302,-5.0302,-5.0302,-5.0302,-5.0302,-5.0302,-5.0302,-5.0302,-5.0302,-5.0302,-5.0302,-3.8391,-3.8391,-3.8391,-3.8544,-3.875,-3.8805,-3.8969,-3.9218,-3.9272,-3.9288,-3.9288,-3.9288,-3.9288,-3.9288,-3.9288,-3.9288,-3.9288,-3.9288,-3.9288,-3.9325,-3.9362,-3.9556,-3.9868,-4.0186,-4.0607,-4.115,-4.1656,-4.2032,-4.2494,-4.2729,-4.2862,-4.29,-4.29,-4.29,-4.29,-4.29,-4.29,-4.29,-4.29,-4.29,-4.29,-4.29,-4.29,-4.29,-4.29,-4.29,-4.29,-4.29,-4.29,-4.29,-4.29,-4.29,-4.29,-4.29,-4.29,-4.29,-4.29,-4.29,-4.29,-4.29,-4.29,-4.2938,-4.2938,-4.3049,-4.3104,-4.316,-4.3196,-4.3359,-4.3394,-4.3503,-4.3736,-4.4342,-4.5112,-4.5626,-4.6214,-4.6985,-4.761,-4.8287,-4.8435,-4.8746,-4.9015,-4.9424,-4.9702,-4.9903,-5.0051,-5.0236,-5.0259,-5.0302,-5.0302,-5.0302,-5.0302,-5.0302,-5.0302,-5.0302,-5.0302,-5.0302,-5.0302,-5.0302,-5.0302,-5.0302,-5.0302,-5.0302,-5.0302,-5.0302,-5.0302,-5.0302,-5.0302,-5.0302,-5.0302,-5.0302,-5.0302,-5.0302,-5.0302,-5.0302,-5.0302,-3.8391,-3.8391,-3.8391,-3.8464,-3.8616,-3.8766,-3.886,-3.904,-3.9218,-3.9288,-3.9288,-3.9288,-3.9288,-3.9288,-3.9288,-3.9288,-3.9288,-3.9288,-3.9288,-3.9288,-3.9342,-3.9379,-3.9504,-3.9817,-4.0203,-4.0874,-4.1393,-4.1948,-4.2609,-4.2765,-4.2842,-4.2862,-4.29,-4.29,-4.29,-4.29,-4.29,-4.29,-4.29,-4.29,-4.29,-4.29,-4.29,-4.29,-4.29,-4.29,-4.29,-4.29,-4.29,-4.29,-4.29,-4.29,-4.29,-4.29,-4.29,-4.29,-4.29,-4.29,-4.29,-4.29,-4.29,-4.29,-4.2938,-4.3012,-4.3067,-4.3123,-4.3196,-4.3394,-4.3504,-4.3869,-4.4306,-4.4874,-4.5755,-4.6361,-4.691,-4.7443,-4.8015,-4.8292,-4.844,-4.8495,-4.8915,-4.9375,-4.9702,-5.0,-5.012,-5.0236,-5.0278,-5.0302,-5.0302,-5.0302,-5.0302,-5.0302,-5.0302,-5.0302,-5.0302,-5.0302,-5.0302,-5.0302,-5.0302,-5.0302,-5.0302,-5.0302,-5.0302,-5.0302,-5.0302,-5.0302,-5.0302,-5.0302,-5.0302,-5.0302,-5.0302,-5.0302,-5.0302,-5.0302,-5.0302,-3.8391,-3.8391,-3.8391,-3.8408,-3.8448,-3.8616,-3.8766,-3.904,-3.9202,-3.9288,-3.9288,-3.9288,-3.9288,-3.9288,-3.9288,-3.9288,-3.9288,-3.9288,-3.9288,-3.9288,-3.9288,-3.9342,-3.9379,-3.9504,-3.9799,-4.0203,-4.0814,-4.1428,-4.1831,-4.245,-4.2783,-4.2842,-4.29,-4.29,-4.29,-4.29,-4.29,-4.29,-4.29,-4.29,-4.29,-4.29,-4.29,-4.29,-4.29,-4.29,-4.29,-4.29,-4.29,-4.29,-4.29,-4.29,-4.29,-4.29,-4.29,-4.29,-4.29,-4.29,-4.29,-4.29,-4.29,-4.2938,-4.2994,-4.3012,-4.3104,-4.316,-4.3269,-4.3505,-4.387,-4.4272,-4.4618,-4.5847,-4.6691,-4.6948,-4.7425,-4.7865,-4.8271,-4.8327,-4.8402,-4.8364,-4.864,-4.8866,-4.9145,-4.9618,-4.983,-5.0032,-5.0076,-5.0236,-5.0302,-5.0302,-5.0302,-5.0302,-5.0302,-5.0302,-5.0302,-5.0302,-5.0302,-5.0302,-5.0302,-5.0302,-5.0302,-5.0302,-5.0302,-5.0302,-5.0302,-5.0302,-5.0302,-5.0302,-5.0302,-5.0302,-5.0302,-5.0302,-5.0302,-5.0302,-5.0302,-3.8391,-3.8391,-3.8391,-3.8391,-3.8408,-3.852,-3.8782,-3.9023,-3.9218,-3.9288,-3.9288,-3.9288,-3.9288,-3.9288,-3.9288,-3.9288,-3.9288,-3.9288,-3.9288,-3.9288,-3.9288,-3.9288,-3.9288,-3.9325,-3.9592,-3.9885,-4.048,-4.1094,-4.164,-4.2351,-4.2727,-4.2842,-4.2862,-4.29,-4.29,-4.29,-4.29,-4.29,-4.29,-4.29,-4.29,-4.29,-4.29,-4.29,-4.29,-4.29,-4.29,-4.29,-4.29,-4.29,-4.29,-4.29,-4.29,-4.29,-4.29,-4.29,-4.29,-4.29,-4.29,-4.29,-4.29,-4.29,-4.2994,-4.3049,-4.3104,-4.3123,-4.3488,-4.3852,-4.4345,-4.4931,-4.5572,-4.6819,-4.7205,-4.7443,-4.781,-4.8251,-4.8288,-4.8344,-4.8344,-4.8306,-4.8344,-4.8495,-4.8658,-4.908,-4.9483,-4.9702,-4.9884,-5.0076,-5.0255,-5.0302,-5.0302,-5.0302,-5.0302,-5.0302,-5.0302,-5.0302,-5.0302,-5.0302,-5.0302,-5.0302,-5.0302,-5.0302,-5.0302,-5.0302,-5.0302,-5.0302,-5.0302,-5.0302,-5.0302,-5.0302,-5.0302,-5.0302,-5.0302,-5.0302,-5.0302,-3.8391,-3.8391,-3.8391,-3.8391,-3.8408,-3.8576,-3.8782,-3.9023,-3.9218,-3.9272,-3.9288,-3.9288,-3.9288,-3.9288,-3.9288,-3.9288,-3.9288,-3.9288,-3.9288,-3.9288,-3.9288,-3.9288,-3.9288,-3.9325,-3.9504,-3.9969,-4.0528,-4.1065,-4.1648,-4.231,-4.2688,-4.2842,-4.288,-4.29,-4.29,-4.29,-4.29,-4.29,-4.29,-4.29,-4.29,-4.29,-4.29,-4.29,-4.29,-4.29,-4.29,-4.29,-4.29,-4.29,-4.29,-4.29,-4.29,-4.29,-4.29,-4.29,-4.29,-4.29,-4.29,-4.29,-4.29,-4.2918,-4.3027,-4.3048,-4.3104,-4.325,-4.3725,-4.4291,-4.4839,-4.581,-4.6745,-4.713,-4.7553,-4.7847,-4.8159,-4.8306,-4.8306,-4.8324,-4.8324,-4.8324,-4.8324,-4.8402,-4.8458,-4.8797,-4.9113,-4.9283,-4.9512,-4.9811,-5.0025,-5.0278,-5.0302,-5.0302,-5.0302,-5.0302,-5.0302,-5.0302,-5.0302,-5.0302,-5.0302,-5.0302,-5.0302,-5.0302,-5.0302,-5.0302,-5.0302,-5.0302,-5.0302,-5.0302,-5.0302,-5.0302,-5.0302,-5.0302,-5.0302,-5.0302,-5.0302,-3.8391,-3.8391,-3.8391,-3.8391,-3.8408,-3.8576,-3.8727,-3.886,-3.904,-3.9148,-3.9288,-3.9288,-3.9288,-3.9288,-3.9288,-3.9288,-3.9288,-3.9288,-3.9288,-3.9288,-3.9288,-3.9288,-3.9288,-3.9342,-3.9484,-3.985,-4.0368,-4.0943,-4.1356,-4.2044,-4.2645,-4.2783,-4.2842,-4.2862,-4.29,-4.29,-4.29,-4.29,-4.29,-4.29,-4.29,-4.29,-4.29,-4.29,-4.29,-4.29,-4.29,-4.29,-4.29,-4.29,-4.29,-4.29,-4.29,-4.29,-4.29,-4.29,-4.29,-4.29,-4.29,-4.29,-4.2936,-4.3118,-4.3389,-4.3299,-4.3356,-4.365,-4.4161,-4.482,-4.5571,-4.6543,-4.7149,-4.7572,-4.7847,-4.8104,-4.8324,-4.8324,-4.8324,-4.8324,-4.8324,-4.8324,-4.8324,-4.8306,-4.8364,-4.8421,-4.8711,-4.89,-4.9126,-4.9453,-4.9784,-5.0051,-5.0278,-5.0278,-5.0302,-5.0302,-5.0302,-5.0302,-5.0302,-5.0302,-5.0302,-5.0302,-5.0302,-5.0302,-5.0302,-5.0302,-5.0302,-5.0302,-5.0302,-5.0302,-5.0302,-5.0302,-5.0302,-5.0302,-5.0302,-5.0302,-5.0302,-3.8391,-3.8391,-3.8391,-3.8391,-3.8391,-3.852,-3.86,-3.875,-3.8931,-3.9094,-3.9288,-3.9288,-3.9288,-3.9288,-3.9288,-3.9288,-3.9288,-3.9288,-3.9288,-3.9288,-3.9288,-3.9288,-3.9288,-3.9325,-3.9325,-3.9713,-4.0237,-4.0849,-4.122,-4.1934,-4.2624,-4.2783,-4.2783,-4.2842,-4.2862,-4.29,-4.29,-4.29,-4.29,-4.29,-4.29,-4.29,-4.29,-4.29,-4.29,-4.29,-4.29,-4.29,-4.29,-4.29,-4.29,-4.29,-4.29,-4.29,-4.29,-4.29,-4.29,-4.29,-4.29,-4.29,-4.3063,-4.3389,-4.3842,-4.3969,-4.4227,-4.4558,-4.5091,-4.5661,-4.6431,-4.7166,-4.7589,-4.7976,-4.8141,-4.8306,-4.8324,-4.8324,-4.8324,-4.8324,-4.8324,-4.8324,-4.8324,-4.8324,-4.8324,-4.8324,-4.8402,-4.8711,-4.8967,-4.9145,-4.9512,-4.983,-5.012,-5.0278,-5.0278,-5.0302,-5.0302,-5.0302,-5.0302,-5.0302,-5.0302,-5.0302,-5.0302,-5.0302,-5.0302,-5.0302,-5.0302,-5.0302,-5.0302,-5.0302,-5.0302,-5.0302,-5.0302,-5.0302,-5.0302,-5.0302,-5.0302,-3.8391,-3.8391,-3.8391,-3.8391,-3.8391,-3.8391,-3.852,-3.8616,-3.8876,-3.9094,-3.9218,-3.9255,-3.9288,-3.9288,-3.9288,-3.9288,-3.9288,-3.9288,-3.9288,-3.9288,-3.9288,-3.9288,-3.9325,-3.9362,-3.9504,-3.9747,-4.0269,-4.1082,-4.1265,-4.1917,-4.2566,-4.2745,-4.2763,-4.2783,-4.288,-4.2862,-4.2862,-4.29,-4.29,-4.29,-4.29,-4.29,-4.29,-4.29,-4.29,-4.29,-4.29,-4.29,-4.29,-4.29,-4.29,-4.29,-4.29,-4.29,-4.29,-4.29,-4.29,-4.29,-4.2973,-4.3063,-4.3462,-4.3824,-4.4222,-4.4729,-4.5167,-4.5469,-4.5931,-4.6337,-4.7035,-4.7532,-4.7994,-4.8122,-4.8251,-4.8324,-4.8324,-4.8324,-4.8324,-4.8324,-4.8324,-4.8324,-4.8324,-4.8324,-4.8324,-4.8324,-4.8344,-4.8623,-4.8746,-4.89,-4.9209,-4.956,-4.983,-5.012,-5.0278,-5.0278,-5.0302,-5.0302,-5.0302,-5.0302,-5.0302,-5.0302,-5.0302,-5.0302,-5.0302,-5.0302,-5.0302,-5.0302,-5.0302,-5.0302,-5.0302,-5.0302,-5.0302,-5.0302,-5.0302,-5.0302,-5.0302,-3.8391,-3.8391,-3.8391,-3.8391,-3.8391,-3.8391,-3.8464,-3.8616,-3.8672,-3.8821,-3.904,-3.9218,-3.9272,-3.9272,-3.9288,-3.9288,-3.9288,-3.9288,-3.9288,-3.9288,-3.9288,-3.9288,-3.9379,-3.9556,-3.9731,-4.0153,-4.072,-4.1445,-4.1813,-4.2187,-4.2427,-4.2584,-4.2624,-4.2667,-4.2804,-4.2842,-4.2842,-4.29,-4.29,-4.29,-4.29,-4.29,-4.29,-4.29,-4.29,-4.29,-4.29,-4.29,-4.29,-4.29,-4.29,-4.29,-4.29,-4.29,-4.29,-4.29,-4.29,-4.2936,-4.3136,-4.3425,-4.3896,-4.4494,-4.5055,-4.5743,-4.6182,-4.6418,-4.6661,-4.7049,-4.7437,-4.7899,-4.8214,-4.8288,-4.8324,-4.8324,-4.8324,-4.8324,-4.8324,-4.8324,-4.8324,-4.8324,-4.8324,-4.8324,-4.8324,-4.8306,-4.8326,-4.8345,-4.8402,-4.855,-4.89,-4.924,-4.9442,-4.9749,-5.0169,-5.0259,-5.0278,-5.0302,-5.0302,-5.0302,-5.0302,-5.0302,-5.0302,-5.0302,-5.0302,-5.0302,-5.0302,-5.0302,-5.0302,-5.0302,-5.0302,-5.0302,-5.0302,-5.0302,-5.0302,-5.0302,-5.0302,-3.8391,-3.8391,-3.8391,-3.8391,-3.8391,-3.8391,-3.8448,-3.852,-3.856,-3.8711,-3.8931,-3.9094,-3.9148,-3.9202,-3.9272,-3.9288,-3.9288,-3.9288,-3.9288,-3.9288,-3.9288,-3.9288,-3.9468,-3.9592,-3.9782,-4.0153,-4.1047,-4.1709,-4.2228,-4.2328,-4.2387,-4.2463,-4.2503,-4.2566,-4.2745,-4.2783,-4.2822,-4.29,-4.29,-4.29,-4.29,-4.29,-4.29,-4.29,-4.29,-4.29,-4.29,-4.29,-4.29,-4.29,-4.29,-4.29,-4.29,-4.29,-4.29,-4.29,-4.2936,-4.3063,-4.3425,-4.3878,-4.4476,-4.5218,-4.5725,-4.6377,-4.6975,-4.7193,-4.7314,-4.7609,-4.7764,-4.821,-4.8231,-4.8306,-4.8324,-4.8324,-4.8324,-4.8324,-4.8324,-4.8324,-4.8324,-4.8324,-4.8324,-4.8324,-4.8324,-4.8324,-4.8344,-4.8344,-4.8306,-4.8326,-4.864,-4.8986,-4.9164,-4.9412,-4.9876,-5.0188,-5.0278,-5.0302,-5.0302,-5.0302,-5.0302,-5.0302,-5.0302,-5.0302,-5.0302,-5.0302,-5.0302,-5.0302,-5.0302,-5.0302,-5.0302,-5.0302,-5.0302,-5.0302,-5.0302,-5.0302,-5.0302,-3.8391,-3.8391,-3.8391,-3.8391,-3.8391,-3.8391,-3.8408,-3.8391,-3.852,-3.8655,-3.875,-3.8914,-3.8969,-3.9094,-3.9218,-3.9272,-3.9288,-3.9288,-3.9288,-3.9288,-3.9288,-3.9288,-3.9325,-3.9451,-3.9868,-4.048,-4.1293,-4.1813,-4.2287,-4.2287,-4.2346,-4.2445,-4.2503,-4.2584,-4.2724,-4.2783,-4.2804,-4.2862,-4.29,-4.29,-4.29,-4.29,-4.29,-4.29,-4.29,-4.29,-4.29,-4.29,-4.29,-4.29,-4.29,-4.29,-4.29,-4.29,-4.29,-4.2918,-4.3172,-4.3462,-4.3914,-4.4421,-4.5273,-4.6051,-4.645,-4.692,-4.7518,-4.7728,-4.7852,-4.7933,-4.809,-4.8208,-4.8247,-4.8324,-4.8324,-4.8324,-4.8324,-4.8324,-4.8324,-4.8324,-4.8324,-4.8324,-4.8324,-4.8324,-4.8324,-4.8324,-4.8324,-4.8324,-4.8306,-4.8344,-4.8421,-4.8713,-4.8971,-4.9246,-4.9608,-4.9922,-5.0188,-5.0302,-5.0302,-5.0302,-5.0302,-5.0302,-5.0302,-5.0302,-5.0302,-5.0302,-5.0302,-5.0302,-5.0302,-5.0302,-5.0302,-5.0302,-5.0302,-5.0302,-5.0302,-5.0302,-5.0302,-3.8391,-3.8391,-3.8391,-3.8391,-3.8391,-3.8391,-3.8391,-3.8391,-3.8408,-3.852,-3.8672,-3.8805,-3.8969,-3.9272,-3.9272,-3.9288,-3.9288,-3.9288,-3.9288,-3.9288,-3.9288,-3.9288,-3.9415,-3.9627,-4.0383,-4.1001,-4.1578,-4.2086,-4.2287,-4.2287,-4.2287,-4.2346,-4.2346,-4.2427,-4.2544,-4.2588,-4.2688,-4.2804,-4.2862,-4.29,-4.29,-4.29,-4.29,-4.29,-4.29,-4.29,-4.29,-4.29,-4.29,-4.29,-4.29,-4.29,-4.29,-4.29,-4.29,-4.3063,-4.3317,-4.386,-4.4331,-4.5182,-4.6124,-4.6522,-4.692,-4.7355,-4.7681,-4.7681,-4.7806,-4.7907,-4.8046,-4.8148,-4.8226,-4.8286,-4.8324,-4.8324,-4.8324,-4.8324,-4.8324,-4.8324,-4.8324,-4.8324,-4.8324,-4.8324,-4.8324,-4.8324,-4.8324,-4.8324,-4.8324,-4.8344,-4.8514,-4.866,-4.8785,-4.909,-4.942,-4.9703,-4.9986,-5.0255,-5.0302,-5.0302,-5.0302,-5.0302,-5.0302,-5.0302,-5.0302,-5.0302,-5.0302,-5.0302,-5.0302,-5.0302,-5.0302,-5.0302,-5.0302,-5.0302,-5.0302,-5.0302,-5.0302]}]]